[[{"header":{"parameterUnit":"m.s-1","parameterCategory":1,"la1":31.0,"la2":29.5877,"lo1":-88.7671,"lo2":-86.6584,"dy":0.0162,"dx":0.0185,"nx":115,"ny":88,"refTime":"2023-06-22T06:00:00:Z","depth":0,"parameterNumber":2,"parameterNumberName":"U-component_of_WINDS"},"data":[0.0,0.0,0.0,0.0,0.0,0.0,0.0,0.0,0.0,0.0,0.0,0.0,0.0,0.0,0.0,0.0,0.0,0.0,0.0,0.0,0.0,0.0,0.0,0.0,0.0,0.0,0.0,0.0,0.0,0.0,0.0,0.0,0.0,0.0,0.0,0.0,0.0,0.0,0.0,0.0,0.0,0.0,0.0,0.0,0.0,0.0,0.0,0.0,0.0,0.0,0.0,0.0,0.0,0.0,0.0,0.0,0.0,0.0,0.0,0.0,0.0,0.0,0.0,0.0,0.0,0.0,0.0,0.0,0.0,0.0,0.0,0.0,0.0,0.0,0.0,0.0,0.0,0.0,0.0,0.0,0.0,0.0,0.0,0.0,0.0,0.0,0.0,0.0,0.0,0.0,0.0,0.0,0.0,0.0,0.0,0.0,0.0,0.0,0.0,0.0,0.0,0.0,0.0,0.0,0.0,0.0,0.0,0.0,0.0,0.0,0.0,0.0,0.0,0.0,0.0,0.0,0.0,0.0,0.0,0.0,0.0,0.0,0.0,0.0,0.0,0.0,0.0,0.0,0.0,0.0,0.0,0.0,0.0,0.0,0.0,0.0,0.0,0.0,0.0,0.0,0.0,0.0,0.0,0.0,0.0,0.0,0.0,0.0,0.0,0.0,0.0,0.0,0.0,0.0,0.0,0.0,0.0,0.0,0.0,0.0,0.0,0.0,0.0,0.0,0.0,0.0,0.0,0.0,0.0,0.0,0.0,0.0,0.0,0.0,0.0,0.0,0.0,0.0,0.0,0.0,0.0,0.0,0.0,0.0,0.0,0.0,0.0,0.0,0.0,0.0,0.0,0.0,0.0,0.0,0.0,0.0,0.0,0.0,0.0,0.0,0.0,0.0,0.0,0.0,0.0,0.0,0.0,0.0,0.0,0.0,0.0,0.0,0.0,0.0,0.0,0.0,0.0,0.0,0.0,0.0,0.0,0.0,0.0,0.0,0.0,0.0,0.0,0.0,0.0,0.0,0.0,0.0,0.0,0.0,0.0,0.0,0.0,0.0,0.0,0.0,0.0,0.0,0.0,0.0,0.0,0.0,0.0,0.0,0.0,0.0,0.0,0.0,0.0,0.0,0.0,0.0,0.0,0.0,0.0,0.0,0.0,0.0,0.0,0.0,0.0,0.0,0.0,0.0,0.0,0.0,0.0,0.0,0.0,0.0,0.0,0.0,0.0,0.0,0.0,0.0,0.0,0.0,0.0,0.0,0.0,0.0,0.0,0.0,0.0,0.0,0.0,0.0,0.0,0.0,0.0,0.0,0.0,0.0,0.0,0.0,0.0,0.0,0.0,0.0,0.0,0.0,0.0,0.0,0.0,0.0,0.0,0.0,0.0,0.0,0.0,0.0,0.0,0.0,0.0,0.0,0.0,0.0,0.0,0.0,0.0,0.0,0.0,0.0,0.0,0.0,0.0,0.0,0.0,0.0,0.0,0.0,0.0,0.0,0.0,0.0,0.0,0.0,0.0,0.0,0.0,0.0,0.0,0.0,0.0,0.0,0.0,0.0,0.0,0.0,0.0,0.0,0.0,0.0,0.0,0.0,0.0,0.0,0.0,0.0,0.0,0.0,0.0,0.0,0.0,0.0,0.0,0.0,0.0,0.0,0.0,0.0,0.0,0.0,0.0,0.0,0.0,0.0,0.0,0.0,0.0,0.0,0.0,0.0,0.0,0.0,0.0,0.0,0.0,0.0,0.0,0.0,0.0,0.0,0.0,0.0,0.0,0.0,0.0,0.0,0.0,0.0,0.0,0.0,0.0,0.0,0.0,0.0,0.0,0.0,0.0,0.0,0.0,0.0,0.0,0.0,0.0,0.0,0.0,0.0,0.0,0.0,0.0,0.0,0.0,0.0,0.0,0.0,0.0,0.0,0.0,0.0,0.0,0.0,0.0,0.0,0.0,0.0,0.0,0.0,0.0,0.0,0.0,0.0,0.0,0.0,0.0,0.0,0.0,0.0,0.0,0.0,0.0,0.0,0.0,0.0,0.0,0.0,0.0,0.0,0.0,0.0,0.0,0.0,0.0,0.0,0.0,0.0,0.0,0.0,0.0,0.0,0.0,0.0,0.0,0.0,0.0,0.0,0.0,0.0,0.0,0.0,0.0,0.0,0.0,0.0,0.0,0.0,0.0,0.0,0.0,0.0,0.0,0.0,0.0,0.0,0.0,0.0,0.0,0.0,0.0,0.0,0.0,0.0,0.0,0.0,0.0,0.0,0.0,0.0,0.0,0.0,0.0,0.0,0.0,0.0,0.0,0.0,0.0,0.0,0.0,0.0,0.0,0.0,0.0,0.0,0.0,0.0,0.0,0.0,0.0,0.0,0.0,0.0,0.0,0.0,0.0,0.0,0.0,0.0,0.0,0.0,0.0,0.0,0.0,0.0,0.0,0.0,0.0,0.0,0.0,0.0,0.0,0.0,0.0,0.0,0.0,0.0,0.0,0.0,0.0,0.0,0.0,0.0,0.0,0.0,0.0,0.0,0.0,0.0,0.0,0.0,0.0,0.0,0.0,0.0,0.0,0.0,0.0,0.0,0.0,0.0,0.0,0.0,0.0,0.0,0.0,0.0,0.0,0.0,0.0,0.0,0.0,0.0,0.0,0.0,0.0,0.0,0.0,0.0,0.0,0.0,0.0,0.0,0.0,0.0,0.0,0.0,0.0,0.0,0.0,0.0,0.0,0.0,0.0,0.0,0.0,0.0,0.0,0.0,0.0,0.0,0.0,0.0,0.0,0.0,0.0,0.0,0.0,0.0,0.0,0.0,0.0,0.0,0.0,0.0,0.0,0.0,0.0,0.0,0.0,0.0,0.0,0.0,0.0,0.0,0.0,0.0,0.0,0.0,0.0,0.0,0.0,0.0,0.0,0.0,0.0,0.0,0.0,0.0,0.0,0.0,0.0,0.0,0.0,0.0,0.0,0.0,0.0,0.0,0.0,0.0,0.0,0.0,0.0,0.0,0.0,0.0,0.0,0.0,0.0,0.0,0.0,0.0,0.0,0.0,0.0,0.0,0.0,0.0,0.0,0.0,0.0,0.0,0.0,0.0,0.0,0.0,0.0,0.0,0.0,0.0,0.0,0.0,0.0,0.0,0.0,0.0,0.0,0.0,0.0,0.0,0.0,0.0,0.0,0.0,0.0,0.0,0.0,0.0,0.0,0.0,0.0,0.0,0.0,0.0,0.0,0.0,0.0,0.0,0.0,0.0,0.0,0.0,0.0,0.0,0.0,0.0,0.0,0.0,0.0,0.0,0.0,0.0,0.0,0.0,0.0,0.0,0.0,0.0,0.0,0.0,0.0,0.0,0.0,0.0,0.0,0.0,0.0,0.0,0.0,0.0,0.0,0.0,0.0,0.0,0.0,0.0,0.0,0.0,0.0,0.0,0.0,0.0,0.0,0.0,0.0,0.0,0.0,0.0,0.0,0.0,0.0,0.0,0.0,0.0,0.0,0.0,0.0,0.0,0.0,0.0,0.0,0.0,0.0,0.0,0.0,0.0,0.0,0.0,0.0,0.0,0.0,0.0,0.0,0.0,0.0,0.0,0.0,0.0,0.0,0.0,0.0,0.0,0.0,0.0,0.0,0.0,0.0,0.0,0.0,0.0,0.0,0.0,0.0,0.0,0.0,0.0,0.0,0.0,0.0,0.0,0.0,0.0,0.0,0.0,0.0,0.0,0.0,0.0,0.0,0.0,0.0,0.0,0.0,0.0,0.0,0.0,0.0,0.0,0.0,0.0,0.0,0.0,0.0,0.0,0.0,0.0,0.0,0.0,0.0,0.0,0.0,0.0,0.0,0.0,0.0,0.0,0.0,0.0,0.0,0.0,0.0,0.0,0.0,0.0,0.0,0.0,0.0,0.0,0.0,0.0,0.0,0.0,0.0,0.0,0.0,0.0,0.0,0.0,0.0,0.0,0.0,0.0,0.0,0.0,0.0,0.0,0.0,0.0,0.0,0.0,0.0,0.0,0.0,0.0,0.0,0.0,0.0,0.0,0.0,0.0,0.0,0.0,0.0,0.0,0.0,0.0,0.0,0.0,0.0,0.0,0.0,0.0,0.0,0.0,0.0,0.0,0.0,0.0,0.0,0.0,0.0,0.0,0.0,0.0,0.0,0.0,0.0,0.0,0.0,0.0,0.0,0.0,0.0,0.0,0.0,0.0,0.0,0.0,0.0,0.0,0.0,0.0,0.0,0.0,0.0,0.0,0.0,0.0,0.0,0.0,-2.346,0.0,0.0,0.0,0.0,0.0,0.0,0.0,0.0,0.0,0.0,0.0,0.0,0.0,0.0,0.0,0.0,0.0,0.0,0.0,0.0,0.0,0.0,0.0,0.0,0.0,0.0,0.0,0.0,0.0,0.0,0.0,0.0,0.0,0.0,0.0,0.0,0.0,0.0,0.0,0.0,0.0,0.0,0.0,0.0,0.0,0.0,0.0,0.0,0.0,0.0,0.0,0.0,0.0,0.0,0.0,0.0,0.0,0.0,0.0,0.0,0.0,0.0,0.0,0.0,0.0,0.0,0.0,0.0,0.0,0.0,0.0,0.0,0.0,0.0,0.0,0.0,0.0,0.0,0.0,0.0,0.0,0.0,0.0,0.0,0.0,0.0,0.0,0.0,0.0,0.0,0.0,0.0,0.0,0.0,0.0,0.0,0.0,0.0,0.0,0.0,0.0,0.0,0.0,0.0,0.0,0.0,0.0,0.0,0.0,0.0,-2.4403,-2.4687,-2.5121,-2.5315,-2.5196,0.0,0.0,0.0,0.0,0.0,0.0,0.0,0.0,0.0,0.0,0.0,0.0,0.0,0.0,0.0,0.0,0.0,0.0,0.0,0.0,0.0,0.0,0.0,0.0,0.0,0.0,0.0,0.0,0.0,0.0,0.0,0.0,0.0,0.0,0.0,0.0,0.0,0.0,0.0,0.0,0.0,0.0,0.0,0.0,0.0,0.0,0.0,0.0,0.0,0.0,0.0,0.0,0.0,0.0,0.0,0.0,0.0,0.0,0.0,0.0,0.0,0.0,0.0,0.0,0.0,0.0,0.0,0.0,0.0,0.0,0.0,0.0,0.0,0.0,0.0,0.0,0.0,0.0,0.0,0.0,0.0,0.0,0.0,0.0,0.0,0.0,0.0,0.0,0.0,0.0,0.0,0.0,0.0,0.0,0.0,0.0,0.0,0.0,0.0,0.0,0.0,0.0,0.0,0.0,0.0,0.0,0.0,0.0,0.0,0.0,0.0,0.0,-2.6811,-2.7186,-2.6767,0.0,0.0,0.0,0.0,0.0,0.0,0.0,0.0,0.0,0.0,0.0,0.0,0.0,0.0,0.0,0.0,0.0,0.0,0.0,0.0,0.0,0.0,0.0,0.0,0.0,0.0,0.0,0.0,0.0,0.0,0.0,0.0,0.0,0.0,0.0,0.0,0.0,0.0,0.0,0.0,0.0,0.0,0.0,0.0,0.0,0.0,0.0,0.0,0.0,0.0,0.0,0.0,0.0,0.0,0.0,0.0,0.0,0.0,0.0,0.0,0.0,0.0,0.0,0.0,0.0,0.0,0.0,0.0,0.0,0.0,0.0,0.0,0.0,0.0,0.0,0.0,0.0,0.0,0.0,0.0,0.0,0.0,0.0,0.0,0.0,0.0,0.0,0.0,0.0,0.0,0.0,0.0,0.0,0.0,0.0,0.0,0.0,0.0,0.0,0.0,0.0,0.0,0.0,0.0,0.0,0.0,0.0,0.0,0.0,0.0,-2.527,-2.6452,-2.6632,0.0,-2.729,0.0,0.0,0.0,0.0,0.0,0.0,0.0,0.0,0.0,0.0,0.0,0.0,0.0,0.0,0.0,0.0,0.0,0.0,0.0,0.0,0.0,0.0,0.0,0.0,0.0,0.0,0.0,0.0,0.0,0.0,0.0,0.0,0.0,0.0,0.0,0.0,0.0,0.0,0.0,0.0,0.0,0.0,0.0,0.0,0.0,0.0,0.0,0.0,0.0,0.0,0.0,0.0,0.0,0.0,0.0,0.0,0.0,0.0,0.0,0.0,0.0,0.0,0.0,0.0,0.0,0.0,0.0,0.0,0.0,0.0,0.0,0.0,0.0,0.0,0.0,0.0,0.0,0.0,0.0,0.0,0.0,0.0,0.0,0.0,0.0,0.0,0.0,0.0,0.0,0.0,0.0,0.0,0.0,0.0,0.0,0.0,0.0,0.0,0.0,0.0,0.0,0.0,0.0,0.0,0.0,0.0,0.0,0.0,0.0,0.0,-2.6617,-2.722,-2.7575,-2.7709,0.0,0.0,0.0,0.0,0.0,0.0,0.0,0.0,0.0,0.0,0.0,0.0,0.0,0.0,0.0,0.0,0.0,0.0,0.0,0.0,0.0,0.0,0.0,0.0,0.0,0.0,0.0,0.0,0.0,0.0,0.0,0.0,0.0,0.0,0.0,0.0,0.0,0.0,0.0,0.0,0.0,0.0,0.0,0.0,0.0,0.0,0.0,0.0,0.0,0.0,0.0,0.0,0.0,0.0,0.0,0.0,0.0,0.0,0.0,0.0,0.0,0.0,0.0,0.0,0.0,0.0,0.0,0.0,0.0,0.0,0.0,0.0,0.0,0.0,0.0,0.0,0.0,0.0,0.0,0.0,0.0,0.0,0.0,0.0,0.0,0.0,0.0,0.0,0.0,0.0,0.0,0.0,0.0,0.0,0.0,0.0,0.0,0.0,0.0,0.0,0.0,0.0,0.0,0.0,0.0,0.0,0.0,0.0,0.0,0.0,-2.6991,-2.7715,-2.791,-2.8338,-2.8188,-2.732,0.0,0.0,0.0,0.0,0.0,0.0,0.0,0.0,0.0,0.0,0.0,0.0,0.0,0.0,0.0,0.0,0.0,0.0,0.0,0.0,0.0,0.0,0.0,0.0,0.0,0.0,0.0,0.0,0.0,0.0,0.0,0.0,0.0,0.0,0.0,0.0,0.0,0.0,0.0,0.0,0.0,0.0,0.0,0.0,0.0,0.0,0.0,0.0,0.0,0.0,0.0,0.0,0.0,0.0,0.0,0.0,0.0,0.0,0.0,0.0,0.0,0.0,0.0,0.0,0.0,0.0,0.0,0.0,0.0,0.0,0.0,0.0,0.0,0.0,0.0,0.0,0.0,0.0,0.0,0.0,0.0,0.0,0.0,0.0,0.0,0.0,0.0,0.0,0.0,0.0,0.0,0.0,0.0,0.0,0.0,0.0,0.0,0.0,0.0,0.0,0.0,0.0,0.0,0.0,0.0,0.0,0.0,0.0,-2.6512,-2.7245,-2.7889,-2.8532,-2.8592,-2.7979,0.0,0.0,0.0,0.0,0.0,0.0,0.0,0.0,0.0,0.0,0.0,0.0,0.0,0.0,0.0,0.0,0.0,0.0,0.0,0.0,0.0,0.0,0.0,0.0,0.0,0.0,0.0,0.0,0.0,0.0,0.0,0.0,0.0,0.0,0.0,0.0,0.0,0.0,0.0,0.0,0.0,0.0,0.0,0.0,0.0,0.0,0.0,0.0,0.0,0.0,0.0,0.0,0.0,0.0,0.0,0.0,0.0,0.0,0.0,0.0,0.0,0.0,0.0,0.0,0.0,0.0,0.0,0.0,0.0,0.0,0.0,0.0,0.0,0.0,0.0,0.0,0.0,0.0,0.0,0.0,0.0,0.0,0.0,0.0,0.0,0.0,0.0,0.0,0.0,0.0,0.0,0.0,0.0,0.0,0.0,0.0,0.0,0.0,0.0,0.0,0.0,0.0,0.0,0.0,0.0,0.0,0.0,0.0,0.0,-2.7265,-2.8293,-2.8981,-2.922,-2.9235,-2.8397,0.0,0.0,0.0,0.0,0.0,0.0,0.0,0.0,0.0,0.0,0.0,0.0,0.0,0.0,0.0,0.0,0.0,0.0,0.0,0.0,0.0,0.0,0.0,0.0,0.0,0.0,0.0,0.0,0.0,0.0,0.0,0.0,0.0,0.0,0.0,0.0,0.0,0.0,0.0,0.0,0.0,0.0,0.0,0.0,0.0,0.0,0.0,0.0,0.0,0.0,0.0,0.0,0.0,0.0,0.0,0.0,0.0,0.0,0.0,0.0,0.0,0.0,0.0,0.0,0.0,0.0,0.0,0.0,0.0,0.0,0.0,0.0,0.0,0.0,0.0,0.0,0.0,0.0,0.0,0.0,0.0,0.0,0.0,0.0,0.0,0.0,0.0,0.0,0.0,0.0,0.0,0.0,0.0,0.0,0.0,0.0,0.0,0.0,0.0,0.0,0.0,0.0,0.0,0.0,0.0,0.0,0.0,0.0,0.0,-2.8203,0.0,-2.9789,-2.9594,-2.9594,-2.8532,0.0,0.0,0.0,0.0,0.0,0.0,0.0,0.0,0.0,0.0,0.0,0.0,0.0,0.0,0.0,0.0,0.0,0.0,0.0,0.0,0.0,0.0,0.0,0.0,0.0,0.0,0.0,0.0,0.0,0.0,0.0,0.0,0.0,0.0,0.0,0.0,0.0,0.0,0.0,0.0,0.0,0.0,0.0,0.0,0.0,0.0,0.0,0.0,0.0,0.0,0.0,0.0,0.0,0.0,0.0,0.0,0.0,0.0,0.0,0.0,0.0,0.0,0.0,0.0,0.0,0.0,0.0,0.0,0.0,0.0,0.0,0.0,0.0,0.0,0.0,0.0,0.0,0.0,0.0,0.0,0.0,0.0,0.0,0.0,0.0,0.0,0.0,0.0,0.0,0.0,0.0,0.0,0.0,0.0,0.0,0.0,0.0,0.0,0.0,0.0,0.0,0.0,0.0,0.0,0.0,0.0,0.0,0.0,-2.7619,-2.9505,-3.0178,-3.0253,-2.9639,-2.9624,-2.8368,0.0,0.0,0.0,0.0,0.0,0.0,0.0,0.0,0.0,0.0,0.0,0.0,0.0,0.0,0.0,0.0,0.0,0.0,0.0,0.0,0.0,0.0,0.0,0.0,0.0,0.0,0.0,0.0,0.0,0.0,0.0,0.0,0.0,0.0,0.0,0.0,0.0,0.0,0.0,0.0,0.0,0.0,0.0,0.0,0.0,0.0,0.0,0.0,0.0,0.0,0.0,0.0,0.0,0.0,0.0,0.0,0.0,0.0,0.0,0.0,0.0,0.0,0.0,0.0,0.0,0.0,0.0,0.0,0.0,0.0,0.0,0.0,0.0,0.0,0.0,0.0,0.0,0.0,0.0,0.0,0.0,0.0,0.0,0.0,0.0,0.0,0.0,0.0,0.0,0.0,0.0,0.0,0.0,0.0,0.0,0.0,0.0,0.0,0.0,0.0,0.0,0.0,0.0,0.0,0.0,0.0,0.0,0.0,0.0,-3.0208,-3.0866,-3.112,-3.0926,-3.0477,-2.8981,0.0,0.0,0.0,0.0,0.0,0.0,0.0,0.0,0.0,0.0,0.0,0.0,0.0,0.0,0.0,0.0,0.0,0.0,0.0,0.0,0.0,0.0,0.0,0.0,0.0,0.0,0.0,0.0,0.0,0.0,0.0,0.0,0.0,0.0,0.0,0.0,0.0,0.0,0.0,0.0,0.0,0.0,0.0,0.0,0.0,0.0,0.0,0.0,0.0,0.0,0.0,0.0,0.0,0.0,0.0,0.0,0.0,0.0,0.0,0.0,0.0,0.0,0.0,0.0,0.0,0.0,0.0,0.0,0.0,0.0,0.0,0.0,0.0,0.0,0.0,0.0,0.0,0.0,0.0,0.0,0.0,0.0,0.0,0.0,0.0,0.0,0.0,0.0,0.0,0.0,0.0,0.0,0.0,0.0,0.0,0.0,0.0,0.0,0.0,0.0,0.0,0.0,0.0,0.0,0.0,0.0,0.0,0.0,0.0,-3.1973,-3.2407,-3.2512,-3.2273,-3.1375,-2.9639,-2.7051,0.0,0.0,0.0,0.0,0.0,0.0,0.0,0.0,0.0,0.0,0.0,0.0,0.0,0.0,0.0,0.0,0.0,0.0,0.0,0.0,0.0,0.0,0.0,0.0,0.0,0.0,0.0,0.0,0.0,0.0,0.0,0.0,0.0,0.0,0.0,0.0,0.0,0.0,0.0,0.0,0.0,0.0,0.0,0.0,0.0,0.0,0.0,0.0,0.0,0.0,0.0,0.0,0.0,0.0,0.0,0.0,0.0,0.0,0.0,0.0,0.0,0.0,0.0,0.0,0.0,0.0,0.0,0.0,0.0,0.0,0.0,0.0,0.0,0.0,0.0,0.0,0.0,0.0,0.0,0.0,0.0,0.0,0.0,0.0,0.0,0.0,0.0,0.0,0.0,0.0,0.0,0.0,0.0,0.0,0.0,0.0,0.0,0.0,0.0,0.0,0.0,0.0,0.0,0.0,0.0,0.0,0.0,0.0,-3.4607,-3.4711,-3.4412,-3.3679,-3.2407,-3.0432,0.0,0.0,0.0,0.0,0.0,0.0,0.0,0.0,0.0,0.0,0.0,0.0,0.0,0.0,0.0,0.0,0.0,0.0,0.0,0.0,0.0,0.0,0.0,0.0,0.0,0.0,0.0,0.0,0.0,0.0,0.0,0.0,0.0,0.0,0.0,0.0,0.0,0.0,0.0,0.0,0.0,0.0,0.0,0.0,0.0,0.0,0.0,0.0,0.0,0.0,0.0,0.0,0.0,0.0,0.0,0.0,0.0,0.0,0.0,0.0,0.0,0.0,0.0,0.0,0.0,0.0,0.0,0.0,0.0,0.0,0.0,0.0,0.0,0.0,0.0,0.0,0.0,0.0,0.0,0.0,0.0,0.0,0.0,0.0,0.0,0.0,0.0,0.0,0.0,0.0,0.0,0.0,0.0,0.0,0.0,0.0,0.0,0.0,0.0,0.0,0.0,0.0,0.0,0.0,0.0,0.0,0.0,0.0,0.0,-3.6522,-3.7614,-3.7345,-3.5759,-3.4412,-3.2243,0.0,0.0,0.0,0.0,0.0,0.0,0.0,0.0,0.0,0.0,0.0,0.0,0.0,0.0,0.0,0.0,0.0,0.0,0.0,0.0,0.0,0.0,0.0,0.0,0.0,0.0,0.0,0.0,0.0,0.0,0.0,0.0,0.0,0.0,0.0,0.0,0.0,0.0,0.0,0.0,0.0,0.0,0.0,0.0,0.0,0.0,0.0,0.0,0.0,0.0,0.0,0.0,0.0,0.0,0.0,0.0,0.0,0.0,0.0,0.0,0.0,0.0,0.0,0.0,0.0,0.0,0.0,0.0,0.0,0.0,0.0,0.0,0.0,0.0,0.0,0.0,0.0,0.0,0.0,0.0,0.0,0.0,0.0,0.0,0.0,0.0,0.0,0.0,0.0,0.0,0.0,0.0,0.0,0.0,0.0,0.0,0.0,0.0,0.0,0.0,0.0,0.0,0.0,0.0,0.0,0.0,0.0,0.0,-3.4786,-3.7764,-3.9409,-3.9574,-3.8167,-3.6043,-3.3499,0.0,0.0,0.0,0.0,0.0,0.0,0.0,0.0,0.0,0.0,0.0,0.0,0.0,0.0,0.0,0.0,0.0,0.0,0.0,0.0,0.0,0.0,0.0,0.0,0.0,0.0,0.0,0.0,0.0,0.0,0.0,0.0,0.0,0.0,0.0,0.0,0.0,0.0,0.0,0.0,0.0,0.0,0.0,0.0,0.0,0.0,0.0,0.0,0.0,0.0,0.0,0.0,0.0,0.0,0.0,0.0,0.0,0.0,0.0,0.0,0.0,0.0,0.0,0.0,0.0,0.0,0.0,0.0,0.0,0.0,0.0,0.0,0.0,0.0,0.0,0.0,0.0,0.0,0.0,0.0,0.0,0.0,0.0,0.0,0.0,0.0,0.0,0.0,0.0,0.0,0.0,0.0,0.0,0.0,0.0,0.0,0.0,0.0,0.0,0.0,0.0,0.0,0.0,0.0,0.0,0.0,0.0,0.0,-3.5774,-3.8452,-4.0397,-4.11,-4.0442,-3.7449,-3.4487,0.0,0.0,0.0,0.0,0.0,0.0,0.0,0.0,0.0,0.0,0.0,0.0,0.0,0.0,0.0,0.0,0.0,0.0,0.0,0.0,0.0,0.0,0.0,0.0,0.0,0.0,0.0,0.0,0.0,0.0,0.0,0.0,0.0,0.0,0.0,0.0,0.0,0.0,0.0,0.0,0.0,0.0,0.0,0.0,0.0,0.0,0.0,0.0,0.0,0.0,0.0,0.0,0.0,0.0,0.0,0.0,0.0,0.0,0.0,0.0,0.0,0.0,0.0,0.0,0.0,0.0,0.0,0.0,0.0,0.0,0.0,0.0,0.0,0.0,0.0,0.0,0.0,0.0,0.0,0.0,0.0,0.0,0.0,0.0,0.0,0.0,0.0,0.0,0.0,0.0,0.0,0.0,0.0,0.0,0.0,0.0,0.0,0.0,0.0,0.0,0.0,0.0,0.0,0.0,0.0,0.0,0.0,0.0,-3.6013,-3.911,-4.0621,-4.1249,-4.0963,-3.8904,-3.5977,0.0,0.0,0.0,0.0,0.0,0.0,0.0,0.0,0.0,0.0,0.0,0.0,0.0,0.0,0.0,0.0,0.0,0.0,0.0,0.0,0.0,0.0,0.0,0.0,0.0,0.0,0.0,0.0,0.0,0.0,0.0,0.0,0.0,0.0,0.0,0.0,0.0,0.0,0.0,0.0,0.0,0.0,0.0,0.0,0.0,0.0,0.0,0.0,-2.3586,0.0,0.0,0.0,0.0,0.0,0.0,0.0,0.0,0.0,0.0,0.0,0.0,0.0,0.0,0.0,0.0,0.0,0.0,0.0,0.0,0.0,0.0,0.0,0.0,0.0,0.0,0.0,0.0,0.0,0.0,0.0,0.0,0.0,0.0,0.0,0.0,0.0,0.0,0.0,0.0,0.0,0.0,0.0,0.0,0.0,0.0,0.0,0.0,0.0,0.0,0.0,0.0,0.0,0.0,0.0,0.0,0.0,0.0,0.0,-3.6499,-3.919,-4.0396,-4.0941,-4.0713,-3.8856,-3.6129,0.0,0.0,0.0,0.0,0.0,0.0,0.0,0.0,0.0,0.0,0.0,0.0,0.0,0.0,0.0,0.0,0.0,0.0,0.0,0.0,0.0,0.0,0.0,0.0,0.0,0.0,0.0,0.0,0.0,0.0,0.0,0.0,0.0,0.0,0.0,0.0,0.0,0.0,0.0,0.0,0.0,0.0,0.0,0.0,0.0,0.0,0.0,0.0,0.0,0.0,0.0,0.0,0.0,0.0,0.0,0.0,0.0,0.0,0.0,0.0,0.0,0.0,0.0,0.0,0.0,0.0,0.0,0.0,0.0,0.0,0.0,0.0,0.0,0.0,0.0,0.0,0.0,0.0,0.0,0.0,0.0,0.0,0.0,0.0,0.0,0.0,0.0,0.0,0.0,0.0,0.0,0.0,0.0,0.0,0.0,0.0,0.0,0.0,0.0,0.0,0.0,0.0,0.0,0.0,0.0,0.0,0.0,-3.4301,-3.688,-3.9032,-3.9985,-4.0397,-4.029,-3.8098,-3.5493,-3.2571,0.0,0.0,0.0,0.0,0.0,0.0,0.0,0.0,0.0,0.0,0.0,0.0,0.0,0.0,0.0,0.0,0.0,0.0,0.0,0.0,0.0,0.0,0.0,0.0,0.0,0.0,0.0,0.0,0.0,0.0,0.0,0.0,0.0,0.0,0.0,0.0,0.0,0.0,-2.5216,-2.5636,0.0,0.0,0.0,0.0,0.0,0.0,0.0,0.0,-2.3654,0.0,0.0,0.0,0.0,0.0,0.0,0.0,0.0,0.0,0.0,0.0,0.0,0.0,0.0,0.0,0.0,0.0,0.0,0.0,0.0,0.0,0.0,0.0,0.0,0.0,0.0,0.0,0.0,0.0,0.0,0.0,0.0,0.0,0.0,0.0,0.0,0.0,0.0,0.0,0.0,0.0,0.0,0.0,0.0,0.0,0.0,0.0,0.0,0.0,0.0,0.0,0.0,0.0,0.0,0.0,0.0,-3.1257,-3.4008,-3.6605,-3.9004,-3.979,-4.0039,-3.9584,-3.729,-3.4484,-3.1433,0.0,0.0,0.0,0.0,0.0,0.0,0.0,0.0,0.0,0.0,0.0,0.0,0.0,0.0,0.0,0.0,0.0,0.0,0.0,0.0,0.0,0.0,0.0,0.0,0.0,0.0,0.0,0.0,0.0,0.0,0.0,0.0,0.0,0.0,0.0,0.0,0.0,0.0,0.0,-2.5516,-2.5725,0.0,0.0,0.0,0.0,0.0,0.0,0.0,0.0,-2.3729,0.0,0.0,0.0,0.0,0.0,0.0,0.0,0.0,0.0,0.0,0.0,0.0,0.0,0.0,0.0,0.0,0.0,0.0,0.0,0.0,0.0,0.0,0.0,0.0,0.0,0.0,0.0,0.0,0.0,0.0,0.0,0.0,0.0,0.0,0.0,0.0,0.0,0.0,0.0,0.0,0.0,0.0,0.0,0.0,0.0,0.0,0.0,0.0,0.0,0.0,0.0,0.0,0.0,0.0,0.0,-3.0554,-3.3339,-3.5682,-3.7663,-3.8325,-3.8413,-3.7835,-3.5543,-3.2897,0.0,0.0,0.0,0.0,0.0,0.0,0.0,0.0,0.0,0.0,0.0,0.0,0.0,0.0,0.0,0.0,0.0,0.0,0.0,0.0,0.0,0.0,0.0,0.0,0.0,0.0,0.0,0.0,0.0,0.0,0.0,0.0,0.0,0.0,0.0,0.0,0.0,0.0,0.0,0.0,-2.6965,-2.7304,-2.7156,0.0,0.0,0.0,0.0,0.0,0.0,-2.51,-2.4994,0.0,0.0,0.0,0.0,0.0,0.0,0.0,0.0,0.0,0.0,0.0,0.0,0.0,0.0,0.0,0.0,0.0,0.0,0.0,0.0,0.0,0.0,0.0,0.0,0.0,0.0,0.0,0.0,0.0,0.0,0.0,0.0,0.0,0.0,0.0,0.0,0.0,0.0,0.0,0.0,0.0,0.0,0.0,0.0,0.0,0.0,0.0,0.0,0.0,0.0,0.0,0.0,0.0,0.0,0.0,-2.9602,-3.2499,-3.4724,-3.622,-3.6744,-3.6766,-3.6177,-3.3756,-3.132,0.0,0.0,0.0,0.0,0.0,0.0,0.0,0.0,0.0,0.0,0.0,0.0,0.0,0.0,0.0,0.0,0.0,0.0,0.0,0.0,0.0,0.0,0.0,0.0,0.0,0.0,0.0,0.0,0.0,0.0,0.0,0.0,0.0,0.0,0.0,0.0,0.0,0.0,0.0,0.0,0.0,-2.8824,-2.8681,-2.818,0.0,0.0,0.0,0.0,-2.5622,-2.6001,0.0,0.0,0.0,0.0,0.0,0.0,0.0,0.0,0.0,0.0,0.0,0.0,0.0,0.0,0.0,0.0,0.0,0.0,0.0,0.0,0.0,0.0,0.0,0.0,0.0,0.0,0.0,0.0,0.0,0.0,0.0,0.0,0.0,0.0,0.0,0.0,0.0,0.0,0.0,0.0,0.0,0.0,0.0,0.0,0.0,0.0,0.0,0.0,0.0,0.0,0.0,0.0,0.0,0.0,0.0,0.0,-2.8766,-3.173,-3.4121,-3.5746,-3.5898,-3.5872,-3.5602,-3.2731,-3.0405,0.0,0.0,0.0,0.0,0.0,0.0,0.0,0.0,0.0,0.0,0.0,0.0,0.0,0.0,0.0,0.0,0.0,0.0,0.0,0.0,0.0,0.0,0.0,0.0,0.0,0.0,0.0,0.0,0.0,0.0,0.0,0.0,0.0,0.0,0.0,0.0,0.0,0.0,0.0,0.0,0.0,-2.898,-2.8814,-2.9212,-2.9073,0.0,0.0,-2.7175,-2.6912,-2.6311,0.0,0.0,0.0,0.0,0.0,0.0,0.0,0.0,0.0,0.0,0.0,0.0,0.0,0.0,0.0,0.0,0.0,0.0,0.0,0.0,0.0,0.0,0.0,0.0,0.0,0.0,0.0,0.0,0.0,0.0,0.0,0.0,0.0,0.0,0.0,0.0,0.0,0.0,0.0,0.0,0.0,0.0,0.0,0.0,0.0,0.0,0.0,0.0,0.0,0.0,0.0,0.0,0.0,0.0,0.0,-2.6539,-2.8314,-3.0586,-3.2441,-3.3853,-3.4137,-3.3993,-3.3607,-3.1479,-2.9476,0.0,0.0,0.0,0.0,0.0,0.0,0.0,0.0,0.0,0.0,0.0,0.0,0.0,0.0,0.0,0.0,0.0,0.0,0.0,0.0,0.0,0.0,0.0,0.0,0.0,0.0,0.0,0.0,0.0,0.0,0.0,0.0,0.0,0.0,0.0,0.0,0.0,0.0,0.0,0.0,0.0,0.0,-3.0102,-3.0222,0.0,0.0,0.0,-2.8306,-2.7855,0.0,0.0,0.0,0.0,0.0,0.0,0.0,0.0,0.0,0.0,0.0,0.0,0.0,0.0,0.0,0.0,0.0,0.0,0.0,0.0,0.0,0.0,0.0,0.0,0.0,0.0,0.0,0.0,0.0,0.0,0.0,0.0,0.0,0.0,0.0,0.0,0.0,0.0,0.0,0.0,0.0,0.0,0.0,0.0,0.0,0.0,0.0,0.0,0.0,0.0,0.0,0.0,0.0,0.0,0.0,0.0,0.0,-2.7722,-2.9591,-3.1116,-3.2283,-3.2565,-3.2514,-3.2003,-3.0433,0.0,0.0,0.0,0.0,0.0,0.0,0.0,0.0,0.0,0.0,0.0,0.0,0.0,0.0,0.0,0.0,0.0,0.0,0.0,0.0,0.0,0.0,0.0,0.0,0.0,0.0,0.0,-1.9094,0.0,0.0,0.0,0.0,0.0,0.0,0.0,0.0,0.0,0.0,0.0,0.0,0.0,0.0,-2.969,-3.08,-3.0867,-3.0637,0.0,0.0,-2.905,-2.8456,-2.8131,-2.746,0.0,0.0,0.0,0.0,0.0,0.0,0.0,0.0,0.0,0.0,0.0,0.0,0.0,0.0,0.0,0.0,0.0,0.0,0.0,0.0,0.0,0.0,0.0,0.0,0.0,0.0,0.0,0.0,0.0,0.0,0.0,0.0,0.0,0.0,0.0,0.0,0.0,0.0,0.0,0.0,0.0,0.0,0.0,0.0,0.0,0.0,0.0,0.0,0.0,0.0,0.0,0.0,0.0,0.0,0.0,-2.6843,-2.8974,-3.0673,-3.1784,-3.1875,-3.1798,-3.1552,-2.9956,-2.8344,0.0,0.0,0.0,0.0,0.0,0.0,0.0,0.0,0.0,0.0,0.0,0.0,0.0,0.0,0.0,0.0,0.0,0.0,0.0,0.0,0.0,0.0,0.0,0.0,0.0,0.0,0.0,0.0,0.0,0.0,0.0,0.0,0.0,0.0,0.0,0.0,0.0,0.0,0.0,0.0,0.0,-2.9545,-3.0147,-3.0758,-3.0912,0.0,0.0,-2.9028,-2.8672,-2.8048,-2.7196,-2.5854,0.0,0.0,0.0,0.0,0.0,0.0,0.0,0.0,0.0,0.0,0.0,0.0,0.0,0.0,0.0,0.0,0.0,0.0,0.0,0.0,0.0,0.0,0.0,0.0,0.0,0.0,0.0,0.0,0.0,0.0,0.0,0.0,0.0,0.0,0.0,0.0,0.0,0.0,0.0,0.0,0.0,0.0,0.0,0.0,0.0,0.0,0.0,0.0,0.0,0.0,0.0,0.0,0.0,-2.6099,-2.67,-2.8608,-3.0163,-3.1248,-3.1174,-3.1085,-3.1008,-2.9789,-2.8367,0.0,0.0,0.0,0.0,0.0,0.0,0.0,0.0,0.0,0.0,0.0,0.0,0.0,0.0,0.0,0.0,0.0,0.0,0.0,0.0,0.0,0.0,0.0,0.0,0.0,0.0,0.0,0.0,-2.0401,-2.0371,-2.0322,0.0,0.0,0.0,0.0,0.0,0.0,0.0,0.0,0.0,0.0,-2.869,-2.9611,-3.0525,0.0,0.0,-3.0242,-2.9735,-2.9081,-2.8075,-2.6987,-2.5774,-2.4883,0.0,0.0,0.0,0.0,0.0,0.0,0.0,0.0,0.0,0.0,0.0,0.0,0.0,0.0,0.0,0.0,0.0,0.0,0.0,0.0,0.0,0.0,0.0,0.0,0.0,0.0,0.0,0.0,0.0,0.0,0.0,0.0,0.0,0.0,0.0,0.0,0.0,0.0,0.0,0.0,0.0,0.0,0.0,0.0,0.0,0.0,0.0,0.0,0.0,0.0,0.0,0.0,-2.6099,-2.717,-2.8582,-2.9836,-3.0885,-3.0773,-3.0609,-3.0533,-2.9655,-2.8515,0.0,0.0,0.0,0.0,0.0,0.0,0.0,0.0,0.0,0.0,0.0,0.0,0.0,0.0,0.0,0.0,0.0,0.0,0.0,0.0,0.0,0.0,0.0,0.0,0.0,0.0,0.0,0.0,-2.0745,-2.0498,-2.041,0.0,0.0,0.0,0.0,0.0,0.0,0.0,0.0,0.0,0.0,-2.797,-2.8995,-2.9939,-3.0478,-3.0444,-3.0164,-2.9694,-2.8973,-2.7956,-2.6904,-2.572,0.0,0.0,0.0,0.0,0.0,0.0,0.0,0.0,0.0,0.0,0.0,0.0,0.0,0.0,0.0,0.0,0.0,0.0,0.0,0.0,0.0,0.0,0.0,0.0,0.0,0.0,0.0,0.0,0.0,0.0,-2.6766,0.0,0.0,0.0,0.0,0.0,0.0,0.0,0.0,0.0,0.0,0.0,0.0,0.0,0.0,0.0,0.0,0.0,0.0,0.0,0.0,0.0,0.0,-2.6112,-2.8294,-2.8948,-2.9777,-3.0646,-3.0698,-3.047,-3.0152,-2.953,-2.8606,-2.7326,0.0,0.0,0.0,0.0,0.0,0.0,0.0,0.0,0.0,0.0,0.0,0.0,0.0,0.0,0.0,0.0,0.0,0.0,0.0,0.0,0.0,0.0,0.0,0.0,0.0,0.0,-2.0322,-2.0246,-2.0233,0.0,0.0,0.0,0.0,0.0,0.0,0.0,0.0,0.0,0.0,-2.6505,-2.752,-2.8308,-2.887,-2.9428,-2.9743,-2.9289,-2.875,-2.821,-2.7645,-2.6834,0.0,0.0,0.0,0.0,0.0,0.0,0.0,0.0,0.0,0.0,0.0,0.0,0.0,0.0,0.0,0.0,0.0,0.0,0.0,0.0,0.0,0.0,0.0,0.0,0.0,0.0,0.0,-2.9365,-2.9094,0.0,0.0,0.0,0.0,0.0,0.0,0.0,0.0,0.0,0.0,0.0,-2.7645,-2.7734,0.0,0.0,0.0,0.0,0.0,0.0,0.0,0.0,0.0,0.0,0.0,0.0,-2.6596,-2.7595,-2.8918,-2.9908,-3.0508,-3.0368,-3.0241,-3.0075,-2.9744,-2.851,-2.6226,0.0,0.0,0.0,0.0,0.0,0.0,0.0,0.0,0.0,0.0,0.0,0.0,0.0,0.0,0.0,0.0,0.0,0.0,0.0,0.0,0.0,0.0,0.0,0.0,0.0,-2.05,0.0,0.0,0.0,0.0,0.0,0.0,0.0,0.0,0.0,0.0,0.0,-2.4119,-2.5601,-2.6311,-2.6924,-2.7612,-2.8107,-2.8522,0.0,0.0,0.0,0.0,0.0,0.0,0.0,0.0,0.0,0.0,0.0,0.0,0.0,0.0,-2.1823,-2.2212,-2.2278,-2.2212,-2.1989,0.0,0.0,0.0,0.0,0.0,0.0,0.0,0.0,0.0,0.0,0.0,0.0,0.0,0.0,-3.0268,0.0,-2.8554,0.0,0.0,0.0,0.0,0.0,0.0,0.0,0.0,-2.9497,-2.9346,-2.814,-2.8542,-2.8329,0.0,-2.7525,-2.7064,0.0,0.0,0.0,0.0,0.0,0.0,0.0,0.0,-2.7025,-2.7851,-2.9073,-2.9879,-3.0254,-3.0152,-3.0088,-3.0011,-2.9668,-2.8448,-2.6251,-2.477,-2.3389,0.0,0.0,0.0,0.0,0.0,0.0,0.0,0.0,0.0,0.0,0.0,0.0,0.0,0.0,0.0,0.0,0.0,0.0,0.0,0.0,0.0,0.0,0.0,-1.9836,0.0,0.0,0.0,0.0,0.0,0.0,0.0,0.0,0.0,-2.339,-2.3837,-2.4596,-2.5671,-2.6168,-2.6659,-2.6942,0.0,0.0,0.0,0.0,0.0,0.0,0.0,-2.5787,-2.5144,-2.4587,-2.4006,-2.3387,-2.2677,-2.2253,-2.2253,0.0,0.0,-2.1962,-2.1965,-2.1885,-2.1677,-2.1538,-2.1468,-2.1247,-2.1177,-2.1118,0.0,0.0,0.0,0.0,0.0,0.0,0.0,0.0,-3.1567,-3.1135,0.0,-2.9235,0.0,0.0,0.0,0.0,0.0,-2.8567,0.0,0.0,-2.9927,-2.9059,-2.7805,-2.8704,-2.8972,-2.8631,-2.8507,-2.8412,-2.8268,-2.6164,0.0,0.0,0.0,0.0,0.0,0.0,-2.7214,-2.8853,-2.9314,-2.9655,-3.0062,-3.0088,-2.9998,-2.9792,-2.9239,-2.8423,-2.7331,-2.6189,-2.4845,-2.3203,-2.2636,0.0,0.0,0.0,0.0,0.0,0.0,0.0,0.0,0.0,0.0,0.0,0.0,0.0,0.0,0.0,0.0,0.0,0.0,0.0,0.0,-1.9393,0.0,0.0,0.0,0.0,0.0,0.0,0.0,0.0,0.0,0.0,-2.3155,-2.453,-2.5598,-2.5624,0.0,0.0,0.0,0.0,-2.7172,-2.6946,-2.6946,-2.6887,-2.6672,-2.6017,-2.5453,-2.5004,0.0,0.0,-2.3655,-2.3065,-2.267,-2.2692,-2.2274,-2.1966,-2.1588,-2.1388,-2.1154,-2.1013,-2.082,-2.0636,-2.0483,-2.0422,-2.0329,-3.4353,0.0,0.0,0.0,0.0,-3.1061,-3.1459,-3.1597,-3.1539,-3.142,-3.1195,-3.0328,0.0,0.0,0.0,0.0,0.0,0.0,-3.0225,-2.9554,-3.0216,-3.0074,-2.9214,-2.9754,-2.99,-2.9627,-2.9627,-2.9418,-2.8974,-2.7928,-2.6621,-2.5105,0.0,0.0,0.0,0.0,-2.7146,-2.8494,-2.902,-2.9504,-2.9856,-2.9869,-2.9869,-2.9779,-2.9239,-2.8599,-2.7896,-2.6804,-2.5624,-2.4393,-2.3427,0.0,0.0,0.0,0.0,0.0,0.0,0.0,0.0,0.0,0.0,0.0,0.0,0.0,0.0,0.0,0.0,0.0,0.0,0.0,-1.9625,-1.9625,-1.9739,0.0,0.0,0.0,0.0,0.0,0.0,0.0,0.0,0.0,-2.4062,-2.4779,-2.537,0.0,0.0,-2.605,-2.605,-2.6186,-2.6202,-2.6037,-2.5966,0.0,0.0,-2.5183,-2.4802,-2.4311,-2.3728,-2.3213,-2.3001,-2.2478,-2.2025,-2.2035,-2.1731,-2.141,-2.1336,-2.1339,-2.1329,-2.1189,-2.1049,-2.1049,-2.0974,-2.0888,-2.0888,-3.5705,-3.344,-3.2485,-3.1823,-3.1453,-3.2148,-3.2362,-3.2317,-3.2317,-3.2168,-3.1825,-3.121,-3.0552,-2.9953,-2.9899,0.0,0.0,0.0,-3.0991,-3.0228,-3.0773,-3.0647,-3.0069,-3.0553,-3.0684,-3.0464,-3.0168,-3.0072,-2.9941,-2.906,-2.8092,-2.7064,0.0,0.0,-2.5845,-2.6732,-2.7608,-2.8401,-2.91,-2.958,-2.9779,-2.9779,-2.9779,-2.9779,-2.9453,-2.89,-2.8134,-2.7482,-2.6402,-2.4883,-2.3966,-2.3125,0.0,0.0,0.0,0.0,0.0,0.0,0.0,0.0,0.0,0.0,0.0,-1.9714,-1.9824,0.0,0.0,0.0,-1.906,-1.9242,-1.9639,-1.98,0.0,0.0,0.0,0.0,0.0,0.0,0.0,-2.2562,-2.3261,-2.3762,-2.4013,-2.4446,-2.5059,-2.5885,-2.6116,-2.625,-2.625,0.0,-2.6106,-2.5877,-2.5625,-2.5337,-2.4879,-2.4499,-2.407,-2.3434,-2.2777,-2.2327,-2.2252,-2.1873,-2.1578,-2.1512,-2.1282,-2.1061,-2.1061,-2.1128,-2.1118,-2.1051,-2.0974,-2.0964,-2.0964,-2.0964,-2.0964,-3.7065,-3.5549,-3.439,-3.3743,-3.3653,-3.3591,-3.3574,-3.3574,-3.3574,-3.3245,-3.2617,-3.1973,-3.133,-3.0746,-3.0592,0.0,-3.1737,-3.1252,-3.1312,-3.1736,-3.1428,-3.0972,-3.0507,-3.1022,-3.1198,-3.096,-3.0451,-3.0438,-3.083,-2.9645,-2.9054,-2.8977,-2.7941,-2.7059,-2.6607,-2.7717,-2.8388,-2.8429,-2.9265,-2.9741,-2.9779,-2.9754,-2.9729,-2.9716,-2.9679,-2.9164,-2.8172,-2.8009,-2.703,-2.5008,-2.4268,-2.3427,-2.2359,0.0,0.0,0.0,0.0,0.0,0.0,0.0,0.0,0.0,0.0,0.0,0.0,0.0,0.0,0.0,-1.9069,0.0,-1.9618,-1.9889,0.0,0.0,0.0,-2.0885,-2.0885,-2.1741,-2.2185,-2.2024,0.0,0.0,-2.3315,-2.375,-2.4533,-2.5706,-2.6256,-2.6617,-2.6542,-2.6356,-2.6299,-2.5925,-2.5512,-2.4975,-2.4442,-2.3738,-2.3014,-2.2275,-2.192,-2.1566,-2.1404,-2.1187,-2.1084,-2.1044,-2.0874,-2.0767,-2.0787,-2.0564,-2.0546,-2.0681,-2.0633,-2.0585,-2.0556,-2.0507,-2.0468,-3.7578,-3.6851,-3.5629,-3.449,-3.3606,-3.4038,-3.4247,-3.4233,-3.4233,-3.4158,-3.3963,-3.332,-3.2946,-3.2781,-3.2586,-3.2458,-3.2329,-3.2356,-3.2061,-3.14,-3.1591,-3.1443,-3.0865,-3.0996,-3.1061,-3.0973,-3.0843,-3.0546,-3.0099,-2.9753,-2.9318,-2.8664,-2.8278,-2.7799,-2.7265,-2.7563,-2.8113,-2.8812,-2.9001,-2.9352,-2.9767,-2.9365,-2.9126,-2.9126,-2.8725,-2.8373,-2.8097,-2.7293,-2.6402,-2.5435,-2.4092,-2.3025,-2.2347,-2.1669,0.0,0.0,0.0,0.0,0.0,0.0,0.0,0.0,0.0,-2.0286,-2.0499,0.0,-1.9657,0.0,-1.9226,-1.9321,-1.9767,-1.9884,0.0,0.0,-2.0665,-2.0733,-2.0756,-2.0948,-2.1232,-2.1529,-2.1777,-2.2083,-2.2409,-2.2812,-2.3295,-2.3926,-2.4464,-2.4765,-2.463,-2.4889,-2.4892,-2.4576,-2.4399,-2.4047,-2.324,-2.2091,-2.1155,-2.0752,-2.0534,-2.0315,-2.0325,-2.0106,-1.9969,-1.9959,-1.9821,-1.9674,-1.9693,-1.96,-1.96,-1.9693,-1.9844,-2.0068,-2.0068,-1.9834,-1.9693,-3.776,-3.73,-3.6043,-3.5085,-3.4412,-3.4786,-3.4936,-3.4936,-3.4936,-3.4771,-3.4427,-3.3769,-3.3499,-3.3514,-3.3535,-3.3338,-3.2948,-3.3025,-3.2556,-3.1653,-3.1729,-3.1522,-3.0986,-3.0986,-3.0986,-3.0986,-3.0911,-3.0592,-3.0219,-3.0044,-2.974,-2.9272,-2.9074,-2.8861,-2.8533,-2.828,-2.8384,-2.8925,-2.9176,-2.934,-2.939,-2.9101,-2.8812,-2.8574,-2.8273,-2.7871,-2.7394,-2.6848,-2.585,-2.4544,-2.3401,-2.2523,-2.197,-2.1179,-2.0727,0.0,0.0,0.0,0.0,0.0,0.0,0.0,0.0,0.0,0.0,0.0,-1.9992,-1.9817,-1.9643,-1.9665,-2.0084,-1.9995,-2.009,-2.0302,-2.0388,-2.0453,-2.0453,-2.0653,-2.0831,-2.1018,-2.1228,-2.1459,-2.1618,-2.1811,-2.1919,-2.219,-2.2368,-2.2889,-2.3657,-2.3949,-2.3809,-2.3438,-2.2994,-2.2456,-2.1692,-2.0845,-2.0145,-1.9991,-1.9847,-1.9713,-1.964,-1.9578,-1.9495,-1.9433,-1.936,-1.9277,-1.9277,-1.9277,-1.9277,-1.9287,-1.9316,-1.9414,-1.958,-1.9453,-1.937,-3.7699,-3.718,-3.5998,-3.5489,-3.5489,-3.5489,-3.5489,-3.5489,-3.5489,-3.516,-3.4577,-3.4008,-3.3754,-3.3722,-3.3957,-3.3885,-3.3521,-3.3293,-3.2846,-3.2128,-3.1743,-3.1373,-3.0986,-3.0986,-3.0986,-3.0986,-3.0773,-3.0685,-3.0609,-3.0318,-3.0088,-3.0075,-2.9856,-2.9779,-2.9767,-2.9289,-2.9038,-2.9038,-2.9541,-2.9515,-2.8938,-2.8863,-2.8561,-2.8034,-2.7858,-2.7306,-2.637,-2.6113,-2.5109,-2.315,-2.2422,-2.1882,-2.1393,-2.0451,-2.0007,0.0,-1.9805,0.0,0.0,0.0,0.0,0.0,0.0,0.0,0.0,-2.0313,-2.0303,-2.014,-2.0172,-2.0115,-2.0201,-2.0105,-1.9977,-1.9868,-1.9977,-2.0042,-2.0064,-2.0434,-2.0695,-2.0493,-2.0849,-2.1016,-2.0775,-2.0677,-2.0628,-2.0652,-2.0542,-2.1062,-2.2639,-2.2906,-2.2711,-2.2349,-2.1607,-2.0907,-2.0247,-1.9798,-1.9454,-1.9352,-1.9142,-1.917,-1.8929,-1.8887,-1.8916,-1.8906,-1.8838,-1.8877,-1.8945,-1.8906,-1.8916,-1.8828,-1.8564,-1.8545,-1.9043,-1.9111,-1.9121,-3.7525,-3.6782,-3.5884,-3.5489,-3.5489,-3.5489,-3.5489,-3.5489,-3.5489,-3.5429,-3.531,-3.5175,-3.5036,-3.4857,-3.4662,-3.4359,-3.3941,-3.3353,-3.2704,-3.2055,-3.173,-3.1373,-3.0986,-3.0986,-3.0986,-3.0986,-3.0773,-3.0622,-3.0444,-3.0228,-3.0011,-2.9869,-2.9792,-2.9779,-2.9779,0.0,0.0,0.0,-2.9729,-2.9503,-2.8938,-2.8486,-2.7996,-2.7431,-2.654,0.0,-2.5146,-2.4255,-2.3364,-2.2498,-2.1518,0.0,0.0,0.0,0.0,0.0,0.0,0.0,0.0,0.0,0.0,0.0,-2.025,-2.0996,-2.0941,-2.1005,-2.082,-2.0471,-2.0315,-2.013,-1.9775,-1.9735,-1.9671,-1.9671,-1.9671,-1.966,-1.9736,-1.9833,-1.9799,-1.9809,-1.9895,-1.9881,-1.9712,-1.9536,-1.9489,-1.9671,-1.9544,-1.9646,-2.0022,-2.0834,-2.1236,-2.0995,-2.0378,-1.993,-1.9324,-1.8584,-1.8071,-1.7839,-1.7488,-1.7275,-1.7314,-1.7285,-1.7246,-1.7275,-1.7217,-1.7266,-1.7266,-1.7207,-1.7324,-1.7246,-1.7168,-1.7356,-1.8506,-1.8486,-1.8252,-3.7147,0.0,-3.5839,-3.5489,0.0,-3.5489,-3.5489,-3.5489,-3.5489,-3.5489,-3.5489,-3.5489,-3.5374,-3.5162,-3.4831,-3.4414,-3.3908,-3.3185,-3.2561,-3.2023,-3.1643,-3.1286,-3.0986,-3.0986,-3.0986,-3.0986,-3.0685,-3.052,-3.0355,-3.0088,-2.9869,-2.9779,-2.9779,-2.9779,-2.9779,-2.9779,-2.9779,-2.9779,-2.9779,-2.9377,-2.8561,-2.8247,-2.7582,-2.649,0.0,0.0,0.0,0.0,0.0,0.0,0.0,0.0,0.0,0.0,0.0,-1.9958,-2.0021,-1.9707,-1.9044,-1.9349,-1.9465,-1.9192,-2.0042,-2.0668,-2.0793,-2.0668,-2.0493,-2.026,-2.0102,-1.9939,-1.9708,-1.9488,-1.933,-1.9341,-1.9341,-1.9341,-1.933,-1.9341,-1.9341,-1.9208,-1.9208,-1.9142,-1.8952,-1.8808,-1.8654,-1.8539,-1.8424,-1.824,-1.8121,-1.9113,-1.9746,-1.9163,-1.8635,-1.821,-1.7925,-1.7514,-1.7179,-1.7031,-1.6875,-1.6685,-1.6665,-1.6665,-1.6665,-1.6665,-1.6665,-1.6665,-1.6665,-1.6665,-1.6665,-1.6665,-1.6665,-1.6767,-1.7455,-1.7628,-1.7705,-3.6834,-3.6501,-3.5794,-3.5489,-3.5489,-3.5489,-3.5489,-3.5489,0.0,0.0,0.0,-3.5439,-3.5294,-3.5096,-3.475,-3.4264,-3.3701,-3.3002,-3.2359,-3.189,-3.1508,-3.1198,-3.0986,-3.0986,-3.0934,-3.0755,-3.0454,-3.0163,-3.0061,-2.972,-2.949,-2.9503,-2.949,-2.9553,-2.9641,-2.9741,-2.9779,-2.9779,-2.9779,-2.9252,-2.816,-2.8109,-2.7356,-2.5787,-2.5561,-2.4996,-2.4042,-2.3803,-2.3012,-2.1581,-2.1481,-2.1169,-2.061,-2.0464,-2.044,-2.0469,-2.0274,-1.9995,-1.9488,-1.9566,-1.9536,-1.9521,-1.973,-2.006,-2.0518,-2.0286,-2.0059,-1.9986,-1.9896,-1.9796,-1.9723,-1.937,-1.9131,-1.9131,-1.9131,-1.9131,-1.9131,-1.9065,-1.8998,-1.8808,-1.8808,-1.8674,-1.8472,-1.8414,-1.8101,-1.7668,-1.7573,-1.7227,-1.6973,-1.7846,-1.8271,-1.7546,-1.7233,-1.6807,-1.6738,-1.666,-1.6621,-1.6611,-1.6533,-1.6494,-1.6441,-1.6504,-1.6494,-1.6416,-1.6494,-1.6465,-1.6475,-1.6373,-1.6441,-1.6432,-1.6307,-1.6181,-1.622,-1.659,-1.6944,-3.6641,-3.6061,-3.5664,-3.5489,-3.5489,-3.5489,-3.5489,-3.5489,-3.5489,-3.5489,-3.5504,-3.5294,-3.5082,-3.4765,-3.4346,-3.3922,-3.3312,-3.2717,-3.2228,0.0,-3.1495,-3.1198,-3.0986,-3.0986,-3.0637,-2.996,-2.9725,-2.9308,-2.874,-2.8495,-2.8348,-2.836,-2.8335,-2.8599,-2.9051,-2.9541,-2.9779,-2.9779,-2.9779,-2.9239,-2.8147,-2.8109,-2.7557,-2.6377,-2.5423,-2.4644,-2.4017,-2.31,-2.2221,-2.1531,-2.1369,-2.1207,-2.1089,-2.0738,-2.0445,-2.032,-1.9936,-1.9477,-1.9081,-1.9269,-1.9587,-1.9885,-1.9458,-1.9625,-2.0597,-2.0479,-2.0172,-1.9879,-1.9806,-1.9661,-1.923,-1.9183,-1.9131,-1.9131,-1.9131,-1.9131,-1.9065,-1.8942,-1.8798,-1.8741,-1.8607,-1.8482,-1.8337,-1.8279,-1.8034,-1.7546,-1.7282,-1.7168,-1.6797,-1.6865,-1.6953,-1.6855,-1.6714,-1.6665,-1.6611,-1.6377,-1.6191,-1.6152,-1.5869,-1.5693,-1.5653,-1.5653,-1.5653,-1.5625,-1.5644,-1.5615,-1.5595,-1.5487,-1.5456,-1.5494,-1.5305,-1.5027,-1.5046,-1.5293,-1.5638,-3.6246,-3.5988,-3.5634,-3.5489,-3.5489,-3.5489,-3.5489,-3.5489,-3.5489,-3.5489,-3.5489,-3.5294,-3.5082,-3.4735,-3.4332,-3.3785,-3.3297,-3.2561,-3.2069,-3.1743,-3.136,-3.0891,-3.0542,-3.0516,-3.0142,-2.9378,-2.9134,-2.8848,-2.8388,-2.817,-2.8109,-2.8109,-2.8109,-2.8373,-2.8913,-2.9189,-2.9478,-2.9779,-2.9779,-2.939,-2.8574,-2.826,-2.7582,-2.6559,-2.5661,-2.4996,-2.4456,-2.3665,-2.2902,-2.2293,-2.1923,-2.1589,-2.1287,-2.1066,-2.0902,-2.0789,-2.0592,-2.0222,-1.9588,-1.9426,-1.9401,-1.9479,-1.9266,-1.9308,-1.9792,-1.9754,-1.9603,-1.9417,-1.9453,-1.937,-1.9085,-1.9131,-1.9131,-1.9131,-1.8998,-1.8942,-1.8942,-1.8751,-1.8617,-1.8539,-1.8472,-1.8347,-1.8144,-1.8144,-1.7868,-1.7148,-1.668,-1.625,-1.6064,-1.6025,-1.6113,-1.6289,-1.6182,-1.6025,-1.6025,-1.5869,-1.5723,-1.5713,-1.5547,-1.5371,-1.5313,-1.5323,-1.5254,-1.5196,-1.5196,-1.5196,-1.5196,-1.501,-1.4961,-1.4902,-1.4666,-1.4478,-1.4455,-1.4463,-1.4841,-3.5988,-3.5988,-3.5619,-3.5489,-3.5489,-3.5489,-3.5489,-3.5489,-3.5489,-3.5489,-3.5489,-3.5294,-3.5067,-3.4802,-3.4332,-3.377,-3.3199,-3.2489,-3.1936,-3.1582,-3.1079,-3.0568,-3.015,-3.0019,-2.9483,-2.8834,-2.8569,-2.8375,-2.8033,-2.7792,-2.7733,-2.7745,-2.7858,-2.8134,-2.8549,-2.8687,-2.9026,-2.9553,-2.9603,-2.9377,-2.8938,-2.8386,-2.7632,-2.6691,-2.5963,-2.5398,-2.4996,-2.4469,-2.3917,-2.3294,-2.2699,-2.2163,-2.1728,-2.1427,-2.124,-2.1175,-2.1031,-2.0635,-1.9977,-1.9528,-1.9208,-1.9131,-1.9131,-1.9131,-1.9131,-1.9131,-1.9131,-1.9131,-1.9152,-1.9142,-1.9131,-1.9131,-1.9065,-1.9065,-1.8875,-1.8808,-1.8741,-1.8539,-1.8405,-1.8337,-1.8269,-1.8144,-1.8076,-1.8008,-1.7676,-1.6855,-1.5977,-1.5449,-1.542,-1.542,-1.5576,-1.5732,-1.5625,-1.5478,-1.542,-1.5439,-1.5381,-1.5362,-1.5371,-1.5313,-1.5205,-1.5156,-1.5088,-1.497,-1.4902,-1.4902,-1.4843,-1.4725,-1.4606,-1.4597,-1.4291,-1.401,-1.389,-1.3847,-1.4126,-3.5988,-3.5925,-3.5619,-3.5489,-3.5489,-3.5489,-3.5489,-3.5489,-3.5489,-3.5489,-3.5504,-3.5294,-3.5016,-3.4698,-3.4278,-3.3701,-3.3058,-3.2417,-3.1909,-3.1516,-3.0598,-3.0176,-2.996,-2.9588,-2.8911,-2.8125,-2.8004,-2.7551,-2.6785,-2.6735,-2.664,-2.6735,-2.7105,-2.7394,-2.7507,-2.7946,-2.8448,-2.8988,-2.9013,-2.8976,-2.89,-2.8386,-2.7821,-2.7218,-2.6163,-2.5573,-2.5523,-2.5021,-2.4591,-2.4298,-2.3524,-2.3001,-2.2687,-2.1788,-2.1239,-2.1158,-2.056,-1.9977,-1.9473,-1.9198,-1.9142,-1.9131,-1.9131,-1.9131,-1.9131,-1.9131,-1.9131,-1.9131,-1.9131,-1.9131,-1.9131,-1.9065,-1.8998,-1.8875,-1.8808,-1.8741,-1.8549,-1.8405,-1.8347,-1.8347,-1.8144,-1.8008,-1.8008,-1.7949,-1.7617,-1.6836,-1.5967,-1.542,-1.542,-1.542,-1.542,-1.5488,-1.542,-1.542,-1.542,-1.542,-1.5362,-1.5264,-1.5205,-1.5147,-1.5029,-1.4843,-1.4715,-1.4656,-1.4597,-1.4538,-1.4478,-1.4359,-1.424,-1.4121,-1.3872,-1.345,-1.3224,-1.3111,-1.3439,-3.5988,-3.5988,-3.5619,-3.5489,-3.5489,-3.5489,-3.5489,-3.5489,-3.5489,-3.5489,-3.5504,-3.5279,-3.5082,-3.4735,-3.421,-3.3646,-3.3101,-3.2118,-3.1397,-3.1023,-3.0105,-2.9444,-2.9091,-2.8882,-2.8244,-2.7396,-2.7357,-2.7036,-2.6559,-2.6521,-2.6521,-2.6533,-2.6691,-2.6954,-2.7268,-2.7507,-2.7896,-2.8436,-2.8775,-2.8925,-2.89,-2.8725,-2.8335,-2.7758,-2.7005,-2.6427,-2.6088,-2.5453,-2.4806,-2.43,-2.3794,-2.2994,-2.1963,-2.1753,-2.1274,-2.0604,-1.9987,-1.9539,-1.9274,-1.9208,-1.9131,-1.9131,-1.9131,-1.9131,-1.9131,-1.9131,-1.9131,-1.9131,-1.9131,-1.9131,-1.9075,-1.9008,-1.8875,-1.8808,-1.8607,-1.8472,-1.8414,-1.8212,-1.8144,-1.8134,-1.8086,-1.8008,-1.792,-1.7559,-1.7139,-1.667,-1.5967,-1.5439,-1.542,-1.542,-1.542,-1.542,-1.542,-1.542,-1.541,-1.5313,-1.5264,-1.5147,-1.502,-1.4843,-1.4715,-1.4547,-1.4369,-1.43,-1.424,-1.4181,-1.407,-1.3941,-1.3761,-1.364,-1.3398,-1.2972,-1.2736,-1.2736,-1.285,-3.5988,-3.5988,-3.5634,-3.5489,-3.5489,-3.5489,-3.5489,-3.5489,-3.5489,-3.5489,-3.5489,-3.5228,-3.4898,-3.4552,-3.3951,-3.3474,-3.2863,-3.1625,-3.0875,-3.0383,-2.95,-2.8804,-2.8399,-2.8203,-2.7738,-2.7075,-2.7037,-2.6807,-2.6521,-2.6521,-2.6521,-2.6521,-2.6521,-2.6653,-2.7017,-2.7055,-2.7331,-2.7858,-2.8285,-2.8612,-2.8863,-2.8925,-2.8737,-2.831,-2.7645,-2.7092,-2.6691,-2.5946,-2.5204,-2.453,-2.4104,-2.3148,-2.1728,-2.167,-2.1151,-2.0042,-1.9539,-1.9285,-1.9274,-1.9142,-1.9131,-1.9131,-1.9131,-1.9131,-1.9065,-1.9065,-1.8998,-1.8998,-1.9008,-1.8942,-1.9008,-1.8808,-1.8741,-1.8674,-1.8405,-1.8269,-1.8212,-1.8076,-1.8008,-1.8008,-1.8008,-1.8008,-1.7891,-1.7324,-1.6694,-1.6587,-1.5986,-1.542,-1.542,-1.541,-1.5352,-1.5362,-1.5362,-1.5362,-1.5303,-1.5254,-1.5156,-1.497,-1.4715,-1.4478,-1.4359,-1.413,-1.395,-1.3821,-1.383,-1.3709,-1.3588,-1.3398,-1.3216,-1.3033,-1.285,-1.2613,-1.2428,-1.2428,-1.2367,-3.5988,-3.5988,-3.5619,-3.5489,-3.5489,-3.5489,-3.5489,-3.5489,-3.5489,-3.5504,-3.5424,-3.5052,-3.4515,-3.3776,-3.3339,-3.2805,-3.204,-3.0939,-3.0212,-2.9797,-2.8894,-2.8399,-2.8347,-2.7837,-2.7374,-2.7024,-2.7024,-2.6807,-2.6521,-2.6521,-2.6521,-2.6521,-2.6521,-2.6546,-2.6596,-2.6553,-2.6848,-2.7268,-2.7431,-2.7883,-2.8775,-2.89,-2.8913,-2.8762,-2.7858,-2.7293,-2.7155,-2.6507,-2.5906,-2.5508,-2.4689,-2.3765,-2.2684,-2.1677,-2.0564,-1.9568,-1.9362,-1.9208,-1.9131,-1.9131,-1.9131,-1.9131,-1.9131,-1.9065,-1.9065,-1.8931,-1.8875,-1.8808,-1.8684,-1.8607,-1.8741,-1.8607,-1.8472,-1.8405,-1.8337,-1.8202,-1.8076,-1.8008,-1.8008,-1.8008,-1.8008,-1.8008,-1.7978,-1.7266,-1.6846,-1.6539,-1.5977,-1.543,-1.541,-1.541,-1.5362,-1.5264,-1.5205,-1.5215,-1.5215,-1.5029,-1.4843,-1.4597,-1.4419,-1.413,-1.389,-1.364,-1.3519,-1.3338,-1.3224,-1.3103,-1.3042,-1.2858,-1.2666,-1.2544,-1.2421,-1.2243,-1.212,-1.2127,-1.212,-3.6022,-3.5767,-3.5619,-3.5489,-3.5489,-3.5489,-3.5489,-3.5489,-3.5489,-3.5439,-3.5219,-3.4653,-3.3988,-3.3332,-3.2198,-3.1599,-3.1414,-3.0336,-2.9659,-2.9198,-2.8315,-2.7837,-2.7811,-2.7615,-2.7335,-2.7024,-2.7024,-2.6807,-2.6521,-2.6521,-2.6521,-2.6521,-2.6521,-2.6521,-2.6521,-2.6521,-2.6647,-2.6766,-2.708,-2.7657,-2.836,-2.8737,-2.8925,-2.8888,-2.821,-2.756,-2.7126,-2.6251,-2.546,-2.4773,-2.439,-2.3605,-2.2181,-2.1043,-2.0243,-1.9792,-1.9375,-1.9131,-1.9131,-1.9131,-1.9131,-1.9131,-1.9131,-1.9075,-1.8942,-1.8875,-1.8741,-1.8607,-1.8472,-1.8405,-1.8405,-1.8405,-1.8347,-1.8269,-1.8202,-1.8066,-1.8008,-1.8008,-1.8008,-1.8008,-1.8008,-1.8008,-1.79,-1.751,-1.7061,-1.6738,-1.6201,-1.5762,-1.542,-1.5303,-1.5264,-1.5156,-1.502,-1.4834,-1.4725,-1.4725,-1.4597,-1.43,-1.4061,-1.3821,-1.358,-1.3216,-1.3042,-1.2981,-1.2805,-1.2674,-1.2613,-1.249,-1.2305,-1.212,-1.1996,-1.1996,-1.1809,-1.1872,-1.1809,-3.5943,-3.5688,-3.5539,-3.5489,-3.5489,-3.5489,-3.5489,-3.5489,-3.5489,-3.524,-3.4827,-3.4153,-3.3433,-3.2486,-3.1283,-3.0586,-3.0391,-2.9479,-2.8985,-2.8639,-2.784,-2.7469,-2.7469,-2.7469,-2.7323,-2.7024,-2.6875,-2.6739,-2.6533,-2.6521,-2.6521,-2.6521,-2.6521,-2.6521,-2.6521,-2.6521,-2.6521,-2.6609,-2.6829,-2.7281,-2.7821,-2.8197,-2.8424,-2.8474,-2.7975,-2.7454,-2.6912,-2.6027,-2.518,-2.4484,-2.4232,-2.3512,-2.1996,-2.0855,-2.0132,-1.9896,-1.9557,-1.9287,-1.9085,-1.9131,-1.9131,-1.9065,-1.8998,-1.8942,-1.8808,-1.8674,-1.8539,-1.8405,-1.8279,-1.8202,-1.8202,-1.8202,-1.8202,-1.8202,-1.8076,-1.8008,-1.8008,-1.8008,-1.8008,-1.8008,-1.8008,-1.8008,-1.7959,-1.7627,-1.7285,-1.6889,-1.6383,-1.5887,-1.5525,-1.5263,-1.5088,-1.497,-1.4775,-1.4469,-1.4231,-1.4112,-1.4121,-1.3881,-1.358,-1.3398,-1.3216,-1.2858,-1.2674,-1.256,-1.249,-1.2305,-1.2182,-1.2058,-1.1934,-1.1747,-1.1747,-1.1747,-1.1685,-1.1622,-1.1622,-3.5894,-3.5688,-3.5539,-3.5489,-3.5489,-3.5489,-3.5489,-3.5489,-3.5504,-3.5031,-3.4303,-3.3789,-3.278,-3.1458,-3.0743,-2.9909,-2.9086,-2.8617,-2.8343,-2.808,-2.7696,-2.7469,-2.7469,-2.7469,-2.7335,-2.7024,-2.6671,-2.6521,-2.6521,-2.6521,-2.6521,-2.6521,-2.6521,-2.6521,-2.6521,-2.6521,-2.6521,-2.6477,-2.6596,-2.6861,-2.7218,-2.7394,-2.7573,-2.7679,-2.7162,-2.6734,-2.66,-2.5719,-2.5004,-2.448,-2.4227,-2.3514,-2.2158,-2.1182,-2.0456,-2.0004,-1.9848,-1.9599,-1.9168,-1.9152,-1.9131,-1.9075,-1.8942,-1.8808,-1.8741,-1.8549,-1.8337,-1.8279,-1.8144,-1.8008,-1.8008,-1.8008,-1.8008,-1.8008,-1.8008,-1.8008,-1.8008,-1.8008,-1.8008,-1.8008,-1.8008,-1.8008,-1.793,-1.7705,-1.7356,-1.6992,-1.6383,-1.5794,-1.5571,-1.5185,-1.4849,-1.4588,-1.441,-1.4172,-1.3812,-1.3511,-1.3511,-1.3459,-1.3103,-1.2858,-1.2736,-1.2498,-1.2305,-1.2251,-1.2182,-1.1996,-1.1934,-1.1872,-1.1809,-1.1685,-1.1622,-1.1622,-1.1622,-1.1622,-1.1622,-3.6022,-3.5894,-3.5718,-3.5604,-3.5489,-3.5489,-3.5489,-3.5489,-3.5359,-3.4842,-3.4026,-3.322,-3.2182,-3.0991,-3.008,-2.9315,-2.8651,-2.8327,-2.8066,-2.7855,-2.759,-2.7469,-2.7469,-2.7469,-2.7323,-2.7024,-2.6671,-2.6521,-2.6521,-2.6521,-2.6521,-2.6521,-2.6521,-2.6521,-2.6521,-2.6521,-2.6521,-2.6521,-2.6521,-2.6728,-2.7231,-2.7126,-2.713,-2.7182,-2.6638,-2.6106,-2.5576,-2.5123,-2.4601,-2.386,-2.3643,-2.3147,-2.2115,-2.1366,-2.0918,-2.0648,-2.0069,-1.9727,-1.9619,-1.9308,-1.9131,-1.9075,-1.8942,-1.8741,-1.8607,-1.8414,-1.8212,-1.8144,-1.8008,-1.8008,-1.8008,-1.8008,-1.8008,-1.8008,-1.8008,-1.8008,-1.8008,-1.8008,-1.8008,-1.8008,-1.8008,-1.793,-1.7842,-1.761,-1.7398,-1.6968,-1.6496,-1.6056,-1.548,-1.5152,-1.4702,-1.4381,-1.4105,-1.3838,-1.345,-1.3147,-1.3033,-1.2972,-1.2674,-1.2498,-1.2375,-1.2182,-1.1996,-1.1934,-1.1872,-1.1809,-1.1685,-1.1685,-1.1622,-1.1622,-1.1622,-1.1622,-1.1622,-1.1622,-1.1622,-3.6148,-3.6037,-3.5816,-3.5638,-3.5539,-3.5504,-3.5489,-3.5379,-3.5026,-3.4327,-3.35,-3.2538,-3.1444,-3.0383,-2.9477,-2.8881,-2.8444,-2.8145,-2.7855,-2.7723,-2.759,-2.7469,-2.7469,-2.7335,-2.7201,-2.6863,-2.6589,-2.6521,-2.6521,-2.6521,-2.6521,-2.6521,-2.6521,-2.6521,-2.6521,-2.6521,-2.6521,-2.6521,-2.6521,-2.6697,-2.6904,-2.6826,-2.6615,-2.6461,-2.6045,-2.5421,-2.4754,-2.4478,-2.3959,-2.3213,-2.2794,-2.2359,-2.1828,-2.1553,-2.13,-2.1,-2.0462,-1.9944,-1.9758,-1.9391,-1.9131,-1.9075,-1.8808,-1.8607,-1.8472,-1.8337,-1.8144,-1.8008,-1.8008,-1.8008,-1.8008,-1.8008,-1.8008,-1.8008,-1.8008,-1.8008,-1.8008,-1.8008,-1.8008,-1.8008,-1.793,-1.7794,-1.7725,-1.7501,-1.7269,-1.6831,-1.6511,-1.6202,-1.557,-1.516,-1.4738,-1.4303,-1.4048,-1.3708,-1.3172,-1.285,-1.2552,-1.2428,-1.2243,-1.2182,-1.2058,-1.1934,-1.1747,-1.1747,-1.1685,-1.1685,-1.1622,-1.1622,-1.1622,-1.1622,-1.1622,-1.1622,-1.1622,-1.1622,-1.1622,-3.6196,-3.6133,-3.5879,-3.5752,-3.5688,-3.5539,-3.5444,-3.5295,-3.4594,-3.3687,-3.2727,-3.1797,-3.0725,-2.9666,-2.9085,-2.8675,-2.83,-2.7973,-2.7723,-2.759,-2.7469,-2.7469,-2.7456,-2.7214,-2.6943,-2.6726,-2.6602,-2.6521,-2.6521,-2.6521,-2.6521,-2.6521,-2.6521,-2.6521,-2.6521,-2.6521,-2.6521,-2.6521,-2.6521,-2.649,-2.6515,-2.6295,-2.6029,-2.5654,-2.523,-2.479,-2.4345,-2.3734,-2.3218,-2.2551,-2.1825,-2.1471,-2.1408,-2.1603,-2.1487,-2.1114,-2.0669,-2.0193,-1.9789,-1.9334,-1.9065,-1.9008,-1.8741,-1.8482,-1.8414,-1.8212,-1.8008,-1.8008,-1.8008,-1.8008,-1.8008,-1.8008,-1.8008,-1.8008,-1.793,-1.793,-1.7998,-1.794,-1.7872,-1.7872,-1.7794,-1.7647,-1.7461,-1.7245,-1.6941,-1.6591,-1.6228,-1.5886,-1.5539,-1.5116,-1.4772,-1.438,-1.3946,-1.3517,-1.3064,-1.2734,-1.2406,-1.212,-1.2003,-1.1949,-1.1872,-1.1747,-1.1622,-1.1622,-1.1622,-1.1622,-1.1622,-1.1622,-1.1622,-1.1622,-1.1622,-1.1622,-1.1622,-1.1622,-1.1622,-3.6352,-3.6196,-3.6022,-3.5831,-3.5688,-3.5539,-3.522,-3.4771,-3.4243,-3.3299,-3.2119,-3.1426,-3.0466,-2.9415,-2.8994,-2.856,-2.8183,-2.7921,-2.7723,-2.7536,-2.7469,-2.7469,-2.7323,-2.7079,-2.6875,-2.6726,-2.6602,-2.6521,-2.6521,-2.6521,-2.6521,-2.6521,-2.6521,-2.6521,-2.6521,-2.6521,-2.6521,-2.6521,-2.6521,-2.6408,-2.627,-2.5968,-2.5676,-2.5382,-2.4754,-2.4406,-2.4082,-2.3017,-2.2277,-2.1908,-2.1267,-2.0989,-2.1136,-2.1238,-2.1248,-2.1052,-2.0669,-2.0224,-1.9789,-1.9334,-1.9019,-1.8875,-1.8617,-1.8482,-1.8347,-1.8144,-1.8008,-1.8008,-1.8008,-1.8008,-1.8008,-1.8008,-1.793,-1.7784,-1.7784,-1.7784,-1.7784,-1.7666,-1.7608,-1.7598,-1.7442,-1.7245,-1.7107,-1.689,-1.6612,-1.6245,-1.5948,-1.5661,-1.5249,-1.4993,-1.4597,-1.414,-1.3688,-1.3308,-1.2971,-1.2621,-1.2292,-1.1924,-1.1817,-1.1784,-1.1707,-1.1622,-1.1622,-1.1622,-1.1622,-1.1622,-1.1622,-1.1622,-1.1622,-1.1622,-1.1622,-1.1622,-1.1622,-1.1622,-1.1622,-3.6429,-3.6352,-3.6163,-3.5958,-3.5831,-3.5653,-3.5149,-3.4375,-3.3765,-3.2864,-3.1675,-3.085,-3.0037,-2.9135,-2.8739,-2.8352,-2.8,-2.7789,-2.759,-2.7536,-2.7469,-2.7403,-2.7214,-2.7011,-2.6875,-2.6658,-2.6533,-2.6521,-2.6521,-2.6521,-2.6521,-2.6521,-2.6521,-2.6521,-2.6521,-2.6521,-2.6521,-2.6521,-2.6452,-2.6396,-2.6201,-2.5828,-2.5465,-2.5099,-2.4539,-2.4043,-2.3486,-2.2581,-2.1924,-2.1512,-2.0988,-2.0616,-2.0803,-2.1031,-2.101,-2.0855,-2.0565,-2.0224,-1.9779,-1.9266,-1.8952,-1.8798,-1.8539,-1.8405,-1.8269,-1.8134,-1.8008,-1.8008,-1.8008,-1.8008,-1.8008,-1.794,-1.7794,-1.7657,-1.7442,-1.7442,-1.7501,-1.7442,-1.7323,-1.7245,-1.7107,-1.689,-1.67,-1.6412,-1.6132,-1.578,-1.5488,-1.5221,-1.4878,-1.4689,-1.4437,-1.4026,-1.3707,-1.3423,-1.3045,-1.2674,-1.2467,-1.2156,-1.1988,-1.1902,-1.174,-1.1641,-1.1637,-1.1637,-1.163,-1.1622,-1.1622,-1.1622,-1.1622,-1.1622,-1.1622,-1.1622,-1.1622,-1.1622,-1.1622,-3.6492,-3.6492,-3.6274,-3.6148,-3.5973,-3.5752,-3.506,-3.4055,-3.3317,-3.2328,-3.118,-3.0173,-2.9505,-2.8803,-2.8481,-2.8105,-2.7789,-2.7656,-2.7536,-2.7469,-2.7469,-2.7335,-2.7092,-2.7011,-2.6807,-2.6521,-2.6521,-2.6521,-2.6521,-2.6521,-2.6521,-2.6521,-2.6521,-2.6521,-2.6521,-2.6521,-2.6521,-2.6465,-2.6465,-2.6327,-2.605,-2.5688,-2.5241,-2.4814,-2.4238,-2.3519,-2.2852,-2.2264,-2.1901,-2.1429,-2.0824,-2.0586,-2.0607,-2.0928,-2.0762,-2.0463,-2.0298,-1.9969,-1.9648,-1.9069,-1.8741,-1.8674,-1.8472,-1.8279,-1.8202,-1.8076,-1.8008,-1.8008,-1.8008,-1.8008,-1.794,-1.7784,-1.7588,-1.7392,-1.7116,-1.6968,-1.7028,-1.7097,-1.7038,-1.6899,-1.6682,-1.6482,-1.6272,-1.5929,-1.5576,-1.5284,-1.507,-1.4807,-1.4601,-1.4506,-1.4261,-1.3886,-1.3685,-1.3531,-1.3157,-1.2848,-1.2646,-1.2461,-1.2388,-1.2226,-1.1919,-1.1802,-1.1655,-1.1652,-1.163,-1.1622,-1.1622,-1.1622,-1.1622,-1.1622,-1.1622,-1.1622,-1.1622,-1.1622,-1.1622,-3.6492,-3.6492,-3.6274,-3.6148,-3.5958,-3.5737,-3.485,-3.349,-3.3063,-3.197,-3.0625,-2.9893,-2.9338,-2.8803,-2.8417,-2.8105,-2.7789,-2.759,-2.7469,-2.7469,-2.7469,-2.7268,-2.7092,-2.7024,-2.6807,-2.6589,-2.6521,-2.6521,-2.6521,-2.6521,-2.6521,-2.6521,-2.6521,-2.6521,-2.6521,-2.6521,-2.6521,-2.6465,-2.6327,-2.605,-2.5758,-2.5382,-2.4886,-2.4394,-2.3666,-2.3001,-2.2402,-2.2176,-2.1983,-2.1645,-2.1238,-2.0896,-2.0834,-2.0607,-2.037,-2.0186,-1.9758,-1.9342,-1.8849,-1.8687,-1.8539,-1.8405,-1.8337,-1.8212,-1.8076,-1.8076,-1.8008,-1.8008,-1.8008,-1.794,-1.7794,-1.7666,-1.7392,-1.7116,-1.683,-1.6482,-1.6281,-1.6351,-1.6482,-1.6412,-1.6272,-1.6132,-1.5929,-1.5568,-1.5213,-1.4856,-1.4569,-1.4425,-1.4281,-1.4201,-1.4045,-1.3701,-1.3686,-1.3517,-1.3319,-1.3038,-1.2917,-1.2797,-1.2753,-1.2621,-1.2314,-1.208,-1.1977,-1.178,-1.1622,-1.1622,-1.1622,-1.1622,-1.1622,-1.1622,-1.1622,-1.1622,-1.1622,-1.1622,-1.1622,-3.6492,-3.6492,-3.6414,-3.6211,-3.6085,-3.5864,-3.4901,-3.3493,-3.2941,-3.182,-3.0344,-2.9651,-2.9212,-2.8688,-2.8379,-2.7987,-2.7723,-2.7523,-2.7469,-2.7469,-2.7469,-2.7335,-2.7092,-2.6956,-2.6807,-2.6521,-2.6521,-2.6521,-2.6521,-2.6521,-2.6521,-2.6521,-2.6521,-2.6521,-2.6521,-2.6452,-2.6465,-2.6339,-2.627,-2.5992,-2.5453,-2.5158,-2.4587,-2.3886,-2.315,-2.2628,-2.2176,-2.2035,-2.1883,-2.1745,-2.1494,-2.1182,-2.0987,-2.0667,-2.0318,-1.9738,-1.9687,-1.9173,-1.8692,-1.8414,-1.8414,-1.8269,-1.8202,-1.8144,-1.8008,-1.8008,-1.8008,-1.8008,-1.8008,-1.793,-1.7716,-1.751,-1.7176,-1.6839,-1.6412,-1.607,-1.5797,-1.5929,-1.6,-1.5842,-1.57,-1.5568,-1.5355,-1.5133,-1.4848,-1.4425,-1.4217,-1.408,-1.392,-1.3775,-1.3775,-1.365,-1.36,-1.3556,-1.3381,-1.3228,-1.3263,-1.3162,-1.314,-1.298,-1.2738,-1.2533,-1.235,-1.2043,-1.1699,-1.163,-1.1622,-1.1622,-1.1622,-1.1622,-1.1622,-1.1622,-1.1622,-1.1622,-1.1622,-3.6492,-3.6492,-3.6492,-3.6352,-3.6148,-3.6022,-3.4949,-3.3327,-3.2912,-3.171,-3.0207,-2.9512,-2.8944,-2.8573,-2.8197,-2.7868,-2.7603,-2.7536,-2.7469,-2.7469,-2.7469,-2.7281,-2.7092,-2.6956,-2.682,-2.6521,-2.6521,-2.6521,-2.6521,-2.6521,-2.6521,-2.6521,-2.6521,-2.6521,-2.6521,-2.6465,-2.6408,-2.627,-2.6062,-2.577,-2.5312,-2.4945,-2.4311,-2.3361,-2.2777,-2.2402,-2.2101,-2.1883,-2.1807,-2.1807,-2.1578,-2.1298,-2.0968,-2.0714,-2.0335,-1.9334,-1.9514,-1.9124,-1.8516,-1.8279,-1.8279,-1.8269,-1.8134,-1.8008,-1.8008,-1.8008,-1.8008,-1.8008,-1.794,-1.7794,-1.7638,-1.7295,-1.689,-1.6482,-1.6,-1.5647,-1.5434,-1.5505,-1.5355,-1.5346,-1.5275,-1.5221,-1.4927,-1.4705,-1.4418,-1.4137,-1.3863,-1.3725,-1.3564,-1.3492,-1.3564,-1.3564,-1.3564,-1.3564,-1.3404,-1.3375,-1.336,-1.336,-1.3382,-1.3265,-1.3075,-1.287,-1.2592,-1.208,-1.1853,-1.1714,-1.1589,-1.1622,-1.1622,-1.1622,-1.1622,-1.1622,-1.1622,-1.1622,-1.156,-3.6492,-3.6492,-3.6492,-3.6304,-3.6037,-3.6022,-3.4856,-3.3155,-3.2694,-3.1555,-2.9922,-2.9184,-2.8739,-2.8365,-2.7987,-2.7723,-2.7536,-2.7469,-2.7469,-2.7469,-2.7469,-2.7335,-2.7092,-2.7024,-2.6807,-2.6589,-2.6521,-2.6521,-2.6521,-2.6521,-2.649,-2.6533,-2.6571,-2.6584,-2.6527,-2.6339,-2.6251,-2.605,-2.5758,-2.5382,-2.5028,-2.4467,-2.3875,-2.2927,-2.2478,-2.2176,-2.1959,-2.1807,-2.1807,-2.1807,-2.1578,-2.1375,-2.108,-2.0647,-2.0078,-1.965,-1.9179,-1.8793,-1.8321,-1.8086,-1.8086,-1.8018,-1.8008,-1.8008,-1.8008,-1.8008,-1.8008,-1.794,-1.7794,-1.7638,-1.7295,-1.695,-1.6482,-1.5991,-1.5568,-1.5213,-1.4927,-1.4784,-1.4856,-1.4982,-1.4927,-1.4864,-1.4577,-1.4353,-1.4137,-1.392,-1.3717,-1.3645,-1.3564,-1.3492,-1.3492,-1.3492,-1.3492,-1.3492,-1.347,-1.3462,-1.3448,-1.344,-1.3448,-1.3448,-1.3279,-1.3111,-1.2804,-1.2342,-1.1927,-1.1646,-1.1594,-1.1626,-1.1622,-1.1622,-1.1622,-1.156,-1.156,-1.1498,-1.1498,-3.6492,-3.6492,-3.6414,-3.6289,-3.6024,-3.5468,-3.4382,-3.2989,-3.2121,-3.1017,-2.9799,-2.9008,-2.8546,-2.83,-2.7973,-2.7723,-2.7536,-2.7469,-2.7469,-2.7469,-2.7469,-2.7335,-2.7011,-2.7024,-2.6807,-2.6589,-2.6521,-2.6521,-2.6521,-2.6521,-2.6603,-2.6854,-2.6879,-2.6879,-2.6739,-2.6694,-2.6214,-2.5868,-2.5465,-2.5028,-2.4527,-2.397,-2.3224,-2.2777,-2.2327,-2.2035,-2.1807,-2.1807,-2.1731,-2.1665,-2.1425,-2.1292,-2.0981,-2.0658,-2.02,-1.9777,-1.9281,-1.8779,-1.8359,-1.8164,-1.8008,-1.8008,-1.8008,-1.8008,-1.8008,-1.8008,-1.793,-1.7862,-1.7735,-1.7451,-1.7107,-1.6621,-1.6202,-1.5788,-1.5284,-1.4856,-1.4569,-1.4353,-1.4489,-1.4633,-1.4497,-1.4361,-1.4217,-1.4,-1.3855,-1.371,-1.3572,-1.3492,-1.3492,-1.3492,-1.3492,-1.3492,-1.3492,-1.3492,-1.3492,-1.3492,-1.3492,-1.3492,-1.3492,-1.3492,-1.3455,-1.3287,-1.306,-1.2745,-1.2267,-1.1862,-1.1725,-1.1758,-1.1663,-1.1582,-1.1527,-1.1471,-1.145,-1.1373,-1.145,-3.603,-3.6014,-3.5875,-3.5736,-3.552,-3.4691,-3.3639,-3.2566,-3.1507,-3.0446,-2.9457,-2.8844,-2.8379,-2.817,-2.7908,-2.7656,-2.7469,-2.7469,-2.7469,-2.7456,-2.7456,-2.7255,-2.7079,-2.6943,-2.6794,-2.6521,-2.6521,-2.6521,-2.6521,-2.6521,-2.6848,-2.7067,-2.7256,-2.7226,-2.7192,-2.7013,-2.6285,-2.5767,-2.5242,-2.48,-2.3982,-2.3298,-2.2841,-2.2553,-2.2252,-2.1949,-2.1807,-2.1807,-2.1655,-2.1502,-2.1359,-2.1138,-2.0906,-2.0731,-2.04,-2.0059,-1.9648,-1.918,-1.8682,-1.8379,-1.8154,-1.8027,-1.8008,-1.8008,-1.8008,-1.793,-1.7852,-1.7647,-1.7451,-1.7185,-1.676,-1.6342,-1.5929,-1.5434,-1.4935,-1.4497,-1.4353,-1.4137,-1.3992,-1.4065,-1.3992,-1.4,-1.3928,-1.3783,-1.371,-1.3637,-1.3492,-1.3492,-1.3492,-1.3492,-1.3492,-1.3492,-1.3492,-1.3492,-1.3492,-1.3492,-1.3492,-1.3492,-1.3492,-1.3492,-1.3492,-1.3448,-1.3221,-1.3009,-1.2626,-1.2231,-1.2065,-1.1948,-1.1919,-1.1781,-1.1524,-1.1374,-1.1276,-1.1283,-1.1304,-3.4497,-3.4497,-3.4453,-3.4182,-3.3877,-3.3526,-3.2662,-3.156,-3.1011,-3.0073,-2.8944,-2.8481,-2.817,-2.7908,-2.7656,-2.7523,-2.7523,-2.7469,-2.7469,-2.7456,-2.739,-2.7201,-2.7011,-2.6794,-2.6658,-2.6521,-2.6521,-2.6521,-2.6521,-2.6521,-2.6791,-2.7231,-2.7288,-2.7257,-2.7557,-2.7212,-2.6624,-2.5959,-2.5253,-2.438,-2.3386,-2.2948,-2.2553,-2.2252,-2.1949,-2.1797,-2.1807,-2.1807,-2.1731,-2.1502,-2.1282,-2.1128,-2.0906,-2.0722,-2.0634,-2.0381,-2.0039,-1.9492,-1.8838,-1.8555,-1.832,-1.8096,-1.8008,-1.8008,-1.794,-1.7794,-1.7579,-1.7304,-1.7107,-1.676,-1.6342,-1.6,-1.5505,-1.5007,-1.4577,-1.4217,-1.4008,-1.392,-1.3775,-1.3702,-1.3702,-1.3783,-1.379,-1.3645,-1.3492,-1.3492,-1.3492,-1.3492,-1.3492,-1.3492,-1.3492,-1.3492,-1.3492,-1.3492,-1.3492,-1.3492,-1.3492,-1.3492,-1.3492,-1.3492,-1.3492,-1.3492,-1.3484,-1.325,-1.288,-1.2608,-1.2448,-1.2356,-1.2211,-1.1934,-1.1689,-1.1425,-1.1164,-1.1136,-1.1134,-3.3345,-3.4089,-3.3849,-3.3653,-3.3302,-3.2529,-3.1772,-3.0954,-3.0031,-2.9306,-2.8665,-2.8235,-2.7842,-2.7656,-2.7523,-2.7536,-2.7469,-2.7469,-2.7469,-2.7469,-2.7335,-2.7214,-2.7011,-2.6794,-2.6658,-2.6521,-2.6521,-2.6521,-2.6521,-2.6553,-2.6854,-2.7501,-2.7493,-2.7545,-2.7788,-2.7533,-2.6752,-2.5873,-2.4858,-2.3993,-2.3394,-2.2713,-2.2262,-2.2111,-2.1873,-2.1807,-2.1807,-2.1807,-2.1655,-2.1436,-2.1205,-2.1051,-2.0809,-2.0654,-2.0566,-2.0624,-2.041,-1.9883,-1.9141,-1.8809,-1.8457,-1.8135,-1.8008,-1.794,-1.7862,-1.7579,-1.7304,-1.7038,-1.6691,-1.6272,-1.585,-1.5434,-1.4999,-1.4641,-1.4289,-1.408,-1.379,-1.3637,-1.3564,-1.3492,-1.3492,-1.3564,-1.3645,-1.3564,-1.3492,-1.3492,-1.3492,-1.3492,-1.3492,-1.3492,-1.3492,-1.3492,-1.3492,-1.3492,-1.3492,-1.3492,-1.3492,-1.3492,-1.3492,-1.3492,-1.3492,-1.3492,-1.3492,-1.3419,-1.3158,-1.2991,-1.2883,-1.2567,-1.2233,-1.1992,-1.178,-1.1487,-1.1152,-1.1122,-1.1129,-3.224,-3.3156,-3.3006,-3.2809,-3.2458,-3.1344,-3.0691,-3.0178,-2.9215,-2.8638,-2.8314,-2.7921,-2.7656,-2.7523,-2.7523,-2.7469,-2.7469,-2.7469,-2.7469,-2.7469,-2.7335,-2.7134,-2.6943,-2.6794,-2.6589,-2.6521,-2.6521,-2.6521,-2.6452,-2.6565,-2.6876,-2.7705,-2.7594,-2.7739,-2.7818,-2.7561,-2.6866,-2.5576,-2.4327,-2.3667,-2.3229,-2.255,-2.2153,-2.1949,-2.1883,-2.1807,-2.1807,-2.1731,-2.1502,-2.1282,-2.1128,-2.0974,-2.0644,-2.0654,-2.0576,-2.0566,-2.0508,-2.0205,-1.9551,-1.9082,-1.8613,-1.8212,-1.7881,-1.7794,-1.7442,-1.7235,-1.689,-1.663,-1.6281,-1.5929,-1.5505,-1.4935,-1.4641,-1.4361,-1.408,-1.387,-1.3732,-1.3601,-1.3514,-1.3492,-1.3492,-1.3492,-1.3492,-1.3492,-1.3492,-1.3492,-1.3492,-1.3492,-1.3492,-1.3492,-1.3492,-1.3492,-1.3492,-1.3492,-1.3492,-1.3492,-1.3492,-1.3492,-1.3492,-1.3492,-1.3492,-1.3492,-1.3492,-1.3419,-1.3273,-1.3055,-1.2813,-1.2558,-1.2248,-1.1992,-1.173,-1.1463,-1.1211,-1.1076,-1.1001,-3.1117,-3.0998,-3.1323,-3.1116,-3.0574,-3.0093,-2.9568,-2.9082,-2.8743,-2.8314,-2.7908,-2.7656,-2.7523,-2.7523,-2.7469,-2.7469,-2.7469,-2.7469,-2.7469,-2.7403,-2.7214,-2.7079,-2.6888,-2.6739,-2.6521,-2.6521,-2.6521,-2.6521,-2.6452,-2.6339,-2.6859,-2.7606,-2.7397,-2.7779,-2.783,-2.7393,-2.6575,-2.5322,-2.4143,-2.3377,-2.2963,-2.2415,-2.2046,-2.1883,-2.1807,-2.1807,-2.1807,-2.1655,-2.1425,-2.1205,-2.1061,-2.0896,-2.0654,-2.0576,-2.0576,-2.0576,-2.0576,-2.0312,-1.9902,-1.9414,-1.9004,-1.8543,-1.8045,-1.752,-1.7107,-1.6968,-1.656,-1.6079,-1.5788,-1.5434,-1.5007,-1.4577,-1.4289,-1.4179,-1.3998,-1.3844,-1.377,-1.3667,-1.3572,-1.3514,-1.3492,-1.3492,-1.3492,-1.3492,-1.3492,-1.3492,-1.3492,-1.3492,-1.3492,-1.3492,-1.3492,-1.3492,-1.3492,-1.3492,-1.3492,-1.3492,-1.3492,-1.3492,-1.3492,-1.3492,-1.3492,-1.3492,-1.3419,-1.3273,-1.3127,-1.2973,-1.2739,-1.2459,-1.2152,-1.1942,-1.1669,-1.1346,-1.096,-1.07,-1.0665,-3.0702,-3.0507,-3.0433,-3.0251,-2.9946,-2.9435,-2.8994,-2.8638,-2.8249,-2.7921,-2.759,-2.7536,-2.7469,-2.7469,-2.7469,-2.7469,-2.7469,-2.7469,-2.7469,-2.7403,-2.7201,-2.7024,-2.6875,-2.6658,-2.6521,-2.6521,-2.6521,-2.6521,-2.6452,-2.6258,-2.6387,-2.6809,-2.6942,-2.7394,-2.7425,-2.7021,-2.6157,-2.5426,-2.4245,-2.3403,-2.3145,-2.2335,-2.1883,-2.1807,-2.1807,-2.1807,-2.1731,-2.1589,-2.1436,-2.1205,-2.0984,-2.0819,-2.0654,-2.0576,-2.0576,-2.0566,-2.0566,-2.0391,-2.0072,-1.9594,-1.8922,-1.8091,-1.7527,-1.7116,-1.6778,-1.6491,-1.6149,-1.5726,-1.5363,-1.4935,-1.4721,-1.4305,-1.4068,-1.4014,-1.4022,-1.3873,-1.3873,-1.3799,-1.3682,-1.3638,-1.355,-1.3492,-1.3492,-1.3492,-1.3492,-1.3492,-1.3492,-1.3492,-1.3492,-1.3492,-1.3492,-1.3492,-1.3492,-1.3492,-1.3492,-1.3492,-1.3492,-1.3492,-1.3492,-1.3492,-1.3419,-1.3346,-1.3273,-1.3127,-1.2973,-1.2673,-1.2452,-1.2305,-1.2004,-1.1734,-1.1503,-1.123,-1.0839,-1.0358,-1.0296,-3.0205,-3.0007,-2.9685,-2.9574,-2.9512,-2.8994,-2.856,-2.8314,-2.7987,-2.7656,-2.7523,-2.7469,-2.7469,-2.7469,-2.7469,-2.7469,-2.7469,-2.7469,-2.7469,-2.7403,-2.7214,-2.7024,-2.6875,-2.6658,-2.6521,-2.6521,-2.6465,-2.6465,-2.6396,-2.6119,-2.6196,-2.6336,-2.6292,-2.6546,-2.6921,-2.6318,-2.5717,-2.526,-2.4288,-2.3447,-2.32,-2.2382,-2.1818,-2.1807,-2.1807,-2.1807,-2.1731,-2.1578,-2.1359,-2.1128,-2.0974,-2.0731,-2.0654,-2.0576,-2.0576,-2.0566,-2.0489,-2.042,-2.0149,-1.961,-1.873,-1.7807,-1.7367,-1.6915,-1.6526,-1.6079,-1.5797,-1.5371,-1.4864,-1.4537,-1.4519,-1.4205,-1.4141,-1.4268,-1.4273,-1.4212,-1.4212,-1.4121,-1.3916,-1.377,-1.3689,-1.3645,-1.3572,-1.3587,-1.3609,-1.3572,-1.3499,-1.3492,-1.3492,-1.3492,-1.3492,-1.3492,-1.3492,-1.3492,-1.3492,-1.3492,-1.3492,-1.3492,-1.3492,-1.3419,-1.3353,-1.3273,-1.3046,-1.2753,-1.2599,-1.2372,-1.2077,-1.1706,-1.1558,-1.1465,-1.1156,-1.0685,-1.0306,-0.982,-0.9777,-2.9526,-2.931,-2.9212,-2.9085,-2.9099,-2.8716,-2.8314,-2.7908,-2.7776,-2.7656,-2.7523,-2.7469,-2.7469,-2.7469,-2.7469,-2.7469,-2.7469,-2.7469,-2.7469,-2.7403,-2.7146,-2.7024,-2.6875,-2.6671,-2.6521,-2.6521,-2.6452,-2.6396,-2.6213,-2.591,-2.5851,-2.5695,-2.555,-2.5509,-2.6359,-2.5881,-2.5337,-2.4788,-2.37,-2.3275,-2.2984,-2.2232,-2.188,-2.1807,-2.1807,-2.1807,-2.1655,-2.1425,-2.1205,-2.1138,-2.0809,-2.0644,-2.0654,-2.0576,-2.0566,-2.0566,-2.0411,-2.0255,-2.0216,-1.9429,-1.8527,-1.7705,-1.7279,-1.6794,-1.6139,-1.576,-1.5451,-1.4968,-1.4617,-1.4483,-1.4342,-1.4298,-1.4401,-1.4425,-1.4506,-1.4457,-1.4457,-1.4457,-1.4267,-1.4011,-1.3938,-1.3887,-1.3762,-1.3697,-1.3733,-1.3682,-1.355,-1.3521,-1.3572,-1.3572,-1.3594,-1.3492,-1.3492,-1.3492,-1.3492,-1.3492,-1.3492,-1.3492,-1.3419,-1.3346,-1.3273,-1.3053,-1.2826,-1.2452,-1.215,-1.1929,-1.1477,-1.1105,-1.0887,-1.0663,-1.0293,-0.9911,-0.9544,-0.9322,-0.9322,-2.9212,-2.9149,-2.8972,-2.878,-2.8573,-2.8327,-2.8066,-2.7789,-2.7656,-2.7523,-2.7536,-2.7469,-2.7469,-2.7469,-2.7469,-2.7469,-2.7469,-2.7469,-2.7469,-2.7469,-2.7146,-2.7024,-2.6888,-2.6671,-2.6521,-2.6521,-2.6452,-2.6396,-2.6201,-2.5758,-2.5431,-2.5218,-2.47,-2.4679,-2.4858,-2.4568,-2.404,-2.3853,-2.3221,-2.2718,-2.2666,-2.2159,-2.1807,-2.1807,-2.1807,-2.1731,-2.1589,-2.1359,-2.1138,-2.1061,-2.0731,-2.0644,-2.0576,-2.0576,-2.0566,-2.0411,-2.0186,-1.9863,-1.946,-1.8768,-1.8193,-1.7685,-1.7217,-1.6698,-1.608,-1.5592,-1.5106,-1.4639,-1.444,-1.4372,-1.4336,-1.4362,-1.4506,-1.4684,-1.4787,-1.4779,-1.4779,-1.4772,-1.4662,-1.434,-1.4172,-1.4055,-1.3931,-1.4018,-1.4062,-1.4172,-1.4114,-1.3923,-1.3901,-1.3828,-1.3792,-1.3572,-1.3492,-1.3492,-1.3492,-1.3492,-1.3492,-1.3419,-1.3346,-1.3273,-1.3127,-1.29,-1.2532,-1.2157,-1.1855,-1.1484,-1.0962,-1.0438,-0.9992,-0.962,-0.9499,-0.9413,-0.9246,-0.9013,-0.8937,-2.8908,-2.8908,-2.878,-2.8509,-2.8249,-2.8145,-2.7934,-2.7723,-2.7523,-2.7469,-2.7469,-2.7469,-2.7469,-2.7469,-2.7469,-2.7469,-2.7469,-2.7469,-2.7469,-2.7469,-2.7146,-2.7024,-2.6888,-2.6671,-2.6521,-2.6521,-2.6452,-2.6396,-2.605,-2.5676,-2.5123,-2.4426,-2.3832,-2.3634,-2.3641,-2.3493,-2.358,-2.3314,-2.2912,-2.2553,-2.2408,-2.2108,-2.1818,-2.1807,-2.1731,-2.1655,-2.1502,-2.1282,-2.1061,-2.0896,-2.0731,-2.0576,-2.0576,-2.0489,-2.0411,-2.0186,-1.9794,-1.9311,-1.8665,-1.8425,-1.7873,-1.7467,-1.7055,-1.6547,-1.5988,-1.537,-1.5024,-1.4605,-1.4426,-1.4433,-1.4528,-1.4624,-1.4735,-1.4999,-1.5087,-1.5079,-1.5079,-1.5079,-1.4977,-1.4655,-1.4465,-1.4311,-1.4187,-1.4333,-1.445,-1.4589,-1.4714,-1.4487,-1.4238,-1.4106,-1.3975,-1.3748,-1.3543,-1.3506,-1.3499,-1.3492,-1.3492,-1.3426,-1.3273,-1.3127,-1.29,-1.268,-1.2231,-1.1861,-1.1409,-1.0962,-1.0293,-0.9695,-0.9489,-0.9224,-0.9115,-0.9014,-0.8885,-0.8818,-0.8765,-2.8546,-2.856,-2.856,-2.8379,-2.8145,-2.8079,-2.7802,-2.7523,-2.7469,-2.7469,-2.7469,-2.7469,-2.7469,-2.7469,-2.7469,-2.7469,-2.7469,-2.7469,-2.7469,-2.7403,-2.7146,-2.7011,-2.6888,-2.6671,-2.6521,-2.6521,-2.6452,-2.6314,-2.591,-2.5394,-2.4527,-2.3655,-2.3152,-2.2832,-2.2772,-2.2867,-2.3043,-2.2818,-2.2563,-2.2346,-2.2221,-2.2025,-2.1762,-2.1731,-2.1655,-2.1502,-2.1359,-2.1138,-2.0984,-2.0819,-2.0722,-2.0644,-2.0576,-2.042,-2.0186,-1.9794,-1.932,-1.8674,-1.8112,-1.7878,-1.7538,-1.7064,-1.6677,-1.615,-1.57,-1.5218,-1.4927,-1.4698,-1.4513,-1.4687,-1.4765,-1.4911,-1.5065,-1.5226,-1.535,-1.5365,-1.5372,-1.5321,-1.5211,-1.5035,-1.4889,-1.4728,-1.456,-1.4633,-1.4743,-1.4933,-1.5021,-1.494,-1.4677,-1.4348,-1.4179,-1.3923,-1.3726,-1.3558,-1.3521,-1.3506,-1.3419,-1.328,-1.3127,-1.2973,-1.268,-1.2305,-1.1855,-1.1409,-1.0962,-1.0443,-0.9771,-0.9342,-0.9071,-0.8894,-0.9004,-0.898,-0.8951,-0.8951,-0.8888,-2.7569,-2.7949,-2.7963,-2.8015,-2.8052,-2.7802,-2.759,-2.7523,-2.7469,-2.7469,-2.7469,-2.7469,-2.7469,-2.7469,-2.7469,-2.7469,-2.7469,-2.7469,-2.7403,-2.7268,-2.7146,-2.693,-2.6726,-2.6589,-2.6521,-2.6521,-2.6452,-2.6245,-2.5758,-2.5194,-2.4322,-2.3372,-2.2852,-2.2478,-2.2271,-2.223,-2.2289,-2.2263,-2.2139,-2.2097,-2.2056,-2.189,-2.1731,-2.1578,-2.1502,-2.1349,-2.1138,-2.0984,-2.0829,-2.0731,-2.0644,-2.0576,-2.0576,-2.042,-2.0108,-1.9231,-1.8674,-1.804,-1.7635,-1.7302,-1.6976,-1.664,-1.6195,-1.5936,-1.5594,-1.5316,-1.4967,-1.481,-1.4661,-1.4787,-1.497,-1.5131,-1.5248,-1.5343,-1.5431,-1.5431,-1.5431,-1.5409,-1.5306,-1.5262,-1.5123,-1.5013,-1.4853,-1.4853,-1.4977,-1.5204,-1.5299,-1.5233,-1.5072,-1.4721,-1.4457,-1.4201,-1.3967,-1.3814,-1.3521,-1.3389,-1.3287,-1.32,-1.2973,-1.268,-1.2378,-1.2003,-1.1403,-1.0899,-1.0332,-0.9792,-0.9246,-0.9014,-0.9004,-0.9001,-0.9086,-0.9048,-0.9025,-0.9039,-0.9063,-2.704,-2.7339,-2.7304,-2.739,-2.7576,-2.7498,-2.7469,-2.7469,-2.7469,-2.7469,-2.7469,-2.7469,-2.7469,-2.7469,-2.7469,-2.7469,-2.7469,-2.7469,-2.7469,-2.7268,-2.7079,-2.6863,-2.6726,-2.6589,-2.6521,-2.6452,-2.6396,-2.6201,-2.57,-2.4838,-2.397,-2.3224,-2.2777,-2.2402,-2.2056,-2.1946,-2.1849,-2.1869,-2.1838,-2.1807,-2.1731,-2.1721,-2.1578,-2.1502,-2.1349,-2.1128,-2.0906,-2.0829,-2.0741,-2.0644,-2.0566,-2.0566,-2.0411,-2.0029,-1.9469,-1.8674,-1.8121,-1.7635,-1.7147,-1.6812,-1.6476,-1.6147,-1.5906,-1.5718,-1.5479,-1.5204,-1.5087,-1.4918,-1.4933,-1.4984,-1.5145,-1.5292,-1.5365,-1.5431,-1.5431,-1.5431,-1.5431,-1.5431,-1.5409,-1.5394,-1.5223,-1.5122,-1.5138,-1.5131,-1.5167,-1.5313,-1.5387,-1.5365,-1.5233,-1.4992,-1.4772,-1.4567,-1.4311,-1.4092,-1.3783,-1.3424,-1.3307,-1.3051,-1.2753,-1.2452,-1.2083,-1.1571,-1.1055,-1.0343,-0.9632,-0.9274,-0.9097,-0.9094,-0.9152,-0.9214,-0.9208,-0.9337,-0.9304,-0.9242,-0.9271,-2.6701,-2.6695,-2.6627,-2.677,-2.6906,-2.7288,-2.7458,-2.7469,-2.7469,-2.7469,-2.7469,-2.7469,-2.7469,-2.7469,-2.7469,-2.7469,-2.7469,-2.7469,-2.7403,-2.7268,-2.7079,-2.6875,-2.6658,-2.6602,-2.6521,-2.6465,-2.627,-2.605,-2.5548,-2.4766,-2.3751,-2.3001,-2.2628,-2.2252,-2.1873,-2.1807,-2.1807,-2.1807,-2.1807,-2.1807,-2.1731,-2.1578,-2.1425,-2.1359,-2.1128,-2.0906,-2.0819,-2.0731,-2.0576,-2.0576,-2.0566,-2.0489,-2.002,-1.9478,-1.8754,-1.8193,-1.7716,-1.7221,-1.6812,-1.6476,-1.6147,-1.5899,-1.5658,-1.5553,-1.5359,-1.5264,-1.5145,-1.5167,-1.5174,-1.5174,-1.5299,-1.5357,-1.5409,-1.5431,-1.5431,-1.5431,-1.5431,-1.5431,-1.5431,-1.5416,-1.5394,-1.5306,-1.5306,-1.5284,-1.5277,-1.5401,-1.5431,-1.5431,-1.5357,-1.5174,-1.5013,-1.486,-1.4655,-1.4384,-1.3961,-1.3615,-1.3322,-1.3014,-1.2607,-1.2077,-1.1706,-1.1204,-1.0628,-0.9975,-0.9393,-0.9316,-0.9161,-0.9233,-0.9351,-0.9398,-0.9488,-0.9541,-0.9522,-0.9507,-0.9511,-2.5652,-2.598,-2.6121,-2.6466,-2.6841,-2.6882,-2.7131,-2.7456,-2.7469,-2.7523,-2.7469,-2.7469,-2.7469,-2.7469,-2.7469,-2.7469,-2.7469,-2.7469,-2.7335,-2.7146,-2.7024,-2.6807,-2.6589,-2.6521,-2.6452,-2.6465,-2.6258,-2.5828,-2.5182,-2.4394,-2.3677,-2.3001,-2.2628,-2.2176,-2.1807,-2.1807,-2.1807,-2.1807,-2.1731,-2.1655,-2.1578,-2.1512,-2.1359,-2.1138,-2.0906,-2.0819,-2.0731,-2.0654,-2.0498,-2.042,-2.0342,-2.0098,-1.9539,-1.9002,-1.8523,-1.804,-1.7392,-1.6894,-1.6476,-1.6147,-1.5824,-1.5582,-1.5506,-1.5423,-1.5394,-1.5343,-1.5328,-1.5365,-1.5387,-1.5387,-1.5394,-1.5416,-1.5431,-1.5431,-1.5431,-1.5431,-1.5431,-1.5431,-1.5431,-1.5431,-1.5431,-1.5431,-1.5431,-1.5431,-1.5431,-1.5431,-1.5431,-1.5431,-1.5431,-1.5313,-1.5174,-1.5028,-1.486,-1.4619,-1.418,-1.3831,-1.3474,-1.2879,-1.2362,-1.1889,-1.1285,-1.0749,-1.0191,-0.9708,-0.9325,-0.9266,-0.9308,-0.9445,-0.9545,-0.9587,-0.9658,-0.9776,-0.9828,-0.9762,-0.979,-2.5024,-2.5226,-2.5548,-2.5862,-2.6041,-2.624,-2.6621,-2.7092,-2.7144,-2.7288,-2.7443,-2.7469,-2.7469,-2.7469,-2.7469,-2.7469,-2.7469,-2.739,-2.7268,-2.7092,-2.6875,-2.6739,-2.6589,-2.6452,-2.6396,-2.6327,-2.591,-2.5407,-2.4826,-2.425,-2.3604,-2.3001,-2.2553,-2.2176,-2.1883,-2.1807,-2.1807,-2.1807,-2.1721,-2.1578,-2.1436,-2.1359,-2.1205,-2.0984,-2.0819,-2.0731,-2.0654,-2.0576,-2.042,-2.0186,-2.002,-1.9469,-1.8984,-1.8603,-1.8049,-1.7473,-1.6976,-1.6566,-1.6147,-1.5824,-1.5582,-1.5431,-1.5431,-1.5431,-1.5431,-1.5379,-1.5379,-1.5416,-1.5416,-1.5416,-1.5416,-1.5431,-1.5431,-1.5431,-1.5431,-1.5431,-1.5431,-1.5431,-1.5431,-1.5431,-1.5431,-1.5431,-1.5431,-1.5431,-1.5431,-1.5431,-1.5431,-1.5431,-1.5431,-1.5431,-1.5299,-1.5129,-1.5042,-1.4822,-1.4489,-1.4087,-1.3731,-1.3024,-1.2228,-1.1542,-1.0912,-1.0236,-0.9652,-0.9541,-0.9457,-0.9417,-0.9545,-0.9649,-0.9734,-0.9786,-0.9847,-1.0009,-1.0038,-1.0038,-1.0014,-2.4597,-2.4629,-2.4945,-2.503,-2.5101,-2.5497,-2.6046,-2.653,-2.6648,-2.6948,-2.7366,-2.7484,-2.7523,-2.7469,-2.7469,-2.7469,-2.7469,-2.739,-2.7214,-2.7011,-2.6794,-2.6658,-2.6589,-2.6452,-2.6314,-2.5968,-2.5606,-2.5123,-2.4634,-2.4043,-2.3446,-2.299,-2.2553,-2.2176,-2.1883,-2.1807,-2.1807,-2.1731,-2.1655,-2.1425,-2.1282,-2.1128,-2.1051,-2.0896,-2.0731,-2.0576,-2.0576,-2.042,-2.0342,-1.9863,-1.9469,-1.8913,-1.8434,-1.8031,-1.7546,-1.6976,-1.6648,-1.6237,-1.5816,-1.5582,-1.5506,-1.5431,-1.5431,-1.5431,-1.5431,-1.5431,-1.5431,-1.5431,-1.5431,-1.5431,-1.5431,-1.5431,-1.5431,-1.5431,-1.5431,-1.5431,-1.5431,-1.5431,-1.5431,-1.5431,-1.5431,-1.5431,-1.5431,-1.5431,-1.5431,-1.5431,-1.5431,-1.5431,-1.5431,-1.5431,-1.5372,-1.5253,-1.5223,-1.4989,-1.4681,-1.4195,-1.3742,-1.2935,-1.2157,-1.1257,-1.0526,-1.0064,-0.9692,-0.9659,-0.9585,-0.963,-0.9715,-0.98,-0.9885,-0.9923,-1.0019,-1.0038,-1.0038,-1.0038,-1.0038,-2.4066,-2.4363,-2.4347,-2.453,-2.4936,-2.5153,-2.5458,-2.602,-2.6465,-2.6752,-2.6961,-2.7353,-2.7469,-2.7469,-2.7469,-2.7469,-2.7456,-2.7323,-2.7201,-2.7011,-2.6794,-2.6658,-2.6521,-2.6383,-2.6107,-2.5746,-2.5241,-2.4814,-2.4334,-2.374,-2.3213,-2.2767,-2.2402,-2.2035,-2.1883,-2.1807,-2.1807,-2.1731,-2.1589,-2.1359,-2.1205,-2.1051,-2.0819,-2.0731,-2.0644,-2.0566,-2.0576,-2.042,-2.0108,-1.9557,-1.8843,-1.8353,-1.7951,-1.7546,-1.7057,-1.6648,-1.6327,-1.5997,-1.5665,-1.5506,-1.5431,-1.5431,-1.5431,-1.5431,-1.5431,-1.5431,-1.5431,-1.5431,-1.5431,-1.5431,-1.5431,-1.5431,-1.5431,-1.5431,-1.5431,-1.5431,-1.5431,-1.5431,-1.5431,-1.5431,-1.5431,-1.5431,-1.5431,-1.5431,-1.5431,-1.5431,-1.5431,-1.5431,-1.5431,-1.5431,-1.5431,-1.5347,-1.5264,-1.4999,-1.4726,-1.4077,-1.3601,-1.2819,-1.1984,-1.107,-1.0335,-1.0043,-0.9809,-0.969,-0.9795,-0.9924,-1.0,-0.9899,-1.0005,-1.0024,-1.0028,-1.0038,-1.0038,-1.0038,-1.0038]},{"header":{"parameterUnit":"m.s-1","parameterCategory":1,"la1":31.0,"la2":29.5877,"lo1":-88.7671,"lo2":-86.6584,"dy":0.0162,"dx":0.0185,"nx":115,"ny":88,"refTime":"2023-06-22T06:00:00:Z","depth":0,"parameterNumber":3,"parameterNumberName":"V-component_of_WINDS"},"data":[0.0,0.0,0.0,0.0,0.0,0.0,0.0,0.0,0.0,0.0,0.0,0.0,0.0,0.0,0.0,0.0,0.0,0.0,0.0,0.0,0.0,0.0,0.0,0.0,0.0,0.0,0.0,0.0,0.0,0.0,0.0,0.0,0.0,0.0,0.0,0.0,0.0,0.0,0.0,0.0,0.0,0.0,0.0,0.0,0.0,0.0,0.0,0.0,0.0,0.0,0.0,0.0,0.0,0.0,0.0,0.0,0.0,0.0,0.0,0.0,0.0,0.0,0.0,0.0,0.0,0.0,0.0,0.0,0.0,0.0,0.0,0.0,0.0,0.0,0.0,0.0,0.0,0.0,0.0,0.0,0.0,0.0,0.0,0.0,0.0,0.0,0.0,0.0,0.0,0.0,0.0,0.0,0.0,0.0,0.0,0.0,0.0,0.0,0.0,0.0,0.0,0.0,0.0,0.0,0.0,0.0,0.0,0.0,0.0,0.0,0.0,0.0,0.0,0.0,0.0,0.0,0.0,0.0,0.0,0.0,0.0,0.0,0.0,0.0,0.0,0.0,0.0,0.0,0.0,0.0,0.0,0.0,0.0,0.0,0.0,0.0,0.0,0.0,0.0,0.0,0.0,0.0,0.0,0.0,0.0,0.0,0.0,0.0,0.0,0.0,0.0,0.0,0.0,0.0,0.0,0.0,0.0,0.0,0.0,0.0,0.0,0.0,0.0,0.0,0.0,0.0,0.0,0.0,0.0,0.0,0.0,0.0,0.0,0.0,0.0,0.0,0.0,0.0,0.0,0.0,0.0,0.0,0.0,0.0,0.0,0.0,0.0,0.0,0.0,0.0,0.0,0.0,0.0,0.0,0.0,0.0,0.0,0.0,0.0,0.0,0.0,0.0,0.0,0.0,0.0,0.0,0.0,0.0,0.0,0.0,0.0,0.0,0.0,0.0,0.0,0.0,0.0,0.0,0.0,0.0,0.0,0.0,0.0,0.0,0.0,0.0,0.0,0.0,0.0,0.0,0.0,0.0,0.0,0.0,0.0,0.0,0.0,0.0,0.0,0.0,0.0,0.0,0.0,0.0,0.0,0.0,0.0,0.0,0.0,0.0,0.0,0.0,0.0,0.0,0.0,0.0,0.0,0.0,0.0,0.0,0.0,0.0,0.0,0.0,0.0,0.0,0.0,0.0,0.0,0.0,0.0,0.0,0.0,0.0,0.0,0.0,0.0,0.0,0.0,0.0,0.0,0.0,0.0,0.0,0.0,0.0,0.0,0.0,0.0,0.0,0.0,0.0,0.0,0.0,0.0,0.0,0.0,0.0,0.0,0.0,0.0,0.0,0.0,0.0,0.0,0.0,0.0,0.0,0.0,0.0,0.0,0.0,0.0,0.0,0.0,0.0,0.0,0.0,0.0,0.0,0.0,0.0,0.0,0.0,0.0,0.0,0.0,0.0,0.0,0.0,0.0,0.0,0.0,0.0,0.0,0.0,0.0,0.0,0.0,0.0,0.0,0.0,0.0,0.0,0.0,0.0,0.0,0.0,0.0,0.0,0.0,0.0,0.0,0.0,0.0,0.0,0.0,0.0,0.0,0.0,0.0,0.0,0.0,0.0,0.0,0.0,0.0,0.0,0.0,0.0,0.0,0.0,0.0,0.0,0.0,0.0,0.0,0.0,0.0,0.0,0.0,0.0,0.0,0.0,0.0,0.0,0.0,0.0,0.0,0.0,0.0,0.0,0.0,0.0,0.0,0.0,0.0,0.0,0.0,0.0,0.0,0.0,0.0,0.0,0.0,0.0,0.0,0.0,0.0,0.0,0.0,0.0,0.0,0.0,0.0,0.0,0.0,0.0,0.0,0.0,0.0,0.0,0.0,0.0,0.0,0.0,0.0,0.0,0.0,0.0,0.0,0.0,0.0,0.0,0.0,0.0,0.0,0.0,0.0,0.0,0.0,0.0,0.0,0.0,0.0,0.0,0.0,0.0,0.0,0.0,0.0,0.0,0.0,0.0,0.0,0.0,0.0,0.0,0.0,0.0,0.0,0.0,0.0,0.0,0.0,0.0,0.0,0.0,0.0,0.0,0.0,0.0,0.0,0.0,0.0,0.0,0.0,0.0,0.0,0.0,0.0,0.0,0.0,0.0,0.0,0.0,0.0,0.0,0.0,0.0,0.0,0.0,0.0,0.0,0.0,0.0,0.0,0.0,0.0,0.0,0.0,0.0,0.0,0.0,0.0,0.0,0.0,0.0,0.0,0.0,0.0,0.0,0.0,0.0,0.0,0.0,0.0,0.0,0.0,0.0,0.0,0.0,0.0,0.0,0.0,0.0,0.0,0.0,0.0,0.0,0.0,0.0,0.0,0.0,0.0,0.0,0.0,0.0,0.0,0.0,0.0,0.0,0.0,0.0,0.0,0.0,0.0,0.0,0.0,0.0,0.0,0.0,0.0,0.0,0.0,0.0,0.0,0.0,0.0,0.0,0.0,0.0,0.0,0.0,0.0,0.0,0.0,0.0,0.0,0.0,0.0,0.0,0.0,0.0,0.0,0.0,0.0,0.0,0.0,0.0,0.0,0.0,0.0,0.0,0.0,0.0,0.0,0.0,0.0,0.0,0.0,0.0,0.0,0.0,0.0,0.0,0.0,0.0,0.0,0.0,0.0,0.0,0.0,0.0,0.0,0.0,0.0,0.0,0.0,0.0,0.0,0.0,0.0,0.0,0.0,0.0,0.0,0.0,0.0,0.0,0.0,0.0,0.0,0.0,0.0,0.0,0.0,0.0,0.0,0.0,0.0,0.0,0.0,0.0,0.0,0.0,0.0,0.0,0.0,0.0,0.0,0.0,0.0,0.0,0.0,0.0,0.0,0.0,0.0,0.0,0.0,0.0,0.0,0.0,0.0,0.0,0.0,0.0,0.0,0.0,0.0,0.0,0.0,0.0,0.0,0.0,0.0,0.0,0.0,0.0,0.0,0.0,0.0,0.0,0.0,0.0,0.0,0.0,0.0,0.0,0.0,0.0,0.0,0.0,0.0,0.0,0.0,0.0,0.0,0.0,0.0,0.0,0.0,0.0,0.0,0.0,0.0,0.0,0.0,0.0,0.0,0.0,0.0,0.0,0.0,0.0,0.0,0.0,0.0,0.0,0.0,0.0,0.0,0.0,0.0,0.0,0.0,0.0,0.0,0.0,0.0,0.0,0.0,0.0,0.0,0.0,0.0,0.0,0.0,0.0,0.0,0.0,0.0,0.0,0.0,0.0,0.0,0.0,0.0,0.0,0.0,0.0,0.0,0.0,0.0,0.0,0.0,0.0,0.0,0.0,0.0,0.0,0.0,0.0,0.0,0.0,0.0,0.0,0.0,0.0,0.0,0.0,0.0,0.0,0.0,0.0,0.0,0.0,0.0,0.0,0.0,0.0,0.0,0.0,0.0,0.0,0.0,0.0,0.0,0.0,0.0,0.0,0.0,0.0,0.0,0.0,0.0,0.0,0.0,0.0,0.0,0.0,0.0,0.0,0.0,0.0,0.0,0.0,0.0,0.0,0.0,0.0,0.0,0.0,0.0,0.0,0.0,0.0,0.0,0.0,0.0,0.0,0.0,0.0,0.0,0.0,0.0,0.0,0.0,0.0,0.0,0.0,0.0,0.0,0.0,0.0,0.0,0.0,0.0,0.0,0.0,0.0,0.0,0.0,0.0,0.0,0.0,0.0,0.0,0.0,0.0,0.0,0.0,0.0,0.0,0.0,0.0,0.0,0.0,0.0,0.0,0.0,0.0,0.0,0.0,0.0,0.0,0.0,0.0,0.0,0.0,0.0,0.0,0.0,0.0,0.0,0.0,0.0,0.0,0.0,0.0,0.0,0.0,0.0,0.0,0.0,0.0,0.0,0.0,0.0,0.0,0.0,0.0,0.0,0.0,0.0,0.0,0.0,0.0,0.0,0.0,0.0,0.0,0.0,0.0,0.0,0.0,0.0,0.0,0.0,0.0,0.0,0.0,0.0,0.0,0.0,0.0,0.0,0.0,0.0,0.0,0.0,0.0,0.0,0.0,0.0,0.0,0.0,0.0,0.0,0.0,0.0,0.0,0.0,0.0,0.0,0.0,0.0,0.0,0.0,0.0,0.0,0.0,0.0,0.0,0.0,0.0,0.0,0.0,0.0,0.0,0.0,0.0,0.0,0.0,0.0,0.0,0.0,0.0,0.0,0.0,0.0,0.0,0.0,0.0,0.0,0.0,0.0,0.0,0.0,0.0,0.0,0.0,0.0,0.0,0.0,-1.9685,0.0,0.0,0.0,0.0,0.0,0.0,0.0,0.0,0.0,0.0,0.0,0.0,0.0,0.0,0.0,0.0,0.0,0.0,0.0,0.0,0.0,0.0,0.0,0.0,0.0,0.0,0.0,0.0,0.0,0.0,0.0,0.0,0.0,0.0,0.0,0.0,0.0,0.0,0.0,0.0,0.0,0.0,0.0,0.0,0.0,0.0,0.0,0.0,0.0,0.0,0.0,0.0,0.0,0.0,0.0,0.0,0.0,0.0,0.0,0.0,0.0,0.0,0.0,0.0,0.0,0.0,0.0,0.0,0.0,0.0,0.0,0.0,0.0,0.0,0.0,0.0,0.0,0.0,0.0,0.0,0.0,0.0,0.0,0.0,0.0,0.0,0.0,0.0,0.0,0.0,0.0,0.0,0.0,0.0,0.0,0.0,0.0,0.0,0.0,0.0,0.0,0.0,0.0,0.0,0.0,0.0,0.0,0.0,0.0,0.0,-2.0476,-2.0715,-2.1079,-2.1242,-2.1142,0.0,0.0,0.0,0.0,0.0,0.0,0.0,0.0,0.0,0.0,0.0,0.0,0.0,0.0,0.0,0.0,0.0,0.0,0.0,0.0,0.0,0.0,0.0,0.0,0.0,0.0,0.0,0.0,0.0,0.0,0.0,0.0,0.0,0.0,0.0,0.0,0.0,0.0,0.0,0.0,0.0,0.0,0.0,0.0,0.0,0.0,0.0,0.0,0.0,0.0,0.0,0.0,0.0,0.0,0.0,0.0,0.0,0.0,0.0,0.0,0.0,0.0,0.0,0.0,0.0,0.0,0.0,0.0,0.0,0.0,0.0,0.0,0.0,0.0,0.0,0.0,0.0,0.0,0.0,0.0,0.0,0.0,0.0,0.0,0.0,0.0,0.0,0.0,0.0,0.0,0.0,0.0,0.0,0.0,0.0,0.0,0.0,0.0,0.0,0.0,0.0,0.0,0.0,0.0,0.0,0.0,0.0,0.0,0.0,0.0,0.0,0.0,-2.2498,-2.2811,-2.246,0.0,0.0,0.0,0.0,0.0,0.0,0.0,0.0,0.0,0.0,0.0,0.0,0.0,0.0,0.0,0.0,0.0,0.0,0.0,0.0,0.0,0.0,0.0,0.0,0.0,0.0,0.0,0.0,0.0,0.0,0.0,0.0,0.0,0.0,0.0,0.0,0.0,0.0,0.0,0.0,0.0,0.0,0.0,0.0,0.0,0.0,0.0,0.0,0.0,0.0,0.0,0.0,0.0,0.0,0.0,0.0,0.0,0.0,0.0,0.0,0.0,0.0,0.0,0.0,0.0,0.0,0.0,0.0,0.0,0.0,0.0,0.0,0.0,0.0,0.0,0.0,0.0,0.0,0.0,0.0,0.0,0.0,0.0,0.0,0.0,0.0,0.0,0.0,0.0,0.0,0.0,0.0,0.0,0.0,0.0,0.0,0.0,0.0,0.0,0.0,0.0,0.0,0.0,0.0,0.0,0.0,0.0,0.0,0.0,0.0,-2.1204,-2.2196,-2.2347,0.0,-2.2899,0.0,0.0,0.0,0.0,0.0,0.0,0.0,0.0,0.0,0.0,0.0,0.0,0.0,0.0,0.0,0.0,0.0,0.0,0.0,0.0,0.0,0.0,0.0,0.0,0.0,0.0,0.0,0.0,0.0,0.0,0.0,0.0,0.0,0.0,0.0,0.0,0.0,0.0,0.0,0.0,0.0,0.0,0.0,0.0,0.0,0.0,0.0,0.0,0.0,0.0,0.0,0.0,0.0,0.0,0.0,0.0,0.0,0.0,0.0,0.0,0.0,0.0,0.0,0.0,0.0,0.0,0.0,0.0,0.0,0.0,0.0,0.0,0.0,0.0,0.0,0.0,0.0,0.0,0.0,0.0,0.0,0.0,0.0,0.0,0.0,0.0,0.0,0.0,0.0,0.0,0.0,0.0,0.0,0.0,0.0,0.0,0.0,0.0,0.0,0.0,0.0,0.0,0.0,0.0,0.0,0.0,0.0,0.0,0.0,0.0,-2.2334,-2.2739,-2.3138,-2.3251,0.0,0.0,0.0,0.0,0.0,0.0,0.0,0.0,0.0,0.0,0.0,0.0,0.0,0.0,0.0,0.0,0.0,0.0,0.0,0.0,0.0,0.0,0.0,0.0,0.0,0.0,0.0,0.0,0.0,0.0,0.0,0.0,0.0,0.0,0.0,0.0,0.0,0.0,0.0,0.0,0.0,0.0,0.0,0.0,0.0,0.0,0.0,0.0,0.0,0.0,0.0,0.0,0.0,0.0,0.0,0.0,0.0,0.0,0.0,0.0,0.0,0.0,0.0,0.0,0.0,0.0,0.0,0.0,0.0,0.0,0.0,0.0,0.0,0.0,0.0,0.0,0.0,0.0,0.0,0.0,0.0,0.0,0.0,0.0,0.0,0.0,0.0,0.0,0.0,0.0,0.0,0.0,0.0,0.0,0.0,0.0,0.0,0.0,0.0,0.0,0.0,0.0,0.0,0.0,0.0,0.0,0.0,0.0,0.0,0.0,-2.2648,-2.3153,-2.3315,-2.3778,-2.3653,-2.2924,0.0,0.0,0.0,0.0,0.0,0.0,0.0,0.0,0.0,0.0,0.0,0.0,0.0,0.0,0.0,0.0,0.0,0.0,0.0,0.0,0.0,0.0,0.0,0.0,0.0,0.0,0.0,0.0,0.0,0.0,0.0,0.0,0.0,0.0,0.0,0.0,0.0,0.0,0.0,0.0,0.0,0.0,0.0,0.0,0.0,0.0,0.0,0.0,0.0,0.0,0.0,0.0,0.0,0.0,0.0,0.0,0.0,0.0,0.0,0.0,0.0,0.0,0.0,0.0,0.0,0.0,0.0,0.0,0.0,0.0,0.0,0.0,0.0,0.0,0.0,0.0,0.0,0.0,0.0,0.0,0.0,0.0,0.0,0.0,0.0,0.0,0.0,0.0,0.0,0.0,0.0,0.0,0.0,0.0,0.0,0.0,0.0,0.0,0.0,0.0,0.0,0.0,0.0,0.0,0.0,0.0,0.0,0.0,-2.2246,-2.2862,-2.3401,-2.3941,-2.3991,-2.3477,0.0,0.0,0.0,0.0,0.0,0.0,0.0,0.0,0.0,0.0,0.0,0.0,0.0,0.0,0.0,0.0,0.0,0.0,0.0,0.0,0.0,0.0,0.0,0.0,0.0,0.0,0.0,0.0,0.0,0.0,0.0,0.0,0.0,0.0,0.0,0.0,0.0,0.0,0.0,0.0,0.0,0.0,0.0,0.0,0.0,0.0,0.0,0.0,0.0,0.0,0.0,0.0,0.0,0.0,0.0,0.0,0.0,0.0,0.0,0.0,0.0,0.0,0.0,0.0,0.0,0.0,0.0,0.0,0.0,0.0,0.0,0.0,0.0,0.0,0.0,0.0,0.0,0.0,0.0,0.0,0.0,0.0,0.0,0.0,0.0,0.0,0.0,0.0,0.0,0.0,0.0,0.0,0.0,0.0,0.0,0.0,0.0,0.0,0.0,0.0,0.0,0.0,0.0,0.0,0.0,0.0,0.0,0.0,0.0,-2.2777,-2.374,-2.4318,-2.4519,-2.4531,-2.3828,0.0,0.0,0.0,0.0,0.0,0.0,0.0,0.0,0.0,0.0,0.0,0.0,0.0,0.0,0.0,0.0,0.0,0.0,0.0,0.0,0.0,0.0,0.0,0.0,0.0,0.0,0.0,0.0,0.0,0.0,0.0,0.0,0.0,0.0,0.0,0.0,0.0,0.0,0.0,0.0,0.0,0.0,0.0,0.0,0.0,0.0,0.0,0.0,0.0,0.0,0.0,0.0,0.0,0.0,0.0,0.0,0.0,0.0,0.0,0.0,0.0,0.0,0.0,0.0,0.0,0.0,0.0,0.0,0.0,0.0,0.0,0.0,0.0,0.0,0.0,0.0,0.0,0.0,0.0,0.0,0.0,0.0,0.0,0.0,0.0,0.0,0.0,0.0,0.0,0.0,0.0,0.0,0.0,0.0,0.0,0.0,0.0,0.0,0.0,0.0,0.0,0.0,0.0,0.0,0.0,0.0,0.0,0.0,0.0,-2.3665,0.0,-2.4996,-2.4833,-2.4833,-2.3941,0.0,0.0,0.0,0.0,0.0,0.0,0.0,0.0,0.0,0.0,0.0,0.0,0.0,0.0,0.0,0.0,0.0,0.0,0.0,0.0,0.0,0.0,0.0,0.0,0.0,0.0,0.0,0.0,0.0,0.0,0.0,0.0,0.0,0.0,0.0,0.0,0.0,0.0,0.0,0.0,0.0,0.0,0.0,0.0,0.0,0.0,0.0,0.0,0.0,0.0,0.0,0.0,0.0,0.0,0.0,0.0,0.0,0.0,0.0,0.0,0.0,0.0,0.0,0.0,0.0,0.0,0.0,0.0,0.0,0.0,0.0,0.0,0.0,0.0,0.0,0.0,0.0,0.0,0.0,0.0,0.0,0.0,0.0,0.0,0.0,0.0,0.0,0.0,0.0,0.0,0.0,0.0,0.0,0.0,0.0,0.0,0.0,0.0,0.0,0.0,0.0,0.0,0.0,0.0,0.0,0.0,0.0,0.0,-2.3175,-2.4757,-2.5322,-2.5385,-2.487,-2.4858,-2.3803,0.0,0.0,0.0,0.0,0.0,0.0,0.0,0.0,0.0,0.0,0.0,0.0,0.0,0.0,0.0,0.0,0.0,0.0,0.0,0.0,0.0,0.0,0.0,0.0,0.0,0.0,0.0,0.0,0.0,0.0,0.0,0.0,0.0,0.0,0.0,0.0,0.0,0.0,0.0,0.0,0.0,0.0,0.0,0.0,0.0,0.0,0.0,0.0,0.0,0.0,0.0,0.0,0.0,0.0,0.0,0.0,0.0,0.0,0.0,0.0,0.0,0.0,0.0,0.0,0.0,0.0,0.0,0.0,0.0,0.0,0.0,0.0,0.0,0.0,0.0,0.0,0.0,0.0,0.0,0.0,0.0,0.0,0.0,0.0,0.0,0.0,0.0,0.0,0.0,0.0,0.0,0.0,0.0,0.0,0.0,0.0,0.0,0.0,0.0,0.0,0.0,0.0,0.0,0.0,0.0,0.0,0.0,0.0,0.0,-2.5347,-2.59,-2.6113,-2.595,-2.5573,-2.4318,0.0,0.0,0.0,0.0,0.0,0.0,0.0,0.0,0.0,0.0,0.0,0.0,0.0,0.0,0.0,0.0,0.0,0.0,0.0,0.0,0.0,0.0,0.0,0.0,0.0,0.0,0.0,0.0,0.0,0.0,0.0,0.0,0.0,0.0,0.0,0.0,0.0,0.0,0.0,0.0,0.0,0.0,0.0,0.0,0.0,0.0,0.0,0.0,0.0,0.0,0.0,0.0,0.0,0.0,0.0,0.0,0.0,0.0,0.0,0.0,0.0,0.0,0.0,0.0,0.0,0.0,0.0,0.0,0.0,0.0,0.0,0.0,0.0,0.0,0.0,0.0,0.0,0.0,0.0,0.0,0.0,0.0,0.0,0.0,0.0,0.0,0.0,0.0,0.0,0.0,0.0,0.0,0.0,0.0,0.0,0.0,0.0,0.0,0.0,0.0,0.0,0.0,0.0,0.0,0.0,0.0,0.0,0.0,0.0,-2.6829,-2.7193,-2.7281,-2.708,-2.6327,-2.487,-2.2698,0.0,0.0,0.0,0.0,0.0,0.0,0.0,0.0,0.0,0.0,0.0,0.0,0.0,0.0,0.0,0.0,0.0,0.0,0.0,0.0,0.0,0.0,0.0,0.0,0.0,0.0,0.0,0.0,0.0,0.0,0.0,0.0,0.0,0.0,0.0,0.0,0.0,0.0,0.0,0.0,0.0,0.0,0.0,0.0,0.0,0.0,0.0,0.0,0.0,0.0,0.0,0.0,0.0,0.0,0.0,0.0,0.0,0.0,0.0,0.0,0.0,0.0,0.0,0.0,0.0,0.0,0.0,0.0,0.0,0.0,0.0,0.0,0.0,0.0,0.0,0.0,0.0,0.0,0.0,0.0,0.0,0.0,0.0,0.0,0.0,0.0,0.0,0.0,0.0,0.0,0.0,0.0,0.0,0.0,0.0,0.0,0.0,0.0,0.0,0.0,0.0,0.0,0.0,0.0,0.0,0.0,0.0,0.0,-2.9038,-2.9126,-2.8875,-2.826,-2.7193,-2.5536,0.0,0.0,0.0,0.0,0.0,0.0,0.0,0.0,0.0,0.0,0.0,0.0,0.0,0.0,0.0,0.0,0.0,0.0,0.0,0.0,0.0,0.0,0.0,0.0,0.0,0.0,0.0,0.0,0.0,0.0,0.0,0.0,0.0,0.0,0.0,0.0,0.0,0.0,0.0,0.0,0.0,0.0,0.0,0.0,0.0,0.0,0.0,0.0,0.0,0.0,0.0,0.0,0.0,0.0,0.0,0.0,0.0,0.0,0.0,0.0,0.0,0.0,0.0,0.0,0.0,0.0,0.0,0.0,0.0,0.0,0.0,0.0,0.0,0.0,0.0,0.0,0.0,0.0,0.0,0.0,0.0,0.0,0.0,0.0,0.0,0.0,0.0,0.0,0.0,0.0,0.0,0.0,0.0,0.0,0.0,0.0,0.0,0.0,0.0,0.0,0.0,0.0,0.0,0.0,0.0,0.0,0.0,0.0,0.0,-3.0645,-3.1562,-3.1336,-3.0005,-2.8875,-2.7055,0.0,0.0,0.0,0.0,0.0,0.0,0.0,0.0,0.0,0.0,0.0,0.0,0.0,0.0,0.0,0.0,0.0,0.0,0.0,0.0,0.0,0.0,0.0,0.0,0.0,0.0,0.0,0.0,0.0,0.0,0.0,0.0,0.0,0.0,0.0,0.0,0.0,0.0,0.0,0.0,0.0,0.0,0.0,0.0,0.0,0.0,0.0,0.0,0.0,0.0,0.0,0.0,0.0,0.0,0.0,0.0,0.0,0.0,0.0,0.0,0.0,0.0,0.0,0.0,0.0,0.0,0.0,0.0,0.0,0.0,0.0,0.0,0.0,0.0,0.0,0.0,0.0,0.0,0.0,0.0,0.0,0.0,0.0,0.0,0.0,0.0,0.0,0.0,0.0,0.0,0.0,0.0,0.0,0.0,0.0,0.0,0.0,0.0,0.0,0.0,0.0,0.0,0.0,0.0,0.0,0.0,0.0,0.0,-2.9189,-3.1687,-3.3068,-3.3206,-3.2026,-3.0244,-2.8109,0.0,0.0,0.0,0.0,0.0,0.0,0.0,0.0,0.0,0.0,0.0,0.0,0.0,0.0,0.0,0.0,0.0,0.0,0.0,0.0,0.0,0.0,0.0,0.0,0.0,0.0,0.0,0.0,0.0,0.0,0.0,0.0,0.0,0.0,0.0,0.0,0.0,0.0,0.0,0.0,0.0,0.0,0.0,0.0,0.0,0.0,0.0,0.0,0.0,0.0,0.0,0.0,0.0,0.0,0.0,0.0,0.0,0.0,0.0,0.0,0.0,0.0,0.0,0.0,0.0,0.0,0.0,0.0,0.0,0.0,0.0,0.0,0.0,0.0,0.0,0.0,0.0,0.0,0.0,0.0,0.0,0.0,0.0,0.0,0.0,0.0,0.0,0.0,0.0,0.0,0.0,0.0,0.0,0.0,0.0,0.0,0.0,0.0,0.0,0.0,0.0,0.0,0.0,0.0,0.0,0.0,0.0,0.0,-3.0018,-3.2265,-3.3897,-3.4487,-3.3935,-3.1424,-2.8938,0.0,0.0,0.0,0.0,0.0,0.0,0.0,0.0,0.0,0.0,0.0,0.0,0.0,0.0,0.0,0.0,0.0,0.0,0.0,0.0,0.0,0.0,0.0,0.0,0.0,0.0,0.0,0.0,0.0,0.0,0.0,0.0,0.0,0.0,0.0,0.0,0.0,0.0,0.0,0.0,0.0,0.0,0.0,0.0,0.0,0.0,0.0,0.0,0.0,0.0,0.0,0.0,0.0,0.0,0.0,0.0,0.0,0.0,0.0,0.0,0.0,0.0,0.0,0.0,0.0,0.0,0.0,0.0,0.0,0.0,0.0,0.0,0.0,0.0,0.0,0.0,0.0,0.0,0.0,0.0,0.0,0.0,0.0,0.0,0.0,0.0,0.0,0.0,0.0,0.0,0.0,0.0,0.0,0.0,0.0,0.0,0.0,0.0,0.0,0.0,0.0,0.0,0.0,0.0,0.0,0.0,0.0,0.0,-3.0218,-3.2817,-3.4085,-3.4765,-3.4831,-3.2789,-3.0322,0.0,0.0,0.0,0.0,0.0,0.0,0.0,0.0,0.0,0.0,0.0,0.0,0.0,0.0,0.0,0.0,0.0,0.0,0.0,0.0,0.0,0.0,0.0,0.0,0.0,0.0,0.0,0.0,0.0,0.0,0.0,0.0,0.0,0.0,0.0,0.0,0.0,0.0,0.0,0.0,0.0,0.0,0.0,0.0,0.0,0.0,0.0,0.0,-2.1237,0.0,0.0,0.0,0.0,0.0,0.0,0.0,0.0,0.0,0.0,0.0,0.0,0.0,0.0,0.0,0.0,0.0,0.0,0.0,0.0,0.0,0.0,0.0,0.0,0.0,0.0,0.0,0.0,0.0,0.0,0.0,0.0,0.0,0.0,0.0,0.0,0.0,0.0,0.0,0.0,0.0,0.0,0.0,0.0,0.0,0.0,0.0,0.0,0.0,0.0,0.0,0.0,0.0,0.0,0.0,0.0,0.0,0.0,0.0,-3.1036,-3.3177,-3.4502,-3.5277,-3.5391,-3.3777,-3.1406,0.0,0.0,0.0,0.0,0.0,0.0,0.0,0.0,0.0,0.0,0.0,0.0,0.0,0.0,0.0,0.0,0.0,0.0,0.0,0.0,0.0,0.0,0.0,0.0,0.0,0.0,0.0,0.0,0.0,0.0,0.0,0.0,0.0,0.0,0.0,0.0,0.0,0.0,0.0,0.0,0.0,0.0,0.0,0.0,0.0,0.0,0.0,0.0,0.0,0.0,0.0,0.0,0.0,0.0,0.0,0.0,0.0,0.0,0.0,0.0,0.0,0.0,0.0,0.0,0.0,0.0,0.0,0.0,0.0,0.0,0.0,0.0,0.0,0.0,0.0,0.0,0.0,0.0,0.0,0.0,0.0,0.0,0.0,0.0,0.0,0.0,0.0,0.0,0.0,0.0,0.0,0.0,0.0,0.0,0.0,0.0,0.0,0.0,0.0,0.0,0.0,0.0,0.0,0.0,0.0,0.0,0.0,-2.9817,-3.206,-3.3632,-3.5066,-3.5898,-3.596,-3.4454,-3.2239,-2.9327,0.0,0.0,0.0,0.0,0.0,0.0,0.0,0.0,0.0,0.0,0.0,0.0,0.0,0.0,0.0,0.0,0.0,0.0,0.0,0.0,0.0,0.0,0.0,0.0,0.0,0.0,0.0,0.0,0.0,0.0,0.0,0.0,0.0,0.0,0.0,0.0,0.0,0.0,-1.9879,-2.0575,0.0,0.0,0.0,0.0,0.0,0.0,0.0,0.0,-2.3245,0.0,0.0,0.0,0.0,0.0,0.0,0.0,0.0,0.0,0.0,0.0,0.0,0.0,0.0,0.0,0.0,0.0,0.0,0.0,0.0,0.0,0.0,0.0,0.0,0.0,0.0,0.0,0.0,0.0,0.0,0.0,0.0,0.0,0.0,0.0,0.0,0.0,0.0,0.0,0.0,0.0,0.0,0.0,0.0,0.0,0.0,0.0,0.0,0.0,0.0,0.0,0.0,0.0,0.0,0.0,0.0,-2.8392,-3.062,-3.2815,-3.4966,-3.567,-3.621,-3.6592,-3.447,-3.2439,-3.0487,0.0,0.0,0.0,0.0,0.0,0.0,0.0,0.0,0.0,0.0,0.0,0.0,0.0,0.0,0.0,0.0,0.0,0.0,0.0,0.0,0.0,0.0,0.0,0.0,0.0,0.0,0.0,0.0,0.0,0.0,0.0,0.0,0.0,0.0,0.0,0.0,0.0,0.0,0.0,-2.0754,-2.13,0.0,0.0,0.0,0.0,0.0,0.0,0.0,0.0,-2.5006,0.0,0.0,0.0,0.0,0.0,0.0,0.0,0.0,0.0,0.0,0.0,0.0,0.0,0.0,0.0,0.0,0.0,0.0,0.0,0.0,0.0,0.0,0.0,0.0,0.0,0.0,0.0,0.0,0.0,0.0,0.0,0.0,0.0,0.0,0.0,0.0,0.0,0.0,0.0,0.0,0.0,0.0,0.0,0.0,0.0,0.0,0.0,0.0,0.0,0.0,0.0,0.0,0.0,0.0,0.0,-2.8492,-3.1089,-3.3274,-3.4815,-3.6052,-3.6612,-3.6537,-3.4776,-3.2897,0.0,0.0,0.0,0.0,0.0,0.0,0.0,0.0,0.0,0.0,0.0,0.0,0.0,0.0,0.0,0.0,0.0,0.0,0.0,0.0,0.0,0.0,0.0,0.0,0.0,0.0,0.0,0.0,0.0,0.0,0.0,0.0,0.0,0.0,0.0,0.0,0.0,0.0,0.0,0.0,-2.2129,-2.2608,-2.2786,0.0,0.0,0.0,0.0,0.0,0.0,-2.5992,-2.6686,0.0,0.0,0.0,0.0,0.0,0.0,0.0,0.0,0.0,0.0,0.0,0.0,0.0,0.0,0.0,0.0,0.0,0.0,0.0,0.0,0.0,0.0,0.0,0.0,0.0,0.0,0.0,0.0,0.0,0.0,0.0,0.0,0.0,0.0,0.0,0.0,0.0,0.0,0.0,0.0,0.0,0.0,0.0,0.0,0.0,0.0,0.0,0.0,0.0,0.0,0.0,0.0,0.0,0.0,0.0,-2.8587,-3.1659,-3.3826,-3.4977,-3.6424,-3.6927,-3.6494,-3.4955,-3.3149,0.0,0.0,0.0,0.0,0.0,0.0,0.0,0.0,0.0,0.0,0.0,0.0,0.0,0.0,0.0,0.0,0.0,0.0,0.0,0.0,0.0,0.0,0.0,0.0,0.0,0.0,0.0,0.0,0.0,0.0,0.0,0.0,0.0,0.0,0.0,0.0,0.0,0.0,0.0,0.0,0.0,-2.4079,-2.428,-2.4175,0.0,0.0,0.0,0.0,-2.6302,-2.74,0.0,0.0,0.0,0.0,0.0,0.0,0.0,0.0,0.0,0.0,0.0,0.0,0.0,0.0,0.0,0.0,0.0,0.0,0.0,0.0,0.0,0.0,0.0,0.0,0.0,0.0,0.0,0.0,0.0,0.0,0.0,0.0,0.0,0.0,0.0,0.0,0.0,0.0,0.0,0.0,0.0,0.0,0.0,0.0,0.0,0.0,0.0,0.0,0.0,0.0,0.0,0.0,0.0,0.0,0.0,0.0,-2.9401,-3.243,-3.4873,-3.6535,-3.685,-3.6985,-3.7028,-3.4341,-3.2321,0.0,0.0,0.0,0.0,0.0,0.0,0.0,0.0,0.0,0.0,0.0,0.0,0.0,0.0,0.0,0.0,0.0,0.0,0.0,0.0,0.0,0.0,0.0,0.0,0.0,0.0,0.0,0.0,0.0,0.0,0.0,0.0,0.0,0.0,0.0,0.0,0.0,0.0,0.0,0.0,0.0,-2.5192,-2.5381,-2.5845,-2.6177,0.0,0.0,-2.7294,-2.8608,-2.8713,0.0,0.0,0.0,0.0,0.0,0.0,0.0,0.0,0.0,0.0,0.0,0.0,0.0,0.0,0.0,0.0,0.0,0.0,0.0,0.0,0.0,0.0,0.0,0.0,0.0,0.0,0.0,0.0,0.0,0.0,0.0,0.0,0.0,0.0,0.0,0.0,0.0,0.0,0.0,0.0,0.0,0.0,0.0,0.0,0.0,0.0,0.0,0.0,0.0,0.0,0.0,0.0,0.0,0.0,0.0,-2.7967,-2.9837,-3.2231,-3.4186,-3.5674,-3.6131,-3.6294,-3.6039,-3.4203,-3.2593,0.0,0.0,0.0,0.0,0.0,0.0,0.0,0.0,0.0,0.0,0.0,0.0,0.0,0.0,0.0,0.0,0.0,0.0,0.0,0.0,0.0,0.0,0.0,0.0,0.0,0.0,0.0,0.0,0.0,0.0,0.0,0.0,0.0,0.0,0.0,0.0,0.0,0.0,0.0,0.0,0.0,0.0,-2.7223,-2.7815,0.0,0.0,0.0,-2.9439,-3.0398,0.0,0.0,0.0,0.0,0.0,0.0,0.0,0.0,0.0,0.0,0.0,0.0,0.0,0.0,0.0,0.0,0.0,0.0,0.0,0.0,0.0,0.0,0.0,0.0,0.0,0.0,0.0,0.0,0.0,0.0,0.0,0.0,0.0,0.0,0.0,0.0,0.0,0.0,0.0,0.0,0.0,0.0,0.0,0.0,0.0,0.0,0.0,0.0,0.0,0.0,0.0,0.0,0.0,0.0,0.0,0.0,0.0,-2.999,-3.2012,-3.3661,-3.4923,-3.5539,-3.5639,-3.5233,-3.4097,0.0,0.0,0.0,0.0,0.0,0.0,0.0,0.0,0.0,0.0,0.0,0.0,0.0,0.0,0.0,0.0,0.0,0.0,0.0,0.0,0.0,0.0,0.0,0.0,0.0,0.0,0.0,-2.1206,0.0,0.0,0.0,0.0,0.0,0.0,0.0,0.0,0.0,0.0,0.0,0.0,0.0,0.0,-2.7929,-2.9228,-2.9808,-3.0239,0.0,0.0,-3.1289,-3.1882,-3.1936,-3.1589,0.0,0.0,0.0,0.0,0.0,0.0,0.0,0.0,0.0,0.0,0.0,0.0,0.0,0.0,0.0,0.0,0.0,0.0,0.0,0.0,0.0,0.0,0.0,0.0,0.0,0.0,0.0,0.0,0.0,0.0,0.0,0.0,0.0,0.0,0.0,0.0,0.0,0.0,0.0,0.0,0.0,0.0,0.0,0.0,0.0,0.0,0.0,0.0,0.0,0.0,0.0,0.0,0.0,0.0,0.0,-2.9682,-3.2179,-3.4066,-3.5299,-3.5401,-3.547,-3.5507,-3.3711,-3.232,0.0,0.0,0.0,0.0,0.0,0.0,0.0,0.0,0.0,0.0,0.0,0.0,0.0,0.0,0.0,0.0,0.0,0.0,0.0,0.0,0.0,0.0,0.0,0.0,0.0,0.0,0.0,0.0,0.0,0.0,0.0,0.0,0.0,0.0,0.0,0.0,0.0,0.0,0.0,0.0,0.0,-2.9288,-3.1082,-3.185,-3.2433,0.0,0.0,-3.2523,-3.2838,-3.2552,-3.1842,-3.0675,0.0,0.0,0.0,0.0,0.0,0.0,0.0,0.0,0.0,0.0,0.0,0.0,0.0,0.0,0.0,0.0,0.0,0.0,0.0,0.0,0.0,0.0,0.0,0.0,0.0,0.0,0.0,0.0,0.0,0.0,0.0,0.0,0.0,0.0,0.0,0.0,0.0,0.0,0.0,0.0,0.0,0.0,0.0,0.0,0.0,0.0,0.0,0.0,0.0,0.0,0.0,0.0,0.0,-2.8985,-2.9653,-3.1772,-3.3499,-3.4704,-3.4928,-3.4981,-3.5049,-3.4118,-3.2921,0.0,0.0,0.0,0.0,0.0,0.0,0.0,0.0,0.0,0.0,0.0,0.0,0.0,0.0,0.0,0.0,0.0,0.0,0.0,0.0,0.0,0.0,0.0,0.0,0.0,0.0,0.0,0.0,-2.2657,-2.2526,-2.257,0.0,0.0,0.0,0.0,0.0,0.0,0.0,0.0,0.0,0.0,-3.0233,-3.1754,-3.2878,0.0,0.0,-3.4032,-3.3906,-3.375,-3.3017,-3.2019,-3.0717,-2.9654,0.0,0.0,0.0,0.0,0.0,0.0,0.0,0.0,0.0,0.0,0.0,0.0,0.0,0.0,0.0,0.0,0.0,0.0,0.0,0.0,0.0,0.0,0.0,0.0,0.0,0.0,0.0,0.0,0.0,0.0,0.0,0.0,0.0,0.0,0.0,0.0,0.0,0.0,0.0,0.0,0.0,0.0,0.0,0.0,0.0,0.0,0.0,0.0,0.0,0.0,0.0,0.0,-2.8985,-3.0176,-3.1743,-3.3137,-3.4452,-3.4631,-3.475,-3.4817,-3.4416,-3.3386,0.0,0.0,0.0,0.0,0.0,0.0,0.0,0.0,0.0,0.0,0.0,0.0,0.0,0.0,0.0,0.0,0.0,0.0,0.0,0.0,0.0,0.0,0.0,0.0,0.0,0.0,0.0,0.0,-2.3345,-2.3068,-2.3171,0.0,0.0,0.0,0.0,0.0,0.0,0.0,0.0,0.0,0.0,-3.0928,-3.2344,-3.3543,-3.4449,-3.4868,-3.4853,-3.4614,-3.4074,-3.3169,-3.2063,-3.0788,0.0,0.0,0.0,0.0,0.0,0.0,0.0,0.0,0.0,0.0,0.0,0.0,0.0,0.0,0.0,0.0,0.0,0.0,0.0,0.0,0.0,0.0,0.0,0.0,0.0,0.0,0.0,0.0,0.0,0.0,-2.2064,0.0,0.0,0.0,0.0,0.0,0.0,0.0,0.0,0.0,0.0,0.0,0.0,0.0,0.0,0.0,0.0,0.0,0.0,0.0,0.0,0.0,0.0,-2.9,-3.1424,-3.215,-3.3216,-3.4639,-3.4698,-3.4898,-3.5148,-3.4575,-3.3642,-3.2422,0.0,0.0,0.0,0.0,0.0,0.0,0.0,0.0,0.0,0.0,0.0,0.0,0.0,0.0,0.0,0.0,0.0,0.0,0.0,0.0,0.0,0.0,0.0,0.0,0.0,0.0,-2.3482,-2.329,-2.3275,0.0,0.0,0.0,0.0,0.0,0.0,0.0,0.0,0.0,0.0,-2.9958,-3.138,-3.2998,-3.3802,-3.4456,-3.529,-3.4906,-3.4262,-3.3619,-3.2946,-3.2122,0.0,0.0,0.0,0.0,0.0,0.0,0.0,0.0,0.0,0.0,0.0,0.0,0.0,0.0,0.0,0.0,0.0,0.0,0.0,0.0,0.0,0.0,0.0,0.0,0.0,0.0,0.0,-2.4099,-2.3876,0.0,0.0,0.0,0.0,0.0,0.0,0.0,0.0,0.0,0.0,0.0,-2.693,-2.7977,0.0,0.0,0.0,0.0,0.0,0.0,0.0,0.0,0.0,0.0,0.0,0.0,-2.9668,-3.1054,-3.2543,-3.3805,-3.4787,-3.4935,-3.5096,-3.5213,-3.5135,-3.3826,-3.1255,0.0,0.0,0.0,0.0,0.0,0.0,0.0,0.0,0.0,0.0,0.0,0.0,0.0,0.0,0.0,0.0,0.0,0.0,0.0,0.0,0.0,0.0,0.0,0.0,0.0,-2.3896,0.0,0.0,0.0,0.0,0.0,0.0,0.0,0.0,0.0,0.0,0.0,-2.7868,-2.9581,-3.0671,-3.1663,-3.2616,-3.3348,-3.3841,0.0,0.0,0.0,0.0,0.0,0.0,0.0,0.0,0.0,0.0,0.0,0.0,0.0,0.0,-3.0736,-3.0432,-3.0383,-3.0432,-3.0545,0.0,0.0,0.0,0.0,0.0,0.0,0.0,0.0,0.0,0.0,0.0,0.0,0.0,0.0,-2.5062,0.0,-2.3854,0.0,0.0,0.0,0.0,0.0,0.0,0.0,0.0,-2.7506,-2.8093,-2.8263,-2.9428,-2.9984,0.0,-3.0038,-2.9665,0.0,0.0,0.0,0.0,0.0,0.0,0.0,0.0,-3.0279,-3.1479,-3.3006,-3.4221,-3.4957,-3.5148,-3.5228,-3.5294,-3.52,-3.3903,-3.1285,-2.952,-2.7874,0.0,0.0,0.0,0.0,0.0,0.0,0.0,0.0,0.0,0.0,0.0,0.0,0.0,0.0,0.0,0.0,0.0,0.0,0.0,0.0,0.0,0.0,0.0,-2.364,0.0,0.0,0.0,0.0,0.0,0.0,0.0,0.0,0.0,-2.7386,-2.8033,-2.8925,-3.019,-3.1049,-3.1631,-3.2108,0.0,0.0,0.0,0.0,0.0,0.0,0.0,-3.1845,-3.161,-3.1328,-3.1285,-3.175,-3.2237,-3.2531,-3.2531,0.0,0.0,-3.1806,-3.1662,-3.1694,-3.1837,-3.1931,-3.1978,-3.2101,-3.2148,-3.221,0.0,0.0,0.0,0.0,0.0,0.0,0.0,0.0,-2.6371,-2.6126,0.0,-2.4531,0.0,0.0,0.0,0.0,0.0,-2.4833,0.0,0.0,-2.8276,-2.8557,-2.8919,-3.0247,-3.1068,-3.1382,-3.1521,-3.1555,-3.1395,-2.9058,0.0,0.0,0.0,0.0,0.0,0.0,-3.0895,-3.2757,-3.3574,-3.4416,-3.5198,-3.5228,-3.5279,-3.5504,-3.4846,-3.3873,-3.2572,-3.121,-2.9609,-2.7775,-2.6976,0.0,0.0,0.0,0.0,0.0,0.0,0.0,0.0,0.0,0.0,0.0,0.0,0.0,0.0,0.0,0.0,0.0,0.0,0.0,0.0,-2.4055,0.0,0.0,0.0,0.0,0.0,0.0,0.0,0.0,0.0,0.0,-2.784,-2.9364,-3.0507,-3.0537,0.0,0.0,0.0,0.0,-3.2526,-3.2688,-3.2688,-3.2762,-3.2938,-3.2562,-3.2287,-3.2586,0.0,0.0,-3.3626,-3.4034,-3.4251,-3.4284,-3.4464,-3.4151,-3.2461,-3.2313,-3.242,-3.2512,-3.2681,-3.2706,-3.2779,-3.3001,-3.3012,-2.636,0.0,0.0,0.0,0.0,-2.5605,-2.6164,-2.6396,-2.6465,-2.6364,-2.6176,-2.5448,0.0,0.0,0.0,0.0,0.0,0.0,-2.7696,-2.8665,-2.9693,-3.047,-3.1055,-3.2047,-3.263,-3.2904,-3.2904,-3.2672,-3.2179,-3.1018,-2.9566,-2.7882,0.0,0.0,0.0,0.0,-3.0955,-3.3069,-3.3828,-3.4545,-3.5424,-3.5439,-3.5439,-3.5489,-3.4846,-3.4083,-3.3245,-3.1943,-3.0537,-2.9071,-2.7919,0.0,0.0,0.0,0.0,0.0,0.0,0.0,0.0,0.0,0.0,0.0,0.0,0.0,0.0,0.0,0.0,0.0,0.0,0.0,-2.4894,-2.4894,-2.5152,0.0,0.0,0.0,0.0,0.0,0.0,0.0,0.0,0.0,-3.025,-3.06,-3.1051,0.0,0.0,-3.1883,-3.1883,-3.2049,-3.2213,-3.2296,-3.2353,0.0,0.0,-3.2671,-3.2765,-3.3156,-3.3575,-3.3933,-3.4101,-3.4448,-3.4739,-3.4756,-3.4947,-3.4938,-3.4479,-3.4316,-3.43,-3.4409,-3.4518,-3.4518,-3.4564,-3.4593,-3.4593,-2.8529,-2.72,-2.6424,-2.6,-2.5928,-2.6619,-2.7034,-2.7118,-2.7118,-2.6992,-2.6823,-2.6189,-2.5636,-2.5134,-2.5199,0.0,0.0,0.0,-2.9026,-3.0097,-3.1043,-3.1875,-3.2528,-3.3197,-3.3633,-3.3833,-3.3652,-3.3398,-3.3253,-3.2416,-3.1474,-3.0323,0.0,0.0,-2.9342,-3.0616,-3.19,-3.3253,-3.4222,-3.4942,-3.5489,-3.5489,-3.5489,-3.5489,-3.51,-3.4442,-3.3529,-3.2751,-3.1465,-2.9654,-2.8562,-2.756,0.0,0.0,0.0,0.0,0.0,0.0,0.0,0.0,0.0,0.0,0.0,-2.4673,-2.5259,0.0,0.0,0.0,-2.4616,-2.5191,-2.5944,-2.592,0.0,0.0,0.0,0.0,0.0,0.0,0.0,-2.9537,-3.0452,-3.1249,-3.1721,-3.1858,-3.2074,-3.2542,-3.2833,-3.3001,-3.3001,0.0,-3.3115,-3.327,-3.3095,-3.302,-3.3318,-3.326,-3.3282,-3.3781,-3.425,-3.4546,-3.4594,-3.4835,-3.5041,-3.5105,-3.5245,-3.54,-3.54,-3.5337,-3.5321,-3.5383,-3.5429,-3.5412,-3.5412,-3.5412,-3.5412,-3.0419,-2.9829,-2.8475,-2.7939,-2.7865,-2.8061,-2.8172,-2.8172,-2.8172,-2.7896,-2.7369,-2.6829,-2.6289,-2.5799,-2.6013,0.0,-2.8326,-2.8889,-3.0106,-3.1875,-3.2261,-3.278,-3.3293,-3.3854,-3.4196,-3.4385,-3.3819,-3.3804,-3.424,-3.336,-3.284,-3.2752,-3.1582,-3.0719,-3.0206,-3.2167,-3.3238,-3.3434,-3.4722,-3.5444,-3.5489,-3.5459,-3.5429,-3.5415,-3.537,-3.4756,-3.3574,-3.338,-3.2213,-2.9804,-2.8921,-2.7919,-2.6647,0.0,0.0,0.0,0.0,0.0,0.0,0.0,0.0,0.0,0.0,0.0,0.0,0.0,0.0,0.0,-2.542,0.0,-2.7126,-2.7001,0.0,0.0,0.0,-2.7842,-2.7842,-2.8982,-2.9845,-3.0037,0.0,0.0,-3.2238,-3.2839,-3.3307,-3.3501,-3.4063,-3.4376,-3.4434,-3.4503,-3.4743,-3.4877,-3.4478,-3.4218,-3.4266,-3.3902,-3.3643,-3.4137,-3.4574,-3.4681,-3.4758,-3.4914,-3.509,-3.5023,-3.5261,-3.5256,-3.529,-3.5262,-3.5408,-3.5284,-3.538,-3.5476,-3.5425,-3.5341,-3.5273,-3.084,-3.0922,-2.9764,-2.8813,-2.8074,-2.8561,-2.8737,-2.8725,-2.8725,-2.8662,-2.8499,-2.7959,-2.7645,-2.7507,-2.7708,-2.8216,-2.8982,-2.991,-3.0961,-3.2234,-3.3,-3.3571,-3.4129,-3.4274,-3.4346,-3.4399,-3.4254,-3.4074,-3.3871,-3.363,-3.3284,-3.2974,-3.2818,-3.2405,-3.1783,-3.2273,-3.3062,-3.4185,-3.4562,-3.4981,-3.5474,-3.4996,-3.4711,-3.4711,-3.4233,-3.3814,-3.3484,-3.2527,-3.1465,-3.0313,-2.8712,-2.744,-2.6632,-2.5824,0.0,0.0,0.0,0.0,0.0,0.0,0.0,0.0,0.0,-2.6557,-2.7203,0.0,-2.6565,0.0,-2.683,-2.7338,-2.8099,-2.8136,0.0,0.0,-2.8971,-2.9066,-2.9098,-2.9369,-2.9766,-3.0322,-3.0672,-3.1102,-3.1709,-3.2428,-3.3115,-3.3698,-3.3672,-3.3621,-3.3745,-3.4257,-3.4736,-3.4936,-3.4846,-3.4663,-3.4293,-3.3534,-3.3047,-3.321,-3.3345,-3.3478,-3.3495,-3.3627,-3.3732,-3.3715,-3.3818,-3.3905,-3.3938,-3.3947,-3.3947,-3.3938,-3.437,-3.4759,-3.4759,-3.4353,-3.3938,-3.0989,-3.1298,-3.0244,-2.944,-2.8875,-2.9189,-2.9315,-2.9315,-2.9315,-2.9176,-2.8888,-2.8335,-2.8109,-2.8122,-2.8642,-2.9108,-2.9666,-3.0796,-3.1853,-3.2778,-3.3435,-3.3951,-3.4414,-3.4414,-3.4414,-3.4414,-3.4481,-3.4426,-3.4156,-3.4259,-3.4212,-3.3972,-3.4193,-3.4092,-3.3704,-3.3406,-3.3677,-3.4472,-3.4771,-3.4966,-3.5026,-3.4681,-3.4337,-3.4053,-3.3694,-3.3215,-3.2647,-3.1855,-3.0806,-2.925,-2.7889,-2.6841,-2.6183,-2.5241,-2.4702,0.0,0.0,0.0,0.0,0.0,0.0,0.0,0.0,0.0,0.0,0.0,-2.7771,-2.8302,-2.8447,-2.8882,-2.9636,-2.9366,-2.9231,-2.9677,-2.9665,-2.9621,-2.9621,-2.991,-3.0309,-3.0725,-3.1032,-3.137,-3.19,-3.2336,-3.2804,-3.321,-3.3161,-3.3303,-3.4101,-3.4683,-3.4969,-3.4748,-3.4576,-3.4252,-3.3724,-3.3197,-3.2873,-3.2944,-3.3031,-3.3134,-3.3177,-3.3237,-3.3262,-3.3322,-3.3364,-3.3389,-3.3389,-3.3389,-3.3389,-3.3406,-3.3457,-3.3626,-3.3914,-3.3694,-3.3381,-3.0939,-3.1198,-3.0206,-2.9779,-2.9779,-2.9779,-2.9779,-2.9779,-2.9779,-2.9503,-2.9013,-2.8536,-2.8323,-2.8422,-2.9259,-2.9848,-3.0315,-3.1594,-3.2561,-3.3269,-3.3744,-3.4088,-3.4414,-3.4414,-3.4414,-3.4414,-3.4631,-3.4683,-3.475,-3.503,-3.5228,-3.5213,-3.5424,-3.5489,-3.5474,-3.4906,-3.4607,-3.4607,-3.5205,-3.5175,-3.4487,-3.4397,-3.4038,-3.341,-3.32,-3.2542,-3.1287,-3.112,-2.9924,-2.759,-2.6722,-2.6078,-2.5495,-2.4373,-2.4056,0.0,-2.4349,0.0,0.0,0.0,0.0,0.0,0.0,0.0,0.0,-2.8742,-2.9131,-2.9999,-3.0048,-3.0391,-3.1106,-3.0375,-2.9897,-3.0017,-2.9897,-2.9853,-2.9886,-3.0437,-3.0826,-3.0961,-3.1499,-3.1903,-3.1991,-3.2147,-3.2225,-3.2418,-3.2557,-3.306,-3.4366,-3.4938,-3.4972,-3.4415,-3.3917,-3.3458,-3.2879,-3.2627,-3.2538,-3.269,-3.2496,-3.2706,-3.2621,-3.2713,-3.2763,-3.2747,-3.2628,-3.2696,-3.2814,-3.2747,-3.2763,-3.2611,-3.2154,-3.2121,-3.2983,-3.3102,-3.3119,-3.0659,-3.0455,-2.9977,-2.9779,-2.9779,-2.9779,-2.9779,-2.9779,-2.9779,-2.9729,-2.9628,-2.9515,-2.9529,-2.9771,-3.0265,-3.0667,-3.1101,-3.1928,-3.2704,-3.3339,-3.373,-3.4088,-3.4414,-3.4414,-3.4414,-3.4414,-3.4631,-3.4765,-3.4868,-3.5082,-3.5294,-3.5439,-3.5504,-3.5489,-3.5489,0.0,0.0,0.0,-3.5429,-3.516,-3.4487,-3.3948,-3.3365,-3.2691,-3.1629,0.0,-2.9968,-2.8906,-2.7844,-2.6811,-2.5644,0.0,0.0,0.0,0.0,0.0,0.0,0.0,0.0,0.0,0.0,0.0,-2.9191,-3.0266,-3.0328,-3.0995,-3.1307,-3.0929,-3.0985,-3.0849,-3.0451,-3.0244,-3.0146,-3.0146,-3.0146,-3.013,-3.0103,-3.025,-3.0342,-3.0359,-3.0489,-3.0615,-3.0793,-3.0813,-3.1189,-3.1788,-3.205,-3.2217,-3.2513,-3.3504,-3.415,-3.4093,-3.3417,-3.2844,-3.232,-3.1237,-3.0679,-3.0588,-3.0137,-2.9922,-2.9989,-2.9939,-2.9871,-2.9922,-2.982,-2.9905,-2.9905,-2.9803,-3.0006,-2.9871,-2.9736,-3.0213,-3.2053,-3.2019,-3.1613,-3.035,0.0,-2.9939,-2.9779,0.0,-2.9779,-2.9779,-2.9779,-2.9779,-2.9779,-2.9779,-2.9779,-2.9946,-3.0164,-3.0546,-3.0986,-3.1482,-3.2187,-3.2846,-3.3452,-3.3785,-3.4142,-3.4414,-3.4414,-3.4414,-3.4414,-3.4683,-3.4802,-3.492,-3.5228,-3.5439,-3.5489,-3.5489,-3.5489,-3.5489,-3.5489,-3.5489,-3.5489,-3.5489,-3.5011,-3.4038,-3.3664,-3.2871,-3.1569,0.0,0.0,0.0,0.0,0.0,0.0,0.0,0.0,0.0,0.0,0.0,-2.5203,-2.5626,-2.5917,-2.5973,-2.7127,-2.7929,-2.8188,-2.9995,-3.1079,-3.0972,-3.1524,-3.1708,-3.1347,-3.1402,-3.1298,-3.0935,-3.0589,-3.0342,-3.0359,-3.0359,-3.0359,-3.0342,-3.0359,-3.0359,-3.0443,-3.0443,-3.0485,-3.0626,-3.0692,-3.074,-3.0855,-3.0969,-3.0965,-3.0763,-3.1968,-3.2864,-3.2211,-3.1479,-3.0914,-3.0583,-3.0032,-2.9458,-2.9499,-2.9228,-2.9045,-2.9011,-2.9011,-2.9011,-2.9011,-2.9011,-2.9011,-2.9011,-2.9011,-2.9011,-2.9011,-2.9011,-2.9336,-3.054,-3.0688,-3.0666,-2.9961,-3.0089,-2.9902,-2.9779,-2.9779,-2.9779,-2.9779,-2.9779,0.0,0.0,0.0,-2.9869,-3.0011,-3.0241,-3.0609,-3.1123,-3.1703,-3.2431,-3.3072,-3.3605,-3.3937,-3.4196,-3.4414,-3.4414,-3.4356,-3.4307,-3.4574,-3.4699,-3.4581,-3.4951,-3.5145,-3.516,-3.5145,-3.522,-3.5325,-3.5444,-3.5489,-3.5489,-3.5489,-3.4861,-3.3559,-3.3499,-3.2602,-3.0731,-3.0462,-2.9789,-2.8652,-2.8368,-2.7425,-2.5719,-2.56,-2.5453,-2.5002,-2.5047,-2.5468,-2.6317,-2.6541,-2.6776,-2.7195,-2.8073,-2.8828,-2.9215,-3.0527,-3.1336,-3.1295,-3.1539,-3.1638,-3.1523,-3.1533,-3.1527,-3.1411,-3.0849,-3.0468,-3.0468,-3.0468,-3.0468,-3.0468,-3.051,-3.0551,-3.0692,-3.0692,-3.0773,-3.0895,-3.0952,-3.0729,-3.0145,-3.0133,-2.9837,-2.9397,-3.0448,-3.1173,-3.0239,-2.9698,-2.911,-2.8991,-2.8856,-2.8789,-2.8772,-2.8636,-2.8569,-2.8621,-2.8586,-2.8569,-2.8433,-2.8569,-2.8518,-2.8535,-2.8503,-2.8621,-2.8605,-2.8676,-2.8747,-2.8815,-2.9323,-2.9797,-2.9671,-2.9332,-2.9661,-2.9779,-2.9779,-2.9779,-2.9779,-2.9779,-2.9779,-2.9779,-2.9792,-3.0011,-3.0228,-3.0622,-3.1061,-3.1495,-3.2169,-3.2717,-3.3227,0.0,-3.3922,-3.4196,-3.4414,-3.4414,-3.4176,-3.3864,-3.4044,-3.3864,-3.3502,-3.366,-3.3784,-3.3799,-3.3769,-3.4083,-3.4622,-3.5205,-3.5489,-3.5489,-3.5489,-3.4846,-3.3544,-3.3499,-3.2841,-3.1435,-3.0298,-2.937,-2.8622,-2.753,-2.6482,-2.5659,-2.5693,-2.5726,-2.5696,-2.5955,-2.6286,-2.6481,-2.682,-2.7179,-2.7506,-2.8301,-2.9453,-3.0915,-3.0839,-3.1104,-3.2175,-3.2458,-3.2282,-3.1659,-3.1543,-3.1312,-3.0775,-3.0551,-3.0468,-3.0468,-3.0468,-3.0468,-3.051,-3.0609,-3.0675,-3.0733,-3.0814,-3.0912,-3.0975,-3.1032,-3.0769,-3.0239,-2.9783,-2.9736,-2.9093,-2.9211,-2.9364,-2.9194,-2.9096,-2.9011,-2.8772,-2.8366,-2.8044,-2.7977,-2.7486,-2.7182,-2.725,-2.725,-2.725,-2.7063,-2.7233,-2.7182,-2.7148,-2.7097,-2.7318,-2.7386,-2.7469,-2.7533,-2.7568,-2.8167,-2.8802,-2.9352,-2.9143,-2.9636,-2.9779,-2.9779,-2.9779,-2.9779,-2.9779,-2.9779,-2.9779,-2.9779,-3.0011,-3.0228,-3.0596,-3.1048,-3.1643,-3.2155,-3.2846,-3.3353,-3.3744,-3.4074,-3.4158,-3.392,-3.3891,-3.3623,-3.3206,-3.3368,-3.3332,-3.3238,-3.3423,-3.3499,-3.3499,-3.3499,-3.3814,-3.4457,-3.4786,-3.513,-3.5489,-3.5489,-3.5026,-3.4053,-3.3679,-3.2871,-3.1511,-3.0582,-2.9789,-2.9146,-2.8203,-2.7415,-2.6804,-2.6477,-2.6423,-2.6642,-2.6842,-2.724,-2.784,-2.8084,-2.8351,-2.8769,-2.9349,-3.0018,-3.0872,-3.0683,-3.0749,-3.1368,-3.1461,-3.1371,-3.1073,-3.0981,-3.0849,-3.0543,-3.0468,-3.0468,-3.0468,-3.0551,-3.0609,-3.0609,-3.0749,-3.0831,-3.0855,-3.0895,-3.0992,-3.1112,-3.1112,-3.0639,-2.9702,-2.889,-2.8146,-2.7824,-2.7757,-2.7909,-2.8213,-2.8027,-2.7757,-2.7757,-2.7486,-2.7232,-2.7215,-2.6928,-2.6759,-2.6792,-2.6809,-2.6825,-2.6859,-2.6859,-2.6859,-2.6859,-2.694,-2.699,-2.7023,-2.7152,-2.723,-2.733,-2.7636,-2.8209,-2.9143,-2.9143,-2.9624,-2.9779,-2.9779,-2.9779,-2.9779,-2.9779,-2.9779,-2.9779,-2.9779,-3.0011,-3.0216,-3.052,-3.1048,-3.1629,-3.22,-3.2917,-3.3507,-3.3868,-3.4066,-3.3949,-3.3485,-3.334,-3.3033,-3.2591,-3.272,-3.2786,-3.2822,-3.2975,-3.3051,-3.3066,-3.32,-3.3529,-3.4023,-3.4188,-3.4592,-3.522,-3.528,-3.5011,-3.4487,-3.3829,-3.2931,-3.1809,-3.0941,-3.0268,-2.9789,-2.916,-2.8629,-2.8258,-2.7659,-2.7491,-2.7811,-2.7798,-2.8186,-2.9012,-2.9213,-2.947,-2.9897,-3.0215,-3.0443,-3.0468,-3.0468,-3.0468,-3.0468,-3.0468,-3.0468,-3.0468,-3.0501,-3.0485,-3.0468,-3.0468,-3.051,-3.051,-3.0651,-3.0692,-3.0733,-3.0855,-3.0935,-3.0975,-3.1015,-3.1112,-3.1151,-3.119,-3.0615,-2.9194,-2.7672,-2.6759,-2.6708,-2.6708,-2.6979,-2.7249,-2.7063,-2.681,-2.6708,-2.6742,-2.6775,-2.6742,-2.6759,-2.6792,-2.6876,-2.6926,-2.6942,-2.7007,-2.7023,-2.7023,-2.7055,-2.712,-2.7184,-2.7166,-2.7307,-2.7496,-2.7557,-2.7622,-2.7875,-2.9143,-2.9221,-2.9624,-2.9779,-2.9779,-2.9779,-2.9779,-2.9779,-2.9779,-2.9779,-2.9792,-3.0011,-3.0305,-3.0698,-3.1136,-3.1703,-3.2345,-3.2988,-3.3479,-3.3796,-3.3686,-3.3514,-3.342,-3.2861,-3.2392,-3.2071,-3.2073,-3.1974,-3.178,-3.1721,-3.1749,-3.1721,-3.2302,-3.2647,-3.2781,-3.3305,-3.3903,-3.4547,-3.4577,-3.4532,-3.4442,-3.3829,-3.3155,-3.2437,-3.118,-3.0477,-3.0417,-2.9819,-2.9567,-2.9607,-2.9179,-2.9046,-2.9169,-2.9045,-2.8966,-2.9121,-2.9499,-2.9897,-3.0274,-3.0426,-3.0485,-3.0468,-3.0468,-3.0468,-3.0468,-3.0468,-3.0468,-3.0468,-3.0468,-3.0468,-3.0468,-3.051,-3.0551,-3.0651,-3.0692,-3.0733,-3.0871,-3.0935,-3.0992,-3.0992,-3.1112,-3.119,-3.119,-3.1089,-3.0514,-2.9161,-2.7655,-2.6708,-2.6708,-2.6708,-2.6708,-2.6826,-2.6708,-2.6708,-2.6708,-2.6708,-2.6742,-2.6842,-2.6876,-2.6909,-2.6975,-2.7055,-2.7103,-2.7135,-2.7166,-2.7198,-2.723,-2.7293,-2.7355,-2.7417,-2.7522,-2.773,-2.7882,-2.7957,-2.8018,-2.9143,-2.9143,-2.9624,-2.9779,-2.9779,-2.9779,-2.9779,-2.9779,-2.9779,-2.9779,-2.9792,-2.9998,-3.0228,-3.0596,-3.1211,-3.179,-3.2245,-3.2542,-3.2942,-3.3268,-3.2998,-3.2701,-3.2309,-3.2077,-3.1784,-3.1515,-3.1471,-3.1516,-3.1511,-3.1467,-3.1467,-3.1482,-3.1809,-3.2123,-3.2497,-3.2781,-3.3245,-3.3888,-3.4292,-3.4472,-3.4442,-3.4233,-3.3769,-3.308,-3.2183,-3.1495,-3.1091,-3.0603,-3.0226,-3.0008,-2.9913,-2.9697,-2.9279,-2.9533,-2.9688,-2.9563,-2.9913,-3.0231,-3.0401,-3.0443,-3.0468,-3.0468,-3.0468,-3.0468,-3.0468,-3.0468,-3.0468,-3.0468,-3.0468,-3.0468,-3.0526,-3.0568,-3.0651,-3.0692,-3.0814,-3.0895,-3.0952,-3.1072,-3.1112,-3.1095,-3.1168,-3.119,-3.1038,-3.0412,-2.9685,-2.8873,-2.7655,-2.6742,-2.6708,-2.6708,-2.6708,-2.6708,-2.6708,-2.6708,-2.6691,-2.6792,-2.6842,-2.6909,-2.6957,-2.7055,-2.7103,-2.7215,-2.731,-2.7324,-2.7355,-2.7386,-2.7465,-2.7509,-2.76,-2.7659,-2.7777,-2.7979,-2.8109,-2.8109,-2.8035,-2.9143,-2.9143,-2.9636,-2.9779,-2.9779,-2.9779,-2.9779,-2.9779,-2.9779,-2.9779,-2.9779,-3.0088,-3.0203,-3.0302,-3.0974,-3.1489,-3.1874,-3.2041,-3.2252,-3.2582,-3.2335,-3.199,-3.154,-3.1322,-3.1214,-3.1146,-3.1102,-3.1249,-3.1467,-3.1467,-3.1467,-3.1467,-3.1467,-3.1764,-3.2198,-3.2243,-3.2572,-3.32,-3.3709,-3.4098,-3.4397,-3.4472,-3.4247,-3.3739,-3.2946,-3.2287,-3.1809,-3.1336,-3.0985,-3.0701,-3.0714,-3.0441,-2.9769,-3.0101,-3.0206,-2.9995,-3.0231,-3.0417,-3.0401,-3.0485,-3.0468,-3.0468,-3.0468,-3.0468,-3.051,-3.051,-3.0551,-3.0551,-3.0568,-3.0609,-3.0568,-3.0692,-3.0733,-3.0773,-3.0935,-3.1015,-3.1072,-3.1151,-3.119,-3.119,-3.119,-3.119,-3.0987,-3.0006,-2.9062,-2.8876,-2.7689,-2.6708,-2.6708,-2.6691,-2.6725,-2.6742,-2.6742,-2.6742,-2.6775,-2.6825,-2.6926,-2.7007,-2.7103,-2.723,-2.7293,-2.7434,-2.7526,-2.7569,-2.7587,-2.7647,-2.7707,-2.7777,-2.7864,-2.795,-2.8035,-2.8164,-2.8246,-2.8246,-2.8273,-2.9143,-2.9143,-2.9624,-2.9779,-2.9779,-2.9779,-2.9779,-2.9779,-2.9779,-2.9792,-2.9856,-3.0203,-3.0136,-2.9883,-3.0283,-3.086,-3.1486,-3.1483,-3.1698,-3.1954,-3.1671,-3.154,-3.1482,-3.0916,-3.0805,-3.1087,-3.1087,-3.1249,-3.1467,-3.1467,-3.1467,-3.1467,-3.1467,-3.1497,-3.1556,-3.1644,-3.1855,-3.2497,-3.2691,-3.323,-3.4292,-3.4442,-3.4457,-3.4277,-3.32,-3.2527,-3.2362,-3.2013,-3.1849,-3.2069,-3.1744,-3.1394,-3.1079,-3.0815,-3.0632,-3.0422,-3.0392,-3.0443,-3.0468,-3.0468,-3.0468,-3.0468,-3.0468,-3.051,-3.051,-3.0593,-3.0651,-3.0692,-3.079,-3.0814,-3.0733,-3.0814,-3.0895,-3.0935,-3.0975,-3.1055,-3.1151,-3.119,-3.119,-3.119,-3.119,-3.119,-3.114,-2.9905,-2.9178,-2.8791,-2.7672,-2.6725,-2.6691,-2.6691,-2.6742,-2.6842,-2.6876,-2.6893,-2.6893,-2.6975,-2.7055,-2.7166,-2.7261,-2.7434,-2.7557,-2.7659,-2.7719,-2.7806,-2.7882,-2.794,-2.7968,-2.8053,-2.8119,-2.8174,-2.8228,-2.8327,-2.838,-2.8398,-2.838,-2.904,-2.9353,-2.9624,-2.9779,-2.9779,-2.9779,-2.9779,-2.9779,-2.9779,-2.9869,-2.9947,-2.9859,-2.9938,-3.0144,-2.9764,-3.0117,-3.087,-3.087,-3.0983,-3.1311,-3.1036,-3.0916,-3.0887,-3.0669,-3.0762,-3.1087,-3.1087,-3.1249,-3.1467,-3.1467,-3.1467,-3.1467,-3.1467,-3.1467,-3.1467,-3.1467,-3.1616,-3.1898,-3.2273,-3.2961,-3.3799,-3.4247,-3.4472,-3.4427,-3.3619,-3.2991,-3.2616,-3.2273,-3.2007,-3.1852,-3.2367,-3.2341,-3.1678,-3.1345,-3.1172,-3.1067,-3.0707,-3.0468,-3.0468,-3.0468,-3.0468,-3.0468,-3.0468,-3.0526,-3.0609,-3.0651,-3.0733,-3.0814,-3.0895,-3.0935,-3.0935,-3.0935,-3.0992,-3.1015,-3.1055,-3.1134,-3.119,-3.119,-3.119,-3.119,-3.119,-3.119,-3.1004,-3.0328,-2.955,-2.8991,-2.8061,-2.73,-2.6843,-2.6775,-2.6842,-2.6926,-2.6957,-2.7038,-2.712,-2.712,-2.7166,-2.7324,-2.7448,-2.7569,-2.7689,-2.7864,-2.7968,-2.7996,-2.8099,-2.8136,-2.8164,-2.8219,-2.83,-2.838,-2.8432,-2.8432,-2.851,-2.8484,-2.851,-2.9106,-2.9419,-2.9689,-2.9779,-2.9779,-2.9779,-2.9779,-2.9779,-2.9779,-2.9833,-2.9745,-2.9689,-2.971,-2.9768,-2.9428,-2.9536,-3.0127,-3.0261,-3.0411,-3.0711,-3.065,-3.0642,-3.0642,-3.0642,-3.0747,-3.1087,-3.119,-3.1307,-3.1482,-3.1467,-3.1467,-3.1467,-3.1467,-3.1467,-3.1467,-3.1467,-3.1467,-3.1571,-3.1973,-3.2512,-3.3155,-3.3604,-3.4025,-3.4085,-3.3637,-3.3156,-3.2792,-3.2429,-3.2228,-3.2198,-3.2898,-3.2962,-3.2305,-3.1962,-3.1753,-3.1533,-3.1146,-3.0716,-3.0543,-3.0468,-3.0468,-3.051,-3.0551,-3.0609,-3.0692,-3.0773,-3.0855,-3.0935,-3.1032,-3.1055,-3.1055,-3.1055,-3.1055,-3.1055,-3.1151,-3.119,-3.119,-3.119,-3.119,-3.119,-3.119,-3.119,-3.1106,-3.0531,-2.9939,-2.9401,-2.852,-2.7656,-2.7301,-2.6978,-2.6942,-2.7007,-2.707,-2.7213,-2.7338,-2.74,-2.7417,-2.7539,-2.7689,-2.7777,-2.7864,-2.8053,-2.8136,-2.8209,-2.8219,-2.83,-2.8353,-2.8406,-2.8458,-2.8536,-2.8536,-2.8536,-2.8562,-2.8587,-2.8587,-2.9197,-2.9419,-2.9689,-2.9779,-2.9779,-2.9779,-2.9779,-2.9779,-2.9792,-2.9656,-2.9427,-2.9632,-2.9386,-2.8953,-2.9174,-2.9392,-2.947,-2.9763,-2.9998,-3.0244,-3.0491,-3.0642,-3.0642,-3.0642,-3.0762,-3.1087,-3.1366,-3.1467,-3.1467,-3.1467,-3.1467,-3.1467,-3.1467,-3.1467,-3.1467,-3.1467,-3.1467,-3.1554,-3.1556,-3.187,-3.2437,-3.2647,-3.3006,-3.3578,-3.3244,-3.3013,-3.2996,-3.2624,-3.2586,-3.2933,-3.3193,-3.3272,-3.3161,-3.2774,-3.2265,-3.1858,-3.1609,-3.1212,-3.0675,-3.0501,-3.0468,-3.0526,-3.0609,-3.0692,-3.0733,-3.0871,-3.0975,-3.1032,-3.1112,-3.119,-3.119,-3.119,-3.119,-3.119,-3.119,-3.119,-3.119,-3.119,-3.119,-3.119,-3.119,-3.119,-3.1055,-3.0666,-3.0213,-2.9881,-2.9104,-2.8203,-2.7947,-2.7536,-2.7208,-2.7149,-2.7244,-2.7369,-2.7552,-2.7701,-2.7701,-2.7748,-2.794,-2.8053,-2.8109,-2.8237,-2.83,-2.8345,-2.8353,-2.8432,-2.8458,-2.8484,-2.851,-2.8562,-2.8587,-2.8587,-2.8587,-2.8587,-2.8587,-2.904,-2.9197,-2.9443,-2.9611,-2.9779,-2.9779,-2.9779,-2.9779,-2.9934,-2.9758,-2.9448,-2.9391,-2.9232,-2.9026,-2.9048,-2.9187,-2.954,-2.9851,-3.0097,-3.0266,-3.0507,-3.0642,-3.0642,-3.0642,-3.0747,-3.1087,-3.1366,-3.1467,-3.1467,-3.1467,-3.1467,-3.1467,-3.1467,-3.1467,-3.1467,-3.1467,-3.1467,-3.1467,-3.1467,-3.1854,-3.2452,-3.2616,-3.2765,-3.2975,-3.3191,-3.3115,-3.2736,-3.2741,-3.2647,-3.2541,-3.33,-3.3836,-3.4055,-3.37,-3.3313,-3.3044,-3.2116,-3.157,-3.1246,-3.0749,-3.0468,-3.0526,-3.0609,-3.0733,-3.0814,-3.0952,-3.1072,-3.1112,-3.119,-3.119,-3.119,-3.119,-3.119,-3.119,-3.119,-3.119,-3.119,-3.119,-3.119,-3.119,-3.119,-3.1213,-3.1218,-3.0968,-3.0751,-3.0455,-2.9913,-2.9419,-2.851,-2.8199,-2.7797,-2.748,-2.7535,-2.7604,-2.773,-2.7876,-2.795,-2.7979,-2.8136,-2.8237,-2.8291,-2.8353,-2.8432,-2.8458,-2.8484,-2.851,-2.8562,-2.8562,-2.8587,-2.8587,-2.8587,-2.8587,-2.8587,-2.8587,-2.8587,-2.8882,-2.9052,-2.9263,-2.9509,-2.9689,-2.9792,-2.9779,-2.9819,-2.9783,-2.9578,-2.925,-2.9041,-2.894,-2.8958,-2.8967,-2.9261,-2.9713,-3.005,-3.0266,-3.0387,-3.0507,-3.0642,-3.0642,-3.0762,-3.0881,-3.1176,-3.1409,-3.1467,-3.1467,-3.1467,-3.1467,-3.1467,-3.1467,-3.1467,-3.1467,-3.1467,-3.1467,-3.1467,-3.1467,-3.1676,-3.2063,-3.2255,-3.243,-3.2531,-3.289,-3.298,-3.285,-3.3081,-3.2977,-3.2695,-3.3321,-3.3942,-3.4263,-3.4159,-3.4087,-3.3607,-3.2746,-3.1918,-3.162,-3.0882,-3.0468,-3.0526,-3.0692,-3.0814,-3.0895,-3.0975,-3.1112,-3.119,-3.119,-3.119,-3.119,-3.119,-3.119,-3.119,-3.119,-3.119,-3.119,-3.119,-3.119,-3.119,-3.1213,-3.1291,-3.1329,-3.1411,-3.1316,-3.0999,-3.0728,-3.0472,-2.9437,-2.9122,-2.8615,-2.8223,-2.8176,-2.8105,-2.7929,-2.8035,-2.8191,-2.8246,-2.8327,-2.8353,-2.8406,-2.8458,-2.8536,-2.8536,-2.8562,-2.8562,-2.8587,-2.8587,-2.8587,-2.8587,-2.8587,-2.8587,-2.8587,-2.8587,-2.8587,-2.8791,-2.887,-2.9184,-2.9341,-2.9419,-2.9689,-2.9741,-2.9616,-2.9416,-2.9154,-2.8828,-2.8756,-2.8652,-2.8774,-2.9085,-2.9435,-2.9822,-3.0129,-3.0387,-3.0507,-3.0642,-3.0642,-3.0628,-3.0895,-3.1132,-3.1292,-3.1424,-3.1467,-3.1467,-3.1467,-3.1467,-3.1467,-3.1467,-3.1467,-3.1467,-3.1467,-3.1467,-3.1467,-3.1467,-3.1569,-3.1599,-3.1757,-3.2,-3.2252,-3.2585,-3.2897,-3.3203,-3.3427,-3.3313,-3.2966,-3.3288,-3.3541,-3.3766,-3.4405,-3.4386,-3.3789,-3.3077,-3.2315,-3.1669,-3.094,-3.051,-3.0568,-3.0733,-3.0912,-3.0952,-3.1072,-3.119,-3.119,-3.119,-3.119,-3.119,-3.119,-3.119,-3.119,-3.1213,-3.1213,-3.1173,-3.123,-3.1269,-3.1269,-3.1291,-3.1351,-3.15,-3.1596,-3.1694,-3.1702,-3.1341,-3.1011,-3.0662,-3.0154,-2.9627,-2.932,-2.9074,-2.8824,-2.8667,-2.8602,-2.8703,-2.838,-2.845,-2.8495,-2.8484,-2.8536,-2.8587,-2.8587,-2.8587,-2.8587,-2.8587,-2.8587,-2.8587,-2.8587,-2.8587,-2.8587,-2.8587,-2.8587,-2.8587,-2.8657,-2.8791,-2.904,-2.9275,-2.9419,-2.9689,-2.9553,-2.9176,-2.9376,-2.8946,-2.8542,-2.867,-2.8785,-2.878,-2.9121,-2.9574,-2.996,-3.0205,-3.0387,-3.0582,-3.0642,-3.0642,-3.0747,-3.1014,-3.119,-3.1292,-3.1424,-3.1467,-3.1467,-3.1467,-3.1467,-3.1467,-3.1467,-3.1467,-3.1467,-3.1467,-3.1467,-3.1467,-3.1467,-3.1612,-3.1727,-3.1925,-3.2135,-3.2342,-3.285,-3.3134,-3.3298,-3.3333,-3.334,-3.3257,-3.2905,-3.3106,-3.366,-3.3988,-3.4005,-3.369,-3.3077,-3.2365,-3.1669,-3.094,-3.0584,-3.0651,-3.0831,-3.0912,-3.0992,-3.1112,-3.119,-3.119,-3.119,-3.119,-3.119,-3.119,-3.1213,-3.1274,-3.1274,-3.1274,-3.1274,-3.1385,-3.144,-3.1423,-3.1466,-3.1596,-3.1671,-3.1765,-3.1912,-3.2056,-3.1987,-3.1758,-3.1438,-3.1258,-3.0776,-3.0322,-3.0036,-2.9715,-2.9479,-2.9376,-2.9134,-2.8611,-2.8528,-2.8626,-2.8616,-2.8587,-2.8587,-2.8587,-2.8587,-2.8587,-2.8587,-2.8587,-2.8587,-2.8587,-2.8587,-2.8587,-2.8587,-2.8587,-2.8587,-2.859,-2.8657,-2.8895,-2.9118,-2.9275,-2.9521,-2.9363,-2.9101,-2.9094,-2.8821,-2.8395,-2.8518,-2.8754,-2.9008,-2.9373,-2.9747,-3.0158,-3.0326,-3.0507,-3.0582,-3.0642,-3.0702,-3.0895,-3.1073,-3.119,-3.1351,-3.1482,-3.1467,-3.1467,-3.1467,-3.1467,-3.1467,-3.1467,-3.1467,-3.1467,-3.1467,-3.1467,-3.1467,-3.1524,-3.1597,-3.1784,-3.2038,-3.2302,-3.2563,-3.3011,-3.3398,-3.3697,-3.3795,-3.376,-3.3444,-3.2945,-3.2833,-3.3292,-3.3657,-3.3624,-3.3375,-3.2911,-3.2365,-3.1653,-3.0983,-3.0626,-3.0675,-3.0855,-3.0935,-3.1015,-3.1095,-3.119,-3.119,-3.119,-3.119,-3.119,-3.123,-3.1291,-3.1368,-3.1466,-3.1466,-3.1411,-3.1466,-3.1576,-3.1596,-3.1671,-3.1765,-3.191,-3.2037,-3.2179,-3.2353,-3.2472,-3.2274,-3.209,-3.2048,-3.1862,-3.1319,-3.0969,-3.0689,-3.0363,-3.0224,-3.0098,-2.9529,-2.9303,-2.9274,-2.8876,-2.8811,-2.8623,-2.8623,-2.8605,-2.8587,-2.8587,-2.8587,-2.8587,-2.8587,-2.8587,-2.8587,-2.8587,-2.8587,-2.8587,-2.851,-2.851,-2.8724,-2.8882,-2.9131,-2.9341,-2.9288,-2.9086,-2.8835,-2.8601,-2.8447,-2.8384,-2.8743,-2.931,-2.9623,-3.0007,-3.0326,-3.0447,-3.0582,-3.0642,-3.0642,-3.0762,-3.1028,-3.1073,-3.1249,-3.1467,-3.1467,-3.1467,-3.1467,-3.1467,-3.1467,-3.1467,-3.1467,-3.1467,-3.1467,-3.1467,-3.1467,-3.1539,-3.1539,-3.1655,-3.1883,-3.215,-3.2453,-3.278,-3.3208,-3.3745,-3.4201,-3.4447,-3.4378,-3.3799,-3.3164,-3.2945,-3.2978,-3.3491,-3.3387,-3.2907,-3.2641,-3.227,-3.1596,-3.0967,-3.0733,-3.0773,-3.0895,-3.1032,-3.1055,-3.1151,-3.119,-3.119,-3.119,-3.119,-3.123,-3.1274,-3.1406,-3.1538,-3.1688,-3.1746,-3.1691,-3.1654,-3.1709,-3.1783,-3.1875,-3.2001,-3.2108,-3.2301,-3.2473,-3.259,-3.269,-3.2681,-3.2602,-3.2581,-3.2411,-3.2127,-3.1853,-3.1685,-3.1376,-3.1018,-3.0912,-3.065,-3.0469,-3.026,-2.95,-2.921,-2.8848,-2.8659,-2.8605,-2.8587,-2.8587,-2.8587,-2.8587,-2.8587,-2.8587,-2.8587,-2.8587,-2.8587,-2.8587,-2.851,-2.851,-2.8724,-2.8882,-2.9118,-2.9328,-2.9113,-2.8604,-2.8741,-2.8534,-2.8186,-2.8368,-2.883,-2.931,-2.9685,-3.0007,-3.0326,-3.0507,-3.0642,-3.0642,-3.0642,-3.0821,-3.1028,-3.1087,-3.1249,-3.1409,-3.1467,-3.1467,-3.1467,-3.1467,-3.1467,-3.1467,-3.1467,-3.1467,-3.1467,-3.1467,-3.1467,-3.1539,-3.1655,-3.1883,-3.2094,-3.2342,-3.2726,-3.3118,-3.3642,-3.4101,-3.4497,-3.4643,-3.4673,-3.4471,-3.3988,-3.3603,-3.3504,-3.33,-3.3079,-3.2779,-3.24,-3.1875,-3.1215,-3.0948,-3.0855,-3.0935,-3.0975,-3.1072,-3.1151,-3.1151,-3.119,-3.119,-3.119,-3.123,-3.1291,-3.1385,-3.1538,-3.1688,-3.1819,-3.2001,-3.2126,-3.209,-3.2001,-3.2037,-3.2108,-3.2179,-3.2301,-3.2456,-3.2623,-3.2787,-3.2916,-3.2979,-3.3042,-3.3055,-3.2888,-3.2673,-3.2637,-3.2433,-3.2155,-3.187,-3.1771,-3.1673,-3.1564,-3.1238,-3.0477,-2.9898,-2.9644,-2.9156,-2.8587,-2.8587,-2.8587,-2.8587,-2.8587,-2.8587,-2.8587,-2.8587,-2.8587,-2.8587,-2.8587,-2.851,-2.851,-2.8578,-2.8803,-2.8961,-2.9172,-2.8898,-2.848,-2.8762,-2.8525,-2.8173,-2.8509,-2.8958,-2.9449,-2.9775,-3.0144,-3.0387,-3.0568,-3.0642,-3.0642,-3.0642,-3.0762,-3.1028,-3.1146,-3.1249,-3.1467,-3.1467,-3.1467,-3.1467,-3.1467,-3.1467,-3.1467,-3.1467,-3.1467,-3.1467,-3.1524,-3.1539,-3.167,-3.1727,-3.1955,-3.2287,-3.2492,-3.2926,-3.3487,-3.4,-3.4349,-3.4643,-3.4756,-3.4851,-3.48,-3.4565,-3.423,-3.3914,-3.3561,-3.3156,-3.2527,-3.2603,-3.1909,-3.1264,-3.0952,-3.0952,-3.1015,-3.1055,-3.1112,-3.119,-3.119,-3.119,-3.119,-3.119,-3.1213,-3.1312,-3.1428,-3.1634,-3.1837,-3.2037,-3.2232,-3.2388,-3.2301,-3.2267,-3.2301,-3.237,-3.2456,-3.2557,-3.2639,-3.277,-3.2979,-3.3091,-3.317,-3.3196,-3.3256,-3.3256,-3.316,-3.3243,-3.3135,-3.2911,-3.2741,-3.2622,-3.2578,-3.2524,-3.2125,-3.1528,-3.1021,-3.0568,-2.9807,-2.8956,-2.8605,-2.8587,-2.8587,-2.8587,-2.8587,-2.8587,-2.8587,-2.8587,-2.8587,-2.8587,-2.851,-2.851,-2.851,-2.8657,-2.8882,-2.904,-2.881,-2.8464,-2.8736,-2.8677,-2.8292,-2.8624,-2.9198,-2.9588,-2.9974,-3.028,-3.0522,-3.0582,-3.0642,-3.0642,-3.0642,-3.0836,-3.1028,-3.1146,-3.1264,-3.1467,-3.1467,-3.1467,-3.1467,-3.1467,-3.1467,-3.1467,-3.1467,-3.1467,-3.1467,-3.1539,-3.1612,-3.1727,-3.1898,-3.2109,-3.2398,-3.2656,-3.3156,-3.3832,-3.425,-3.4497,-3.4691,-3.4851,-3.4899,-3.4899,-3.5041,-3.4755,-3.4384,-3.3968,-3.3512,-3.2337,-3.2638,-3.2144,-3.1278,-3.1032,-3.1032,-3.1015,-3.1095,-3.119,-3.119,-3.119,-3.119,-3.119,-3.123,-3.1291,-3.1334,-3.1524,-3.1765,-3.2001,-3.2267,-3.2439,-3.2541,-3.2507,-3.2557,-3.2539,-3.2573,-3.2641,-3.2755,-3.2834,-3.2961,-3.3104,-3.3262,-3.334,-3.3364,-3.3393,-3.3364,-3.3364,-3.3364,-3.3364,-3.3176,-3.3103,-3.3067,-3.3067,-3.3121,-3.2832,-3.2361,-3.1854,-3.1166,-3.0087,-2.9337,-2.8993,-2.8685,-2.8587,-2.8587,-2.8587,-2.8587,-2.8587,-2.8587,-2.8587,-2.8612,-2.851,-2.851,-2.851,-2.8749,-2.9052,-2.904,-2.8861,-2.8694,-2.8925,-2.8789,-2.8395,-2.8931,-2.9373,-2.9761,-3.0144,-3.0387,-3.0582,-3.0642,-3.0642,-3.0642,-3.0642,-3.0762,-3.1028,-3.1087,-3.1249,-3.1409,-3.1467,-3.1467,-3.1467,-3.1467,-3.1569,-3.1482,-3.1526,-3.1541,-3.1614,-3.167,-3.1845,-3.1883,-3.2094,-3.2342,-3.2617,-3.3065,-3.3471,-3.4151,-3.4448,-3.4643,-3.4804,-3.4899,-3.4899,-3.4899,-3.5041,-3.5052,-3.491,-3.4533,-3.3917,-3.3194,-3.2723,-3.2225,-3.1415,-3.1168,-3.1168,-3.1207,-3.119,-3.119,-3.119,-3.119,-3.119,-3.123,-3.1291,-3.1334,-3.1524,-3.1711,-3.2001,-3.2249,-3.2456,-3.2623,-3.2755,-3.282,-3.2787,-3.2687,-3.2755,-3.2805,-3.2934,-3.3011,-3.3104,-3.3196,-3.3322,-3.3352,-3.3364,-3.3393,-3.3393,-3.3393,-3.3393,-3.3393,-3.3339,-3.3321,-3.3284,-3.3266,-3.3284,-3.3284,-3.2868,-3.2451,-3.1691,-3.074,-2.9896,-2.9377,-2.9062,-2.8775,-2.8587,-2.8587,-2.8587,-2.8612,-2.8612,-2.8637,-2.8637,-2.851,-2.851,-2.8578,-2.8736,-2.8912,-2.8978,-2.885,-2.8677,-2.8922,-2.8797,-2.8777,-2.9135,-2.956,-2.9822,-3.0129,-3.0387,-3.0582,-3.0642,-3.0642,-3.0642,-3.0642,-3.0762,-3.1073,-3.1087,-3.1249,-3.1409,-3.1467,-3.1467,-3.1467,-3.1467,-3.1704,-3.2003,-3.2033,-3.2033,-3.215,-3.2238,-3.2228,-3.2231,-3.2302,-3.2617,-3.2996,-3.345,-3.3949,-3.425,-3.4546,-3.4756,-3.4899,-3.4899,-3.4947,-3.5011,-3.5135,-3.5261,-3.5266,-3.5071,-3.4638,-3.3912,-3.3229,-3.2527,-3.1799,-3.1461,-3.119,-3.119,-3.119,-3.119,-3.119,-3.119,-3.1213,-3.1252,-3.1346,-3.1483,-3.1671,-3.1929,-3.2144,-3.2371,-3.259,-3.2787,-3.2916,-3.3011,-3.293,-3.2866,-3.2948,-3.3028,-3.3091,-3.3183,-3.3244,-3.3304,-3.3382,-3.3393,-3.3393,-3.3393,-3.3393,-3.3393,-3.3393,-3.3393,-3.3393,-3.3393,-3.3393,-3.3393,-3.3393,-3.3393,-3.3302,-3.2886,-3.2325,-3.1546,-3.0749,-2.9922,-2.9388,-2.9101,-2.8866,-2.8667,-2.871,-2.8753,-2.8699,-2.8687,-2.8699,-2.8276,-2.8264,-2.8409,-2.8553,-2.8635,-2.8724,-2.873,-2.8686,-2.8871,-2.8892,-2.8821,-2.9352,-2.9775,-2.9946,-3.019,-3.0447,-3.0642,-3.0642,-3.0642,-3.0628,-3.0628,-3.0807,-3.1014,-3.1132,-3.1234,-3.1467,-3.1467,-3.1467,-3.1467,-3.1467,-3.1855,-3.2258,-3.2482,-3.2736,-3.284,-3.3063,-3.2898,-3.2686,-3.2748,-3.306,-3.3466,-3.3899,-3.4184,-3.4399,-3.4594,-3.4787,-3.4899,-3.4899,-3.4994,-3.5088,-3.5198,-3.5354,-3.5492,-3.5549,-3.5334,-3.4742,-3.4032,-3.322,-3.2357,-3.1833,-3.1444,-3.1224,-3.119,-3.119,-3.119,-3.1213,-3.1235,-3.1351,-3.1483,-3.1651,-3.1856,-3.2073,-3.2301,-3.2541,-3.2773,-3.2948,-3.3011,-3.3104,-3.3165,-3.3135,-3.3165,-3.3183,-3.3214,-3.3274,-3.3304,-3.3334,-3.3393,-3.3393,-3.3393,-3.3393,-3.3393,-3.3393,-3.3393,-3.3393,-3.3393,-3.3393,-3.3393,-3.3393,-3.3393,-3.3393,-3.3393,-3.3284,-3.2723,-3.2198,-3.1447,-3.0658,-3.0051,-2.9572,-2.95,-2.9344,-2.9069,-2.8876,-2.8809,-2.8828,-2.8882,-2.7318,-2.7318,-2.7405,-2.768,-2.8175,-2.8381,-2.8518,-2.8667,-2.8918,-2.9168,-2.9198,-2.9623,-2.9946,-3.019,-3.0447,-3.0568,-3.0568,-3.0642,-3.0642,-3.0628,-3.0687,-3.0881,-3.1073,-3.1234,-3.1351,-3.1467,-3.1467,-3.1467,-3.1467,-3.1467,-3.1928,-3.2452,-3.2811,-3.3065,-3.3728,-3.4057,-3.3925,-3.3527,-3.3818,-3.4022,-3.4027,-3.4183,-3.4399,-3.4594,-3.4787,-3.4883,-3.4899,-3.4899,-3.4947,-3.5088,-3.5245,-3.5337,-3.5492,-3.5532,-3.556,-3.5301,-3.4709,-3.3761,-3.2628,-3.2138,-3.1732,-3.1343,-3.119,-3.119,-3.123,-3.1291,-3.1389,-3.1542,-3.1671,-3.1856,-3.2073,-3.2267,-3.2507,-3.274,-3.2934,-3.3091,-3.3201,-3.3196,-3.3256,-3.3286,-3.3286,-3.3274,-3.3292,-3.3352,-3.3393,-3.3393,-3.3393,-3.3393,-3.3393,-3.3393,-3.3393,-3.3393,-3.3393,-3.3393,-3.3393,-3.3393,-3.3393,-3.3393,-3.3393,-3.3393,-3.3393,-3.3393,-3.3375,-3.2795,-3.2081,-3.1601,-3.1202,-3.0776,-3.0414,-3.0104,-2.9864,-2.938,-2.8895,-2.901,-2.9387,-2.6882,-2.736,-2.7656,-2.7865,-2.8192,-2.8402,-2.8608,-2.8865,-2.9127,-2.9306,-2.9554,-2.9884,-3.0251,-3.0447,-3.0568,-3.0582,-3.0642,-3.0642,-3.0642,-3.0642,-3.0762,-3.0895,-3.1073,-3.1234,-3.1351,-3.1467,-3.1467,-3.1467,-3.1467,-3.1644,-3.2003,-3.3066,-3.3352,-3.3864,-3.4623,-3.4925,-3.4864,-3.4648,-3.4689,-3.4748,-3.4683,-3.4644,-3.4611,-3.4707,-3.4835,-3.4899,-3.4899,-3.4899,-3.4994,-3.5152,-3.5291,-3.5383,-3.5503,-3.5594,-3.5622,-3.5543,-3.5351,-3.4438,-3.3152,-3.2577,-3.1968,-3.141,-3.119,-3.123,-3.1252,-3.1389,-3.1542,-3.1709,-3.1893,-3.2108,-3.2318,-3.2541,-3.2722,-3.2884,-3.306,-3.317,-3.3292,-3.3334,-3.3364,-3.3393,-3.3393,-3.3364,-3.3352,-3.3364,-3.3393,-3.3393,-3.3393,-3.3393,-3.3393,-3.3393,-3.3393,-3.3393,-3.3393,-3.3393,-3.3393,-3.3393,-3.3393,-3.3393,-3.3393,-3.3393,-3.3393,-3.3393,-3.3393,-3.3422,-3.298,-3.2563,-3.2291,-3.1701,-3.1056,-3.0836,-3.0688,-3.0319,-3.0027,-3.0351,-3.0785,-2.6814,-2.7454,-2.7695,-2.7898,-2.8216,-2.847,-2.8746,-2.9143,-2.9342,-2.9526,-2.9837,-3.0205,-3.0447,-3.0568,-3.0568,-3.0642,-3.0642,-3.0642,-3.0642,-3.0642,-3.0762,-3.094,-3.1132,-3.1234,-3.1409,-3.1467,-3.1467,-3.1467,-3.1524,-3.1659,-3.2315,-3.3759,-3.3774,-3.4562,-3.5446,-3.5918,-3.5978,-3.5856,-3.5395,-3.5253,-3.5263,-3.489,-3.4773,-3.4787,-3.4851,-3.4899,-3.4899,-3.4947,-3.5088,-3.5245,-3.5337,-3.5429,-3.5577,-3.5594,-3.5639,-3.5622,-3.552,-3.4996,-3.3863,-3.3051,-3.2239,-3.1704,-3.1286,-3.1291,-3.1466,-3.1579,-3.1765,-3.1946,-3.2126,-3.2301,-3.2507,-3.2773,-3.2884,-3.3028,-3.317,-3.328,-3.3358,-3.3454,-3.3447,-3.3393,-3.3393,-3.3393,-3.3393,-3.3393,-3.3393,-3.3393,-3.3393,-3.3393,-3.3393,-3.3393,-3.3393,-3.3393,-3.3393,-3.3393,-3.3393,-3.3393,-3.3393,-3.3393,-3.3393,-3.3393,-3.3393,-3.3393,-3.3393,-3.3422,-3.3481,-3.3356,-3.2948,-3.2293,-3.17,-3.1652,-3.1583,-3.1494,-3.144,-3.1715,-3.1948,-2.705,-2.7304,-2.699,-2.7288,-2.7894,-2.8185,-2.8678,-2.9337,-2.9505,-2.9837,-3.019,-3.0447,-3.0568,-3.0568,-3.0642,-3.0642,-3.0642,-3.0642,-3.0642,-3.0702,-3.0895,-3.1014,-3.1205,-3.1307,-3.1467,-3.1467,-3.1467,-3.1467,-3.1524,-3.167,-3.2583,-3.3638,-3.3984,-3.5079,-3.6105,-3.6852,-3.7086,-3.6844,-3.6133,-3.5656,-3.553,-3.5185,-3.4772,-3.4851,-3.4899,-3.4899,-3.4899,-3.4994,-3.5135,-3.5291,-3.54,-3.5475,-3.5594,-3.5639,-3.5639,-3.5639,-3.5639,-3.5182,-3.4472,-3.3626,-3.2916,-3.228,-3.1732,-3.1445,-3.1671,-3.1746,-3.1982,-3.2249,-3.2371,-3.2541,-3.274,-3.2934,-3.306,-3.3404,-3.3586,-3.3629,-3.3659,-3.3617,-3.3592,-3.3447,-3.3393,-3.3393,-3.3393,-3.3393,-3.3393,-3.3393,-3.3393,-3.3393,-3.3393,-3.3393,-3.3393,-3.3393,-3.3393,-3.3393,-3.3393,-3.3393,-3.3393,-3.3393,-3.3393,-3.3393,-3.3393,-3.3393,-3.3422,-3.3481,-3.3538,-3.3577,-3.3625,-3.3104,-3.2719,-3.2588,-3.25,-3.249,-3.2519,-3.2688,-3.2823,-2.7403,-2.759,-2.7643,-2.7842,-2.817,-2.8675,-2.9121,-2.9526,-2.9898,-3.0205,-3.0507,-3.0582,-3.0642,-3.0642,-3.0642,-3.0642,-3.0642,-3.0642,-3.0642,-3.0702,-3.0881,-3.1087,-3.119,-3.1351,-3.1467,-3.1467,-3.1467,-3.1467,-3.1524,-3.1712,-3.244,-3.3254,-3.4023,-3.538,-3.656,-3.7535,-3.7882,-3.7695,-3.6979,-3.6385,-3.6156,-3.5398,-3.4851,-3.4899,-3.4899,-3.4899,-3.4947,-3.5058,-3.5152,-3.5291,-3.5446,-3.552,-3.5594,-3.5639,-3.5639,-3.5622,-3.5622,-3.5497,-3.5118,-3.4109,-3.294,-3.1975,-3.1619,-3.1688,-3.1891,-3.2018,-3.2214,-3.2422,-3.2574,-3.2773,-3.287,-3.3096,-3.3345,-3.3833,-3.4063,-3.4123,-3.4123,-3.4154,-3.3864,-3.3755,-3.3538,-3.3393,-3.3393,-3.3393,-3.3393,-3.3393,-3.3393,-3.3393,-3.3393,-3.3393,-3.3393,-3.3393,-3.3393,-3.3393,-3.3393,-3.3393,-3.3393,-3.3393,-3.3393,-3.3393,-3.3422,-3.3452,-3.3481,-3.3538,-3.3577,-3.3671,-3.3753,-3.3807,-3.3666,-3.3368,-3.3407,-3.3562,-3.3608,-3.3616,-3.3676,-2.7921,-2.8105,-2.8417,-2.856,-2.8624,-2.9121,-2.9574,-2.9837,-3.0144,-3.0447,-3.0568,-3.0642,-3.0642,-3.0642,-3.0642,-3.0642,-3.0642,-3.0642,-3.0642,-3.0702,-3.0895,-3.1087,-3.119,-3.1351,-3.1467,-3.1467,-3.1539,-3.1539,-3.1597,-3.1826,-3.2494,-3.3257,-3.411,-3.5388,-3.6715,-3.7937,-3.8488,-3.8345,-3.758,-3.6982,-3.6769,-3.5645,-3.4916,-3.4899,-3.4899,-3.4899,-3.4947,-3.5041,-3.5198,-3.5337,-3.5429,-3.5549,-3.5594,-3.5639,-3.5639,-3.5622,-3.5667,-3.5728,-3.5433,-3.4661,-3.3274,-3.229,-3.2152,-3.215,-3.2088,-3.2249,-3.2388,-3.2592,-3.2805,-3.3037,-3.3194,-3.3669,-3.414,-3.4659,-3.4888,-3.4956,-3.4956,-3.495,-3.4443,-3.4081,-3.3882,-3.3773,-3.3592,-3.3628,-3.3683,-3.3592,-3.3411,-3.3393,-3.3393,-3.3393,-3.3393,-3.3393,-3.3393,-3.3393,-3.3393,-3.3393,-3.3393,-3.3393,-3.3393,-3.3422,-3.347,-3.3481,-3.3549,-3.3661,-3.3698,-3.3762,-3.3868,-3.3998,-3.4049,-3.4018,-3.408,-3.4149,-3.4244,-3.4245,-3.4379,-2.8638,-2.8803,-2.8958,-2.9085,-2.9099,-2.9477,-2.9837,-3.019,-3.0312,-3.0447,-3.0568,-3.0642,-3.0642,-3.0642,-3.0642,-3.0642,-3.0642,-3.0642,-3.0642,-3.0702,-3.0955,-3.1087,-3.119,-3.1366,-3.1467,-3.1467,-3.1524,-3.1597,-3.1799,-3.1996,-3.2645,-3.3336,-3.406,-3.511,-3.6447,-3.7834,-3.8645,-3.8722,-3.7562,-3.7068,-3.6605,-3.5578,-3.5015,-3.4899,-3.4899,-3.4899,-3.4994,-3.5135,-3.5291,-3.5354,-3.5503,-3.5577,-3.5594,-3.5639,-3.5622,-3.5622,-3.5711,-3.58,-3.5732,-3.5232,-3.4301,-3.3124,-3.3017,-3.296,-3.2546,-3.2493,-3.2576,-3.2844,-3.3023,-3.3508,-3.3993,-3.4519,-3.4984,-3.548,-3.5679,-3.5783,-3.5783,-3.5783,-3.5313,-3.4679,-3.4498,-3.4371,-3.4063,-3.39,-3.3991,-3.3864,-3.3538,-3.3465,-3.3592,-3.3592,-3.3647,-3.3393,-3.3393,-3.3393,-3.3393,-3.3393,-3.3393,-3.3393,-3.3422,-3.3452,-3.3481,-3.3567,-3.3633,-3.3753,-3.3842,-3.3921,-3.4055,-3.4179,-3.4269,-3.434,-3.4473,-3.4564,-3.4708,-3.4788,-3.4788,-2.8958,-2.9022,-2.9226,-2.9415,-2.9588,-2.9851,-3.0097,-3.0326,-3.0447,-3.0568,-3.0582,-3.0642,-3.0642,-3.0642,-3.0642,-3.0642,-3.0642,-3.0642,-3.0642,-3.0642,-3.0955,-3.1087,-3.1205,-3.1366,-3.1467,-3.1467,-3.1524,-3.1597,-3.1784,-3.2094,-3.2404,-3.3013,-3.4153,-3.5246,-3.6168,-3.7118,-3.7554,-3.7442,-3.6802,-3.6357,-3.6274,-3.5462,-3.4899,-3.4899,-3.4899,-3.4947,-3.5058,-3.5198,-3.5354,-3.54,-3.5549,-3.5577,-3.5639,-3.5639,-3.5622,-3.5711,-3.5861,-3.6019,-3.6216,-3.6052,-3.5514,-3.4523,-3.3972,-3.386,-3.3336,-3.3438,-3.3339,-3.3269,-3.3611,-3.4065,-3.4398,-3.5105,-3.5679,-3.6345,-3.6598,-3.658,-3.658,-3.6562,-3.629,-3.5494,-3.5077,-3.4787,-3.448,-3.4697,-3.4806,-3.5077,-3.4932,-3.4461,-3.4407,-3.4226,-3.4135,-3.3592,-3.3393,-3.3393,-3.3393,-3.3393,-3.3393,-3.3422,-3.3452,-3.3481,-3.3538,-3.3605,-3.3744,-3.386,-3.3947,-3.4074,-3.4245,-3.4409,-3.4561,-3.4687,-3.4842,-3.4824,-3.4809,-3.4849,-3.4869,-2.9289,-2.9289,-2.9415,-2.9651,-2.9898,-3.005,-3.0219,-3.0387,-3.0568,-3.0642,-3.0642,-3.0642,-3.0642,-3.0642,-3.0642,-3.0642,-3.0642,-3.0642,-3.0642,-3.0642,-3.0955,-3.1087,-3.1205,-3.1366,-3.1467,-3.1467,-3.1524,-3.1597,-3.1883,-3.2135,-3.2594,-3.3313,-3.4194,-3.4875,-3.5717,-3.635,-3.7014,-3.6951,-3.6489,-3.6092,-3.586,-3.5379,-3.4916,-3.4899,-3.4947,-3.4994,-3.5088,-3.5245,-3.54,-3.5475,-3.5549,-3.5639,-3.5639,-3.5667,-3.5711,-3.5861,-3.6079,-3.6318,-3.6632,-3.6753,-3.6243,-3.5615,-3.5359,-3.4888,-3.4287,-3.412,-3.4145,-3.4199,-3.4402,-3.4844,-3.5291,-3.5969,-3.6472,-3.7123,-3.7341,-3.7323,-3.7323,-3.7323,-3.7069,-3.6272,-3.5802,-3.5421,-3.5113,-3.5476,-3.5765,-3.6109,-3.6417,-3.5856,-3.524,-3.4914,-3.4588,-3.4027,-3.352,-3.3429,-3.3411,-3.3393,-3.3393,-3.3441,-3.3481,-3.3538,-3.3605,-3.3689,-3.3834,-3.3965,-3.4099,-3.4245,-3.4473,-3.4666,-3.4804,-3.5036,-3.5247,-3.5172,-3.4983,-3.504,-3.5154,-2.956,-2.9574,-2.9574,-2.9775,-3.005,-3.0111,-3.0341,-3.0568,-3.0642,-3.0642,-3.0642,-3.0642,-3.0642,-3.0642,-3.0642,-3.0642,-3.0642,-3.0642,-3.0642,-3.0702,-3.0955,-3.1073,-3.1205,-3.1366,-3.1467,-3.1467,-3.1524,-3.164,-3.1996,-3.2358,-3.2996,-3.3626,-3.4163,-3.4659,-3.5235,-3.5893,-3.6521,-3.634,-3.6108,-3.576,-3.5562,-3.5247,-3.4996,-3.4947,-3.4994,-3.5088,-3.5198,-3.5354,-3.5446,-3.552,-3.5532,-3.5577,-3.5639,-3.5728,-3.5861,-3.6079,-3.6335,-3.665,-3.693,-3.7066,-3.7185,-3.6803,-3.6594,-3.6061,-3.547,-3.4999,-3.4954,-3.5051,-3.5255,-3.5901,-3.6544,-3.6906,-3.7286,-3.7685,-3.7993,-3.8029,-3.8047,-3.792,-3.7649,-3.7214,-3.6852,-3.6453,-3.6037,-3.6218,-3.649,-3.6961,-3.7178,-3.6979,-3.6327,-3.5512,-3.5095,-3.4461,-3.3973,-3.3556,-3.3465,-3.3429,-3.3422,-3.3499,-3.3538,-3.3577,-3.3689,-3.3807,-3.3947,-3.4099,-3.4245,-3.4427,-3.4645,-3.4864,-3.5076,-3.5343,-3.5779,-3.5684,-3.5571,-3.5571,-3.5647,-2.8549,-2.8942,-2.8956,-2.9393,-3.0083,-3.0341,-3.0507,-3.0568,-3.0642,-3.0642,-3.0642,-3.0642,-3.0642,-3.0642,-3.0642,-3.0642,-3.0642,-3.0642,-3.0702,-3.0821,-3.0955,-3.1117,-3.1292,-3.1409,-3.1467,-3.1467,-3.1524,-3.1697,-3.2094,-3.2539,-3.3171,-3.3848,-3.4201,-3.4448,-3.4791,-3.5233,-3.5497,-3.5628,-3.5429,-3.5363,-3.5297,-3.5032,-3.4947,-3.5041,-3.5088,-3.5182,-3.5354,-3.5446,-3.5537,-3.5549,-3.5577,-3.5639,-3.5639,-3.5728,-3.5905,-3.636,-3.665,-3.6987,-3.7182,-3.7317,-3.7466,-3.7595,-3.747,-3.7093,-3.6516,-3.6083,-3.5912,-3.5977,-3.6059,-3.6598,-3.7051,-3.7449,-3.7739,-3.7975,-3.8192,-3.8192,-3.8192,-3.8138,-3.7884,-3.7775,-3.7431,-3.716,-3.6761,-3.6761,-3.7069,-3.7631,-3.7866,-3.7703,-3.7305,-3.6435,-3.5783,-3.515,-3.457,-3.419,-3.3676,-3.356,-3.3517,-3.3509,-3.3577,-3.3689,-3.378,-3.3895,-3.408,-3.4306,-3.4604,-3.472,-3.4809,-3.5172,-3.5779,-3.6102,-3.6443,-3.6291,-3.6196,-3.6253,-3.6348,-2.8001,-2.831,-2.8398,-2.899,-2.9832,-3.0406,-3.0642,-3.0642,-3.0642,-3.0642,-3.0642,-3.0642,-3.0642,-3.0642,-3.0642,-3.0642,-3.0642,-3.0642,-3.0642,-3.0821,-3.1014,-3.1176,-3.1292,-3.1409,-3.1467,-3.1524,-3.1597,-3.1784,-3.2165,-3.2812,-3.345,-3.3949,-3.425,-3.4497,-3.4789,-3.4951,-3.4965,-3.4998,-3.4949,-3.4899,-3.4947,-3.493,-3.5041,-3.5088,-3.5182,-3.5337,-3.5492,-3.5537,-3.5566,-3.5577,-3.5622,-3.5622,-3.5711,-3.5949,-3.6233,-3.665,-3.6948,-3.7182,-3.741,-3.754,-3.7667,-3.781,-3.7933,-3.7715,-3.737,-3.6934,-3.6877,-3.6924,-3.6961,-3.7087,-3.7486,-3.7848,-3.8029,-3.8192,-3.8192,-3.8192,-3.8192,-3.8192,-3.8138,-3.8101,-3.7917,-3.7664,-3.7468,-3.7449,-3.754,-3.7902,-3.8083,-3.8029,-3.7703,-3.7105,-3.6562,-3.6055,-3.5421,-3.4878,-3.4329,-3.3862,-3.3782,-3.3777,-3.3661,-3.3753,-3.3887,-3.4086,-3.4277,-3.4641,-3.5028,-3.5225,-3.5493,-3.6139,-3.6708,-3.6955,-3.7278,-3.7447,-3.7315,-3.7068,-3.7182,-2.765,-2.7764,-2.7937,-2.8582,-2.9492,-3.0174,-3.0495,-3.0642,-3.0642,-3.0642,-3.0642,-3.0642,-3.0642,-3.0642,-3.0642,-3.0642,-3.0642,-3.0642,-3.0702,-3.0821,-3.1014,-3.119,-3.1351,-3.1424,-3.1467,-3.1539,-3.1727,-3.1883,-3.2262,-3.2866,-3.3607,-3.4101,-3.4349,-3.4594,-3.4835,-3.4899,-3.4899,-3.4899,-3.4899,-3.4899,-3.4947,-3.5041,-3.5135,-3.5198,-3.5337,-3.5492,-3.552,-3.5549,-3.5639,-3.5639,-3.5622,-3.5667,-3.5932,-3.6251,-3.6609,-3.6891,-3.7143,-3.7354,-3.754,-3.7667,-3.781,-3.7915,-3.8036,-3.8016,-3.7778,-3.7543,-3.7486,-3.754,-3.7558,-3.7558,-3.7866,-3.8011,-3.8138,-3.8192,-3.8192,-3.8192,-3.8192,-3.8192,-3.8192,-3.8156,-3.8101,-3.7884,-3.7884,-3.783,-3.7812,-3.8119,-3.8192,-3.8192,-3.8011,-3.7558,-3.716,-3.6779,-3.6272,-3.5602,-3.4994,-3.4563,-3.4258,-3.4126,-3.3945,-3.3868,-3.3998,-3.4228,-3.4493,-3.5074,-3.5679,-3.6022,-3.6404,-3.703,-3.7504,-3.7694,-3.8054,-3.8624,-3.8548,-3.813,-3.8148,-2.668,-2.7258,-2.8011,-2.8757,-2.942,-2.9725,-3.0132,-3.0628,-3.0642,-3.0568,-3.0642,-3.0642,-3.0642,-3.0642,-3.0642,-3.0642,-3.0642,-3.0642,-3.0762,-3.0955,-3.1087,-3.1249,-3.1409,-3.1467,-3.1524,-3.1539,-3.1712,-3.2038,-3.2523,-3.3118,-3.3658,-3.4101,-3.4349,-3.4643,-3.4899,-3.4899,-3.4899,-3.4899,-3.4947,-3.4994,-3.5041,-3.5105,-3.5198,-3.5354,-3.5492,-3.552,-3.5549,-3.5594,-3.5684,-3.5728,-3.5773,-3.5888,-3.6174,-3.6502,-3.6748,-3.6987,-3.7297,-3.7503,-3.7667,-3.781,-3.7967,-3.8088,-3.814,-3.8174,-3.8101,-3.7975,-3.7938,-3.8029,-3.8083,-3.8083,-3.8101,-3.8156,-3.8192,-3.8192,-3.8192,-3.8192,-3.8192,-3.8192,-3.8192,-3.8192,-3.8192,-3.8192,-3.8192,-3.8192,-3.8192,-3.8192,-3.8192,-3.8192,-3.8192,-3.7902,-3.7558,-3.7196,-3.7011,-3.6413,-3.5768,-3.5339,-3.51,-3.4678,-3.443,-3.4286,-3.4222,-3.4885,-3.554,-3.5918,-3.6383,-3.6821,-3.7334,-3.7883,-3.8281,-3.8452,-3.8736,-3.921,-3.9418,-3.9153,-3.9267,-2.6254,-2.6816,-2.7637,-2.8224,-2.8669,-2.9015,-2.9566,-3.0089,-3.0147,-3.0306,-3.0613,-3.0642,-3.0642,-3.0642,-3.0642,-3.0642,-3.0642,-3.0687,-3.0821,-3.1028,-3.119,-3.1307,-3.1409,-3.1524,-3.1597,-3.1655,-3.1996,-3.2373,-3.2796,-3.3224,-3.371,-3.4101,-3.4399,-3.4643,-3.4851,-3.4899,-3.4899,-3.4899,-3.493,-3.5041,-3.5152,-3.5198,-3.5291,-3.5446,-3.552,-3.5549,-3.5594,-3.5639,-3.5728,-3.5861,-3.5932,-3.6233,-3.6468,-3.6708,-3.7005,-3.7259,-3.7466,-3.7649,-3.781,-3.7967,-3.8088,-3.8192,-3.8192,-3.8192,-3.8192,-3.8065,-3.8065,-3.8156,-3.8156,-3.8156,-3.8156,-3.8192,-3.8192,-3.8192,-3.8192,-3.8192,-3.8192,-3.8192,-3.8192,-3.8192,-3.8192,-3.8192,-3.8192,-3.8192,-3.8192,-3.8192,-3.8192,-3.8192,-3.8192,-3.8192,-3.7866,-3.7682,-3.7464,-3.7152,-3.6549,-3.6224,-3.6006,-3.554,-3.5016,-3.5002,-3.5142,-3.5995,-3.6661,-3.6892,-3.7236,-3.7769,-3.8281,-3.8698,-3.9039,-3.9248,-3.9494,-3.9775,-3.9889,-3.9889,-3.9794,-2.6147,-2.6412,-2.7104,-2.7556,-2.7755,-2.8318,-2.8927,-2.9464,-2.9595,-2.9929,-3.0393,-3.0524,-3.0568,-3.0642,-3.0642,-3.0642,-3.0642,-3.0687,-3.0895,-3.1073,-3.1234,-3.1351,-3.1409,-3.1524,-3.164,-3.1925,-3.2191,-3.2594,-3.2989,-3.3398,-3.3797,-3.4084,-3.4399,-3.4643,-3.4851,-3.4899,-3.4899,-3.4947,-3.4994,-3.5135,-3.5245,-3.5337,-3.5383,-3.5475,-3.5549,-3.5639,-3.5639,-3.5728,-3.5773,-3.6019,-3.6233,-3.6527,-3.6771,-3.697,-3.7203,-3.7466,-3.7613,-3.7792,-3.7949,-3.8088,-3.814,-3.8192,-3.8192,-3.8192,-3.8192,-3.8192,-3.8192,-3.8192,-3.8192,-3.8192,-3.8192,-3.8192,-3.8192,-3.8192,-3.8192,-3.8192,-3.8192,-3.8192,-3.8192,-3.8192,-3.8192,-3.8192,-3.8192,-3.8192,-3.8192,-3.8192,-3.8192,-3.8192,-3.8192,-3.8192,-3.8047,-3.799,-3.7917,-3.757,-3.7271,-3.6978,-3.6753,-3.6527,-3.6073,-3.5975,-3.6114,-3.6914,-3.7478,-3.7688,-3.809,-3.8622,-3.8963,-3.9304,-3.9646,-3.9797,-3.9813,-3.9889,-3.9889,-3.9889,-3.9889,-2.5921,-2.6472,-2.6804,-2.7244,-2.7694,-2.7813,-2.8274,-2.8898,-2.9392,-2.9711,-2.9943,-3.0379,-3.0642,-3.0642,-3.0642,-3.0642,-3.0628,-3.0747,-3.0881,-3.1073,-3.1234,-3.1351,-3.1467,-3.1582,-3.1811,-3.2079,-3.2453,-3.278,-3.3187,-3.3591,-3.3933,-3.4234,-3.4497,-3.4756,-3.4851,-3.4899,-3.4899,-3.4947,-3.5058,-3.5198,-3.5291,-3.5383,-3.552,-3.5549,-3.5577,-3.5622,-3.5639,-3.5728,-3.5905,-3.6208,-3.6585,-3.6811,-3.7009,-3.7203,-3.7429,-3.7613,-3.7775,-3.7916,-3.8054,-3.814,-3.8192,-3.8192,-3.8192,-3.8192,-3.8192,-3.8192,-3.8192,-3.8192,-3.8192,-3.8192,-3.8192,-3.8192,-3.8192,-3.8192,-3.8192,-3.8192,-3.8192,-3.8192,-3.8192,-3.8192,-3.8192,-3.8192,-3.8192,-3.8192,-3.8192,-3.8192,-3.8192,-3.8192,-3.8192,-3.8192,-3.8192,-3.8225,-3.8259,-3.8322,-3.8113,-3.765,-3.7367,-3.723,-3.7158,-3.7074,-3.7265,-3.781,-3.8275,-3.8506,-3.8923,-3.9435,-3.9738,-3.9702,-3.9757,-3.9832,-3.9851,-3.9889,-3.9889,-3.9889,-3.9889]}]]